GFSSGP_925_thetae_000.txt.gz
Theta_e
328 337 339 344 362 359 353 348 348 350 347 342 341 341 341 344 351 355 341 339 341 351 353 347 344 346 347 346 346 346 344 344 347 349 350 350 350 350 350 349 349 347 347 345 344 343 343 345 350
330 337 340 352 359 354 351 343 344 342 342 341 339 337 335 335 335 333 334 334 338 342 349 346 346 345 345 344 343 344 345 345 346 348 350 350 350 350 350 350 348 348 348 345 343 343 343 343 346
332 334 345 355 352 349 348 341 336 337 336 339 335 329 329 330 328 329 329 331 333 339 340 350 346 344 345 343 343 343 343 342 342 342 343 345 343 342 344 348 348 348 346 343 342 342 343 343 343
331 342 341 347 347 341 340 335 332 334 334 332 329 327 325 324 326 326 327 327 330 339 342 346 345 344 344 344 342 341 339 334 332 332 334 333 338 339 339 337 337 338 340 341 342 342 343 343 343
332 342 348 339 341 336 334 330 329 332 332 329 328 326 325 323 324 324 325 326 330 336 344 344 344 345 345 345 343 335 328 325 321 324 329 331 327 328 330 330 323 328 333 336 339 341 342 343 343
344 342 341 340 339 334 332 328 326 328 329 327 325 325 324 323 323 322 324 327 332 334 346 344 342 344 343 340 334 328 325 324 322 325 327 332 330 325 331 327 322 324 325 326 332 340 340 341 342
344 346 338 339 339 333 329 326 324 326 326 326 324 325 323 322 322 322 323 326 328 329 332 346 341 336 331 328 325 324 322 321 322 319 324 325 330 327 327 328 324 324 326 329 330 333 339 340 342
342 344 341 337 340 338 328 324 323 326 323 323 322 324 323 322 321 321 322 322 323 324 327 329 331 331 329 325 323 320 319 318 317 317 317 320 321 324 324 326 324 326 326 326 330 330 333 337 341
334 344 338 336 336 336 326 324 322 322 323 324 324 323 322 321 321 321 321 321 320 321 322 323 324 323 321 320 318 316 315 315 315 316 315 318 319 321 321 321 322 324 328 324 328 329 334 340 341
337 337 337 335 334 333 326 324 322 322 324 325 323 320 320 320 321 321 320 319 318 317 317 318 318 318 317 316 314 314 313 314 315 315 314 316 317 317 317 318 319 320 322 322 323 325 331 336 338
332 336 334 331 329 328 326 324 322 322 325 325 324 320 319 319 319 318 318 318 317 316 314 314 313 312 313 312 313 313 312 312 313 312 312 314 313 312 311 313 314 317 318 319 320 322 325 326 330
328 328 328 328 324 326 325 323 321 322 326 324 321 319 319 318 317 317 317 317 316 314 312 311 311 310 311 311 312 311 310 310 310 310 310 311 309 310 310 310 310 311 312 313 314 316 318 321 325
326 326 325 326 322 323 324 322 322 323 324 322 320 319 318 317 317 317 316 316 315 313 310 309 309 309 309 309 310 309 308 309 309 309 308 309 308 309 309 309 309 310 310 311 311 311 313 316 320
325 324 324 323 322 322 323 322 322 322 323 322 318 318 317 316 316 315 315 315 314 312 309 308 307 307 308 308 308 308 307 307 307 307 307 307 307 308 308 308 308 309 309 309 310 311 312 314 316
323 323 322 322 321 322 322 324 323 322 321 318 317 316 316 316 316 315 315 314 313 310 308 307 306 307 307 307 307 307 306 305 305 305 306 306 306 307 307 307 307 307 307 308 309 309 310 312 314
321 322 325 323 322 322 321 323 323 321 320 318 317 317 317 315 315 315 313 313 311 309 308 307 306 306 306 306 306 305 305 304 304 304 305 304 305 306 306 307 307 306 306 307 308 308 309 310 311
323 323 324 325 322 323 321 323 324 321 320 319 318 317 317 315 314 314 312 311 310 309 307 307 306 305 305 305 305 304 305 304 304 304 304 303 304 304 305 306 306 305 305 305 306 306 307 309 309
325 322 322 324 323 322 323 321 324 322 320 319 319 318 318 317 314 313 311 309 308 307 306 306 306 305 304 304 304 304 304 303 303 303 303 302 303 303 304 304 305 304 304 304 304 306 307 308 308
323 324 324 324 325 323 322 322 322 323 321 320 319 319 318 317 317 314 310 307 307 306 306 306 305 305 304 304 303 303 303 302 303 303 302 302 302 302 303 303 303 303 303 303 304 305 304 306 308
324 323 322 323 323 323 324 323 322 321 322 320 319 319 319 318 316 314 310 307 306 306 305 305 305 304 303 303 302 302 302 302 302 302 302 302 302 301 302 302 302 302 302 302 303 303 304 304 305
324 323 322 322 323 322 322 322 321 320 320 322 321 319 319 318 317 314 310 308 306 305 306 305 305 304 303 302 302 302 302 302 302 301 301 301 301 301 301 301 301 301 301 301 302 302 303 304 304
322 323 322 322 322 322 321 324 321 321 321 320 321 320 319 318 318 315 310 308 306 305 305 305 304 303 303 302 302 302 302 302 301 301 301 300 301 301 301 301 301 301 301 301 301 301 302 302 303
321 321 321 323 322 322 322 323 322 323 323 321 320 320 319 318 317 316 312 309 307 305 305 304 304 303 303 302 302 302 302 301 301 301 300 300 300 300 300 300 301 301 301 301 301 301 301 301 301
321 321 321 322 323 325 322 323 323 323 323 322 321 319 319 318 316 315 314 312 308 306 305 305 304 303 302 302 302 301 301 301 301 301 300 300 300 300 300 300 300 300 300 300 301 300 301 302 302
321 322 325 330 330 328 323 322 322 323 322 321 321 320 318 317 316 314 311 311 309 306 306 304 304 304 303 302 301 300 300 300 300 300 300 300 300 300 300 300 300 300 300 300 300 300 300 300 302
321 321 323 325 327 327 321 323 322 321 319 319 318 319 317 316 314 313 311 311 309 307 306 304 304 304 303 302 301 300 300 300 300 300 299 299 299 299 300 300 300 299 299 300 300 300 300 300 301
323 322 321 323 322 322 322 322 321 320 316 317 317 316 317 315 314 312 311 311 311 308 307 306 305 304 303 302 301 300 299 299 299 299 299 299 299 300 300 300 299 299 300 299 299 300 299 300 303
320 322 323 322 322 321 321 320 323 321 318 315 314 314 316 316 314 312 310 311 311 309 308 307 306 304 303 302 301 300 299 299 299 299 299 299 299 300 300 299 299 299 299 299 299 299 300 302 301
320 321 322 322 320 320 320 321 320 318 318 316 313 313 315 315 314 312 310 310 310 309 308 307 305 304 303 302 300 299 299 299 299 299 299 299 299 299 299 299 299 299 299 299 299 299 300 300 300
320 320 321 321 321 321 321 322 320 321 316 315 314 314 314 314 313 311 309 310 309 308 307 306 304 303 302 301 300 299 299 299 298 299 299 299 299 299 299 299 299 299 299 299 299 299 299 300 300

GFSSGP_925_thetae_003.txt.gz
Theta_e
330 334 336 343 348 344 350 345 345 347 344 337 339 343 344 344 350 349 336 350 349 350 345 345 344 345 346 346 347 345 344 344 345 348 350 350 350 349 346 347 348 348 347 344 343 343 342 344 347
331 333 340 340 348 348 344 339 339 341 340 334 335 335 334 335 334 333 333 346 345 341 345 345 344 344 344 344 343 342 341 340 339 341 345 345 345 344 342 340 340 341 342 343 342 342 343 343 345
331 333 335 343 343 345 342 335 333 336 335 333 328 326 327 329 327 328 329 342 339 338 344 342 344 344 343 343 343 341 335 332 331 327 329 328 335 335 336 336 338 340 341 341 341 342 343 343 343
331 337 336 339 339 335 334 330 332 335 333 328 325 326 323 324 326 327 327 338 339 337 341 344 344 343 344 343 332 327 324 326 329 331 331 327 324 330 333 322 323 331 337 340 341 342 342 343 344
332 333 339 334 334 331 327 327 328 331 330 325 324 324 322 323 324 325 326 332 341 340 342 344 346 348 345 337 329 324 321 325 327 329 331 331 333 327 328 326 323 324 325 330 337 342 342 343 342
334 333 335 334 334 330 325 325 325 325 323 322 323 322 322 323 323 325 326 331 343 342 340 341 344 344 341 331 324 321 321 320 320 323 324 332 333 327 334 331 328 327 324 328 327 334 340 342 342
339 339 334 333 330 329 326 323 322 324 322 322 320 322 319 321 321 325 327 330 330 345 341 340 336 331 325 323 321 320 318 317 316 316 320 320 324 323 327 325 328 333 332 329 328 328 331 337 341
334 335 336 333 331 330 323 322 320 322 322 320 319 320 319 320 321 323 325 325 326 328 344 341 336 324 321 321 318 318 316 315 314 314 315 318 319 320 322 322 324 325 330 327 330 330 332 335 337
331 332 331 332 332 329 321 321 320 320 321 322 321 319 319 321 321 321 321 322 322 323 324 324 323 321 320 316 315 314 314 314 314 313 313 317 318 317 318 318 319 323 324 323 323 325 333 328 327
330 326 330 330 327 324 321 320 319 321 322 322 319 318 320 320 320 320 320 319 320 318 319 321 321 320 316 314 314 313 313 313 313 312 313 313 313 312 313 314 315 317 318 317 317 319 324 323 328
327 331 331 326 327 324 322 321 319 319 322 321 319 317 317 319 319 318 318 318 317 316 314 316 316 316 313 313 312 311 310 310 310 310 310 309 307 308 308 309 310 312 313 314 314 315 316 316 316
325 327 325 325 322 323 321 319 319 319 322 320 317 316 316 314 315 316 317 316 315 314 312 311 311 310 310 311 310 309 308 308 308 307 308 307 305 308 307 308 308 309 310 310 310 310 312 313 314
323 323 324 322 320 320 321 320 318 321 320 317 317 316 315 313 315 317 317 316 315 313 310 309 309 309 309 309 308 308 306 306 306 306 306 305 304 305 306 307 307 307 306 305 306 307 309 311 313
322 322 323 321 320 320 321 320 319 320 319 317 316 315 313 313 315 316 316 315 314 311 309 308 307 307 308 308 308 307 305 305 304 304 305 304 305 304 305 307 307 307 305 305 308 308 309 310 309
321 321 321 319 319 319 319 320 321 319 319 318 315 313 313 313 315 315 315 314 312 310 308 308 307 306 307 307 307 306 305 304 303 303 303 303 305 305 305 306 307 306 305 306 307 308 305 306 306
320 319 320 319 319 319 318 317 319 318 318 316 314 311 312 312 314 315 315 314 311 309 307 306 306 306 306 305 305 305 304 303 303 302 303 302 304 304 304 305 306 305 305 305 305 304 307 306 307
318 317 318 321 319 321 317 317 319 317 319 316 312 312 312 311 312 314 314 313 310 309 307 306 306 305 305 304 304 304 304 303 303 302 302 301 302 303 303 303 304 303 304 305 304 305 305 305 306
319 318 318 319 319 320 319 318 321 317 318 317 314 313 313 313 313 313 313 312 310 308 306 306 305 305 304 304 303 303 303 302 302 302 302 301 301 302 302 302 303 303 303 303 304 303 304 303 304
319 320 320 318 321 319 320 319 318 319 318 316 314 313 314 314 313 313 311 310 308 308 306 305 305 304 304 304 303 302 302 301 301 302 302 301 301 301 301 302 302 302 302 302 302 302 303 304 303
319 319 319 318 321 319 319 320 319 317 320 318 317 315 315 314 311 310 309 308 307 307 306 305 305 304 303 303 302 302 301 301 301 301 301 301 301 301 301 301 301 301 301 301 301 301 302 302 302
319 320 320 319 321 320 320 319 318 318 317 319 318 317 315 315 313 310 306 305 306 305 305 305 304 304 303 303 302 301 301 301 301 301 301 300 301 300 300 301 301 301 301 301 301 301 301 302 302
320 320 321 320 319 317 318 320 318 317 317 316 319 316 315 315 314 311 307 304 305 305 305 304 304 303 303 302 302 301 301 301 301 301 300 300 300 300 301 300 300 301 301 301 301 301 301 302 301
318 320 320 320 319 320 319 319 317 316 317 316 315 317 316 315 314 311 308 306 305 305 305 304 304 303 303 302 301 301 301 301 301 301 300 300 300 300 300 300 300 300 300 300 300 300 301 300 301
319 319 320 320 318 320 318 319 318 316 318 317 316 315 317 315 314 312 309 307 305 306 305 304 304 303 303 302 302 302 301 301 301 301 301 300 300 300 299 299 300 300 300 300 300 299 299 300 301
319 317 319 323 324 321 317 318 318 316 316 316 317 314 315 315 313 311 308 306 304 304 304 304 304 303 302 302 302 301 301 301 301 301 300 300 300 299 299 299 299 300 300 300 299 299 300 300 300
317 316 318 321 325 321 322 321 320 317 318 316 315 315 313 314 313 312 309 307 305 304 304 304 304 303 303 302 302 301 300 300 300 300 300 299 299 299 299 299 300 300 300 299 300 300 299 299 300
318 319 317 318 317 318 318 317 316 317 317 315 315 314 314 314 312 311 309 309 306 304 304 305 304 304 303 303 302 301 300 299 299 299 299 299 299 299 299 299 300 300 299 299 299 299 299 299 299
317 317 319 318 322 320 317 317 317 316 317 314 313 314 314 313 311 310 309 308 307 306 305 305 304 304 304 303 302 301 300 299 299 299 299 299 299 299 299 299 299 299 299 299 299 299 299 299 299
318 320 319 317 316 316 317 314 313 316 315 313 314 311 313 313 311 310 308 308 308 307 306 305 305 304 304 303 303 302 300 299 299 299 299 298 298 299 299 299 299 299 299 299 299 299 299 299 299
317 318 319 321 319 317 319 319 315 312 313 312 311 311 310 313 311 309 306 306 307 307 306 305 305 305 305 304 303 301 299 299 299 299 298 298 298 299 299 298 299 299 299 299 299 299 299 299 299

GFSSGP_925_thetae_006.txt.gz
Theta_e
330 332 336 342 343 342 348 347 344 345 341 337 341 344 343 342 346 348 350 350 348 345 343 345 345 345 345 346 346 348 348 348 349 349 349 349 348 348 348 346 346 345 344 342 342 343 343 345 346
330 333 340 337 345 345 343 337 342 340 336 334 333 333 334 337 331 330 345 350 344 342 343 345 344 344 344 346 345 345 345 343 344 346 347 346 346 345 346 347 348 348 348 344 342 342 343 343 345
331 335 334 338 338 347 342 335 336 335 333 332 327 324 326 329 326 327 344 340 340 342 342 345 343 343 342 342 340 336 332 334 339 340 339 341 340 337 334 340 343 346 347 347 343 342 343 343 343
330 333 332 334 337 335 336 332 333 335 330 325 324 325 322 322 325 328 342 338 337 340 342 343 343 343 343 327 324 332 340 341 341 343 343 339 339 338 335 333 335 332 334 338 343 343 344 343 344
332 331 333 333 334 330 328 328 331 333 327 326 324 323 322 322 325 332 341 339 337 340 342 343 345 344 333 330 326 331 331 325 323 329 336 342 336 340 339 336 336 332 334 335 332 340 345 345 343
334 329 331 332 332 328 325 324 324 327 322 322 322 321 321 322 325 330 339 340 337 338 344 348 349 343 334 330 322 321 320 319 320 322 330 333 327 333 331 334 336 335 335 332 332 335 334 339 344
335 332 331 331 330 328 326 322 322 322 320 321 319 320 319 320 324 328 330 343 340 339 339 339 337 331 323 320 325 319 315 314 314 318 319 320 321 322 323 325 330 330 330 332 332 335 332 331 335
333 332 335 330 329 328 325 321 320 321 321 318 318 320 320 320 324 328 326 342 344 341 337 331 325 321 319 317 320 316 315 313 313 312 316 317 317 318 318 320 324 326 325 327 326 335 336 335 330
327 329 329 330 329 330 321 320 319 319 320 321 319 316 318 321 324 326 325 323 330 342 339 334 325 324 321 315 314 314 313 313 311 309 312 312 311 312 313 315 317 320 318 318 318 320 328 322 325
325 321 324 328 326 323 320 319 318 321 321 320 318 317 319 320 321 320 320 320 320 321 321 322 322 319 315 315 314 312 312 311 310 308 308 307 307 307 309 311 312 313 313 313 313 314 315 316 316
326 327 329 326 325 322 321 319 318 320 321 319 318 317 317 317 318 318 320 321 320 319 318 318 318 316 315 314 312 310 310 309 308 307 307 303 305 305 306 307 308 309 308 308 307 308 310 312 313
326 326 325 324 321 323 320 320 318 319 319 319 316 316 316 314 315 316 317 318 317 316 316 317 317 317 314 312 311 309 307 307 306 306 306 302 303 304 305 306 306 304 303 303 305 305 306 307 309
322 322 323 322 320 320 319 318 317 317 320 317 315 315 313 313 314 316 319 318 316 314 314 313 312 311 310 310 309 308 306 306 305 305 304 303 303 303 305 306 306 304 302 304 305 305 304 303 302
320 321 322 321 321 319 320 319 318 318 316 315 315 314 312 312 313 314 315 315 315 314 312 311 309 309 309 308 308 307 305 304 304 304 303 302 303 302 304 305 306 305 303 304 303 302 304 303 303
320 321 320 319 319 318 318 319 319 317 316 315 314 312 312 311 313 313 315 314 315 314 312 309 308 308 308 308 307 306 305 304 303 303 303 302 302 302 302 304 305 305 303 303 302 302 301 304 304
319 318 318 317 317 318 317 317 316 316 317 315 313 311 311 311 312 314 315 316 315 314 310 308 307 307 307 306 306 305 305 304 303 302 302 301 302 303 302 303 303 303 303 304 303 303 302 302 302
315 314 316 317 317 319 315 315 315 315 319 319 315 313 312 311 310 313 315 314 314 312 309 307 306 306 306 305 305 304 304 303 303 302 302 301 301 302 301 302 303 303 303 303 303 302 302 302 302
315 315 315 316 318 318 318 317 315 317 319 319 317 314 313 313 312 313 314 314 313 310 308 307 306 305 305 304 304 303 303 303 302 302 302 301 301 301 301 301 302 302 302 302 302 301 302 301 302
314 316 317 317 317 318 318 318 318 316 317 318 315 314 313 313 314 313 313 313 311 308 307 306 305 304 304 303 303 303 302 302 302 301 301 301 301 301 300 301 301 302 301 301 301 300 300 300 301
316 316 315 316 318 317 317 318 318 316 317 317 317 315 313 313 311 310 311 311 309 307 306 306 305 304 304 304 304 303 302 301 301 301 301 301 300 301 300 300 300 301 301 301 300 301 300 300 300
318 317 316 317 318 317 318 319 317 316 316 318 317 316 315 314 313 311 310 308 307 307 306 305 305 304 304 304 303 302 301 301 301 301 301 300 300 300 300 300 301 300 301 301 301 301 301 301 301
319 318 318 319 318 318 317 320 315 315 315 314 317 317 316 315 314 312 310 308 305 306 308 306 305 304 304 304 303 302 302 301 301 301 300 300 300 300 300 300 300 300 300 300 300 300 300 301 300
318 318 319 319 317 317 317 317 317 315 315 315 313 314 316 316 314 312 310 308 305 306 307 306 305 304 303 303 303 302 301 301 301 301 300 300 300 300 300 299 299 299 300 300 299 300 299 299 299
317 319 318 317 316 318 317 317 319 315 316 316 315 312 312 315 313 313 311 308 305 304 306 305 304 303 303 303 302 302 301 301 301 301 301 300 300 300 300 299 299 299 300 299 300 299 299 299 299
318 316 317 319 320 320 316 317 319 312 312 312 314 314 310 313 313 312 308 306 304 303 303 304 303 303 303 302 302 301 301 301 301 301 301 300 300 299 299 299 298 299 299 299 299 299 299 299 299
317 316 318 320 320 318 316 318 317 313 315 316 314 312 311 312 312 310 309 307 304 303 303 303 302 302 302 302 302 302 302 301 301 300 300 300 300 299 299 299 299 299 299 300 299 299 299 299 299
317 318 316 315 314 315 316 316 314 314 313 312 311 311 312 312 312 311 309 307 305 304 303 303 302 302 303 302 302 302 301 301 300 300 299 300 299 299 299 299 298 299 299 299 299 299 298 298 299
316 315 318 315 320 319 316 314 316 314 316 314 312 312 312 312 311 310 308 307 305 304 304 303 303 302 303 302 302 302 302 301 300 299 299 299 299 299 299 298 299 299 299 298 298 298 299 298 298
317 318 317 315 316 319 319 318 312 315 314 312 311 312 313 312 311 310 309 308 305 304 303 303 303 302 303 303 302 303 301 301 300 299 299 299 298 298 298 298 299 298 298 298 298 298 298 298 298
316 318 318 320 320 314 318 319 314 311 311 311 313 310 310 311 310 309 307 306 305 303 303 302 302 302 303 303 303 303 302 301 299 299 299 298 298 298 298 298 298 298 298 298 298 298 298 298 299

GFSSGP_925_thetae_009.txt.gz
Theta_e
329 332 336 341 343 341 347 347 343 344 341 337 340 344 344 339 345 344 349 347 344 343 344 346 350 350 351 350 350 349 347 348 348 349 348 348 348 349 348 347 347 347 348 346 343 343 343 345 344
330 333 340 335 341 343 343 338 343 340 338 334 329 332 336 339 331 333 350 348 346 343 341 344 346 347 350 349 348 347 347 347 346 346 343 343 338 340 344 346 348 347 346 345 345 343 343 343 344
330 335 333 335 338 343 342 336 337 336 335 330 326 324 327 329 326 327 348 347 343 340 341 345 344 344 344 348 346 345 344 344 342 340 340 339 335 334 335 337 337 342 345 345 345 343 343 343 343
330 331 327 334 338 335 338 333 334 335 328 325 324 325 322 322 324 338 344 339 340 340 342 343 343 344 343 344 345 345 341 337 338 342 340 338 339 337 335 334 334 336 337 337 344 345 344 343 343
332 328 331 334 333 330 328 330 331 332 326 326 324 324 324 322 327 342 339 339 337 341 341 343 345 344 337 341 338 336 329 330 333 341 339 334 338 336 335 336 335 335 335 334 337 339 343 344 343
332 326 331 333 331 328 325 326 329 329 323 322 322 321 321 322 338 341 339 338 339 340 343 346 347 342 338 333 331 328 325 324 324 331 331 329 328 330 330 332 332 332 332 333 335 336 335 339 342
333 327 330 329 330 328 326 321 320 322 322 322 319 322 319 319 333 341 340 339 340 341 346 348 343 332 326 331 324 322 317 316 317 319 319 319 320 321 323 328 329 328 330 328 333 336 334 329 340
331 329 333 328 329 328 325 321 319 321 320 317 317 320 321 319 328 340 341 342 341 341 343 342 334 323 321 326 319 316 314 312 311 312 314 315 315 315 317 319 324 324 324 323 323 330 330 322 328
324 329 328 328 327 328 322 319 318 318 318 320 319 316 318 321 325 333 342 344 342 337 332 327 322 321 318 317 316 314 312 311 309 309 309 309 309 309 311 314 317 318 315 316 315 316 318 317 321
321 322 325 326 326 327 322 318 318 321 320 320 318 316 317 319 323 321 326 333 341 337 331 325 322 322 316 314 313 312 311 310 308 306 305 304 305 306 308 309 310 310 308 308 308 310 312 314 315
325 322 320 327 324 322 321 319 318 319 321 318 318 317 315 317 320 319 320 328 341 340 337 331 325 320 316 315 313 311 310 309 307 306 305 302 303 304 305 306 305 303 302 303 304 305 306 307 309
325 324 326 325 322 321 319 318 317 318 319 318 316 315 316 314 317 318 318 320 324 328 326 320 318 317 314 314 312 310 309 307 306 305 304 302 302 303 304 304 303 301 302 302 302 301 301 301 301
322 321 323 322 321 320 319 319 317 316 316 317 315 315 316 315 316 317 319 320 319 318 319 318 317 315 314 313 311 309 307 306 305 305 304 302 301 302 303 304 304 302 302 302 300 301 300 301 302
320 320 321 320 320 319 319 318 317 316 315 317 315 314 315 314 314 315 316 317 317 317 317 316 315 314 313 311 309 307 306 305 305 304 303 302 302 301 303 304 304 302 302 302 301 300 300 300 300
319 321 319 319 319 319 316 318 317 316 316 316 314 314 314 313 314 314 316 316 317 317 316 314 313 312 310 309 308 307 305 304 304 303 303 302 302 301 302 303 302 302 302 302 302 300 300 300 300
319 317 318 316 317 317 316 316 315 314 315 315 313 311 312 312 312 314 315 316 316 316 314 312 311 309 309 308 307 306 305 304 303 303 302 301 301 301 301 302 302 303 302 302 302 301 301 300 300
313 314 315 315 315 317 316 315 313 312 316 316 314 313 312 312 310 312 314 315 317 316 313 310 309 308 308 307 306 305 304 303 303 302 302 301 301 301 300 302 302 302 302 301 302 300 301 300 300
314 314 313 313 315 317 316 315 314 315 317 317 316 314 313 313 313 312 314 314 315 315 313 310 308 307 306 306 305 304 304 303 303 302 302 301 300 301 300 301 301 302 302 301 301 300 300 300 299
312 313 313 313 314 317 317 317 317 315 316 317 316 315 314 313 314 314 312 313 313 313 311 308 307 306 306 305 304 303 303 303 302 302 301 301 300 300 300 300 300 301 301 301 301 300 300 300 300
316 315 314 313 314 316 316 317 317 316 314 316 316 316 315 315 314 311 312 311 311 312 310 307 307 306 305 305 304 303 303 302 302 301 301 301 300 300 300 300 300 301 300 301 300 300 300 300 300
316 316 314 314 315 315 317 318 316 315 315 315 315 316 316 315 314 312 310 309 309 308 308 307 306 306 305 305 304 303 302 301 301 301 301 301 300 300 300 300 300 300 300 300 300 300 300 300 300
316 316 317 317 317 319 316 319 315 315 315 314 315 315 315 314 314 313 311 310 308 307 307 306 306 305 305 304 303 303 303 301 301 301 301 301 300 300 300 300 300 299 299 300 300 299 300 298 298
318 317 317 318 317 316 316 316 317 313 313 313 312 312 314 314 314 313 312 311 309 307 305 306 306 305 305 304 303 303 303 303 302 301 300 300 300 300 300 300 299 299 299 299 299 299 299 298 298
316 317 317 316 314 318 317 316 318 316 315 314 313 312 310 311 312 313 313 311 310 306 304 304 304 304 304 304 303 303 303 302 301 300 300 300 300 300 300 299 299 298 298 299 299 299 299 299 299
316 315 318 318 319 321 314 316 318 313 313 311 313 313 311 307 309 312 311 309 308 305 303 302 303 302 303 303 303 303 303 302 302 301 300 300 300 300 300 299 299 298 298 299 299 299 299 298 298
316 316 319 320 318 318 314 317 317 313 313 313 311 311 311 310 310 310 310 309 306 304 303 303 302 302 302 303 303 303 302 302 302 301 300 300 300 300 299 299 298 298 298 299 299 299 299 298 298
315 316 316 316 317 314 316 314 313 312 312 312 311 310 311 312 309 310 308 308 306 303 303 303 303 302 302 302 302 302 302 302 301 301 300 300 300 300 299 299 299 298 298 299 298 298 298 298 298
315 314 317 313 319 321 318 313 315 313 313 312 311 311 310 310 309 308 308 307 305 303 303 303 303 302 303 302 302 302 302 302 301 301 300 299 299 299 299 298 298 298 298 298 298 298 298 298 297
318 316 315 315 316 320 320 319 314 314 315 314 311 308 309 309 309 308 307 307 305 304 303 302 302 302 301 301 301 301 302 301 301 300 299 299 299 298 298 298 298 298 298 297 298 298 298 298 298
318 316 316 320 322 317 318 320 315 312 310 310 309 309 309 307 309 308 306 304 304 303 303 302 302 301 301 301 301 301 302 301 301 300 299 299 298 298 298 298 298 298 297 297 298 298 297 298 298

GFSSGP_925_thetae_012.txt.gz
Theta_e
330 333 337 338 343 340 347 349 342 341 340 337 340 341 341 338 345 342 347 346 345 343 344 346 348 348 350 350 348 346 345 345 347 346 347 346 346 346 346 346 347 347 346 346 346 345 344 345 341
329 333 337 333 341 343 342 338 343 340 338 332 330 333 339 339 332 342 347 347 344 342 342 345 348 349 349 349 348 347 347 345 344 342 340 336 338 340 342 342 344 345 346 345 345 343 344 344 344
331 333 333 333 338 343 341 336 338 338 335 328 327 323 330 331 327 345 347 347 346 342 342 343 346 348 348 348 346 344 343 342 340 340 338 336 335 335 335 336 338 340 340 345 344 344 343 343 343
330 330 325 335 338 335 337 334 335 337 333 326 324 327 321 322 325 337 349 347 341 340 340 342 346 346 347 346 345 342 338 340 342 341 337 339 338 335 336 335 335 335 335 339 342 344 345 343 342
331 326 331 334 333 330 328 330 334 335 328 325 324 325 324 321 324 345 345 339 336 338 341 344 348 347 344 343 338 334 332 338 341 338 335 335 335 333 333 333 334 334 335 336 338 337 340 344 343
329 325 332 335 332 328 324 327 331 330 323 322 323 322 322 321 338 344 338 336 335 337 342 346 347 341 339 337 334 331 331 327 331 331 328 327 330 331 331 331 330 332 331 336 337 333 330 340 342
329 327 332 330 329 328 327 322 325 325 321 322 319 323 320 319 342 340 338 338 340 341 344 347 345 337 332 330 330 324 320 318 319 319 318 319 319 323 325 328 328 327 327 328 330 330 322 334 337
328 326 329 327 329 329 325 321 320 321 321 317 318 322 321 318 340 341 341 341 344 345 346 346 339 333 328 325 321 316 313 312 311 312 313 313 314 315 318 321 324 323 322 323 323 325 320 322 328
322 327 329 328 326 327 322 321 318 317 317 318 317 316 318 321 337 341 343 346 348 349 346 345 335 324 322 321 319 314 312 311 309 308 308 308 307 309 312 316 318 316 317 316 315 315 316 316 319
321 322 324 323 324 325 323 319 317 319 320 320 318 316 316 322 329 335 338 339 344 344 342 339 328 322 319 318 315 312 311 310 308 306 305 304 304 306 307 308 307 306 305 305 306 308 310 311 312
321 320 318 324 324 323 322 318 317 318 320 318 319 316 314 319 321 333 335 339 341 337 332 328 322 320 317 314 313 312 310 309 307 306 304 303 303 304 305 304 302 302 303 302 301 302 302 303 304
323 323 325 325 322 320 320 318 317 317 319 318 316 315 314 316 319 325 331 336 339 336 332 326 322 320 317 315 314 312 310 308 307 306 304 302 302 303 303 302 301 301 301 300 300 300 301 301 300
322 321 322 322 321 319 318 318 317 315 315 316 315 314 314 316 320 321 326 331 337 336 334 330 325 321 317 315 314 311 309 308 306 305 304 302 301 302 303 303 302 301 301 300 300 300 299 299 299
318 319 319 320 320 318 318 318 317 317 314 315 315 314 313 315 318 318 318 320 328 337 336 332 325 321 317 315 313 311 309 307 306 305 303 302 301 301 302 303 302 301 302 301 300 300 299 299 299
317 319 316 317 319 319 316 317 317 316 315 314 314 312 312 314 315 317 318 319 322 329 334 324 318 315 315 314 313 310 308 307 305 304 303 302 301 301 301 302 302 302 302 301 301 300 300 298 298
316 316 318 315 317 318 316 318 314 313 314 314 312 311 311 312 313 315 317 318 317 318 321 319 316 315 314 313 311 308 307 306 305 304 303 302 301 301 301 301 302 302 301 301 300 299 299 298 298
311 314 314 314 314 317 315 316 313 312 312 313 312 312 312 313 312 313 314 316 317 318 317 316 314 313 312 310 308 307 306 305 304 303 302 301 301 301 300 301 302 301 301 300 300 300 299 299 299
314 314 312 312 313 316 315 314 314 311 314 313 313 312 311 311 312 313 314 314 316 317 316 315 312 311 310 308 307 306 305 304 303 303 302 301 301 300 300 301 301 301 301 300 300 300 300 300 300
312 312 312 310 312 316 315 315 315 315 314 314 313 313 312 312 313 314 313 313 313 314 314 314 311 309 308 306 306 304 304 303 303 302 302 301 300 300 300 300 300 301 301 300 300 300 300 300 299
315 315 314 312 312 314 313 314 314 314 313 314 314 314 314 314 313 310 312 311 311 312 312 311 311 309 307 307 306 305 304 303 304 302 302 301 300 300 300 300 300 300 300 300 300 300 300 299 299
314 314 314 314 312 312 314 316 314 313 314 312 313 314 314 314 314 313 310 310 310 309 310 310 311 309 307 306 305 304 303 303 302 301 301 301 301 300 300 300 300 300 300 300 299 299 299 299 298
314 312 314 315 315 317 315 318 315 313 313 312 312 313 313 313 313 313 312 310 309 310 308 310 309 307 306 306 305 304 304 302 302 302 301 301 301 300 300 300 300 300 299 299 299 299 299 298 298
315 315 316 316 316 315 315 316 317 313 314 312 311 310 312 312 312 312 312 312 311 310 307 308 307 306 306 305 305 304 304 304 304 302 301 301 300 300 300 299 300 299 298 299 299 298 299 298 298
315 316 316 314 313 318 316 316 317 314 312 313 312 310 310 309 309 310 312 312 311 310 307 305 304 304 304 304 304 304 304 303 302 301 301 301 300 300 299 299 299 299 298 298 299 299 299 299 298
315 314 317 317 318 320 314 315 317 312 312 312 311 311 311 308 306 306 309 310 310 308 306 304 303 302 302 304 304 303 304 304 303 302 301 300 299 299 299 299 299 298 298 298 298 299 299 299 299
314 313 315 320 317 315 313 316 316 312 310 310 309 309 308 308 308 305 307 308 309 307 304 304 302 302 301 303 303 303 304 303 303 303 301 300 300 300 299 299 299 298 298 298 298 298 298 298 298
314 315 314 315 315 317 316 314 314 313 311 310 310 309 309 310 309 307 307 307 308 306 304 303 302 302 301 302 302 302 303 303 303 302 301 301 300 300 299 299 299 298 298 298 298 298 298 297 297
314 313 316 314 319 321 318 315 317 314 314 312 311 311 311 310 310 308 306 306 307 305 304 303 302 302 301 301 302 302 303 303 302 302 301 300 300 299 299 299 299 298 298 298 298 297 297 297 297
319 319 315 314 318 324 326 322 313 309 310 310 310 310 313 312 311 307 307 306 307 305 303 302 302 302 301 301 301 301 301 302 302 302 301 300 299 299 299 299 298 298 298 298 297 297 297 297 297
316 318 319 320 321 315 316 317 311 309 308 307 307 310 312 312 312 309 306 304 304 302 302 302 302 301 301 301 301 301 302 302 302 301 301 300 299 299 299 298 298 298 298 297 297 297 297 297 297

GFSSGP_925_thetae_015.txt.gz
Theta_e
329 335 337 337 352 349 354 351 343 344 344 339 344 345 343 342 346 345 345 344 344 340 345 351 346 349 347 349 349 348 345 344 345 344 343 344 344 344 344 345 346 348 346 346 347 345 346 347 344
330 335 336 340 350 351 348 342 348 343 340 339 338 340 344 343 336 348 347 346 344 343 344 348 346 348 348 348 348 347 345 344 342 339 337 337 338 338 340 342 342 343 346 346 345 344 344 344 343
332 332 342 344 344 349 346 340 344 340 338 332 333 327 336 338 330 347 346 348 347 346 342 345 346 348 347 346 345 344 343 341 340 339 338 337 336 336 336 337 338 338 342 343 344 345 343 343 343
330 334 331 343 343 340 341 338 339 341 335 330 328 334 324 326 332 344 348 349 347 341 341 347 346 348 346 346 345 342 342 341 340 337 341 338 336 337 336 337 337 337 338 340 341 343 345 344 343
329 332 339 340 338 334 333 333 339 341 335 328 327 331 329 322 324 341 348 347 343 340 342 348 347 348 347 344 339 336 341 342 338 334 335 335 334 334 333 333 334 334 338 339 335 337 342 344 344
338 332 340 341 337 331 327 331 338 337 327 325 326 327 328 320 329 345 348 343 338 337 342 348 348 346 344 338 335 332 334 331 330 328 330 331 332 332 332 332 331 331 332 333 330 326 334 338 340
334 337 340 337 335 332 331 329 337 337 327 327 324 330 325 321 336 347 345 339 335 339 345 348 345 342 338 335 332 326 324 321 321 320 319 320 322 327 329 329 328 327 328 328 327 324 322 333 336
332 333 332 332 335 335 327 328 325 331 332 320 323 329 328 322 339 344 342 339 340 344 346 346 341 337 333 331 325 319 315 313 312 312 313 313 314 319 321 323 324 324 324 323 322 322 319 322 329
324 334 332 333 331 333 324 326 319 319 322 320 322 321 319 320 340 342 342 344 343 345 345 345 341 333 329 326 325 316 313 312 309 309 309 308 308 310 316 319 319 319 318 317 314 315 316 317 321
328 330 329 327 327 329 326 323 322 321 321 322 321 318 316 322 337 341 341 341 341 341 342 344 340 333 327 321 317 314 312 310 308 306 305 304 305 306 308 311 308 307 305 306 307 308 310 312 313
321 326 321 322 326 325 325 321 320 322 323 323 324 323 318 322 335 339 339 339 339 340 340 344 339 329 323 319 316 313 311 309 307 306 304 303 304 305 304 303 302 302 301 301 301 301 301 303 305
323 322 324 326 323 322 323 320 320 321 327 321 321 319 317 322 329 337 338 338 338 340 341 343 336 325 321 318 314 312 311 309 307 306 304 303 303 303 303 302 301 301 300 300 300 300 300 300 301
323 322 322 323 323 321 319 321 321 319 319 317 317 317 318 321 325 332 336 337 338 337 337 338 333 325 319 315 314 312 311 309 307 306 305 303 302 303 303 302 301 301 300 300 300 299 299 299 299
317 319 319 320 321 320 320 321 319 319 317 316 317 319 318 319 322 324 330 334 335 335 333 332 326 322 318 316 315 313 311 308 307 306 305 303 302 302 303 302 301 301 301 300 300 299 299 299 300
316 319 318 318 319 321 319 322 320 320 317 318 317 318 318 318 318 322 322 328 330 333 332 331 327 323 320 318 315 313 311 308 307 306 305 304 302 302 302 302 301 301 301 301 300 300 299 299 300
316 316 321 317 318 319 320 322 320 316 317 319 318 317 317 317 316 318 320 321 323 328 330 333 329 326 322 318 315 313 311 309 307 306 305 304 302 301 301 301 301 301 301 301 300 299 300 301 301
316 318 316 316 315 318 318 322 319 313 313 316 316 315 315 316 315 316 316 318 319 320 328 330 331 328 323 317 314 312 311 308 306 305 305 304 302 301 300 301 301 301 301 300 300 299 300 301 301
314 316 314 315 314 316 318 318 318 317 315 317 316 316 315 315 316 316 315 316 317 317 318 324 328 324 317 314 311 309 308 306 305 305 304 303 302 301 300 301 301 301 301 300 300 300 300 300 300
312 313 314 315 313 314 316 316 316 316 315 316 317 316 316 316 317 315 315 314 314 315 314 314 318 318 313 310 307 305 305 305 304 304 303 303 302 301 300 300 301 301 301 300 300 300 300 301 300
315 316 316 316 315 314 315 316 315 315 315 316 316 317 317 317 316 315 314 313 312 313 313 312 312 313 313 311 308 306 304 304 304 304 303 302 301 301 300 300 300 300 301 300 300 300 300 300 299
314 314 314 314 314 314 314 317 317 315 315 315 315 316 316 317 316 316 315 313 312 312 311 311 311 312 312 309 306 305 303 303 302 302 302 302 301 301 300 300 300 300 300 300 300 299 299 300 299
315 314 314 314 315 317 316 318 317 316 317 315 315 316 316 317 316 315 316 313 312 311 311 310 310 309 309 308 306 305 305 304 303 303 302 302 301 301 300 300 300 300 300 299 299 299 299 299 299
318 314 315 316 316 317 318 319 319 317 317 317 317 316 314 315 315 315 315 314 313 312 311 310 308 307 307 306 306 305 305 305 303 303 303 302 301 301 300 300 300 300 299 299 299 299 298 299 299
314 316 315 315 317 321 319 318 319 318 316 315 315 315 314 313 312 311 311 312 313 312 311 309 307 307 306 305 305 305 304 304 303 302 302 301 301 301 300 300 299 300 299 298 298 298 298 299 298
314 315 318 318 321 321 316 318 318 316 316 315 314 313 311 313 313 312 310 311 311 312 311 309 307 306 305 304 304 304 304 304 304 304 302 301 300 300 300 299 299 299 299 298 298 298 298 299 299
315 316 318 319 319 319 315 319 318 314 312 311 312 311 312 313 313 313 312 312 310 310 311 309 306 306 304 303 303 303 303 303 303 304 303 302 301 301 300 299 299 299 298 298 298 298 298 298 298
315 317 314 317 320 320 319 318 317 317 313 310 309 308 309 310 312 312 313 312 311 309 309 308 306 305 304 302 303 303 303 303 303 304 304 303 302 300 299 299 299 299 298 298 298 298 298 298 298
317 314 317 318 321 321 320 320 320 319 312 311 309 308 307 309 312 312 312 312 311 308 307 306 305 304 303 302 303 302 302 302 303 304 303 302 301 300 299 299 299 299 298 298 298 298 298 297 297
311 310 309 314 316 321 321 321 312 312 311 307 305 307 307 310 311 311 311 311 310 307 305 304 304 303 303 302 302 302 301 301 302 303 303 302 301 300 300 299 299 298 298 298 298 298 297 297 297
308 312 307 308 308 309 308 307 307 310 305 304 307 307 307 308 310 311 311 309 310 310 305 303 303 303 303 302 302 302 301 301 301 301 302 302 301 300 299 299 299 298 298 298 297 297 297 297 297

GFSSGP_925_thetae_018.txt.gz
Theta_e
337 338 343 346 356 352 353 353 348 349 348 344 346 348 346 345 346 349 347 348 345 343 345 350 348 348 349 348 349 349 344 344 343 342 343 343 343 343 343 345 346 349 348 347 348 348 348 347 347
334 337 342 348 353 353 350 349 349 347 344 343 346 345 345 343 343 349 348 348 346 346 346 346 347 348 349 349 348 347 344 343 339 338 339 339 339 340 341 341 341 344 346 346 346 344 344 346 345
337 335 346 346 348 351 349 346 348 344 342 343 345 340 342 339 337 345 348 349 347 347 345 347 347 348 348 347 346 345 343 341 339 339 337 337 337 338 338 339 339 341 344 344 345 346 345 345 344
334 338 338 347 350 346 345 344 346 345 341 338 339 339 335 336 338 345 348 349 349 346 345 348 348 347 346 346 345 343 341 341 337 342 339 336 338 337 337 338 338 340 341 339 342 345 345 345 345
336 339 346 348 348 343 341 340 345 347 341 339 335 337 337 331 333 345 349 350 349 343 343 345 349 348 348 345 341 341 343 341 336 335 331 335 335 335 334 335 334 337 337 334 335 340 342 343 344
335 339 345 345 344 342 337 338 343 345 340 335 334 335 336 330 331 346 349 349 343 341 341 342 348 349 347 341 339 342 341 336 331 328 329 333 333 334 333 331 331 332 333 331 330 334 336 339 342
330 334 337 341 343 344 339 335 342 343 341 337 333 336 334 329 333 345 348 345 341 339 339 340 346 347 343 338 337 331 326 327 327 323 326 324 331 331 330 329 328 328 328 328 325 321 325 333 337
336 332 332 334 336 339 337 336 337 341 340 329 331 335 332 330 334 344 347 343 341 340 339 338 341 345 340 335 336 327 320 318 318 316 315 317 323 326 323 325 325 325 325 322 320 320 319 322 331
333 330 332 332 333 332 333 335 329 331 337 330 330 331 327 327 339 345 345 342 340 340 339 338 338 340 337 333 332 327 316 313 311 312 310 312 319 321 321 320 322 321 320 316 314 316 316 317 322
329 328 326 329 330 331 331 331 331 328 332 331 330 328 323 329 339 343 343 341 340 340 339 339 337 336 334 330 328 324 324 321 317 315 312 313 315 316 317 315 311 311 307 306 307 309 311 313 314
326 322 324 323 326 329 330 329 328 329 331 331 331 331 326 328 337 339 339 338 338 338 340 339 336 334 333 328 326 321 316 313 311 310 311 312 312 310 310 311 309 308 305 307 306 307 308 309 310
324 323 324 324 325 327 326 326 327 328 330 328 327 328 327 327 334 336 336 336 336 337 338 339 336 333 331 328 322 316 313 312 311 310 310 310 310 309 309 308 308 307 307 306 306 306 306 306 306
324 322 323 323 324 325 325 325 325 325 325 326 325 323 325 326 328 333 334 334 335 336 338 339 337 331 329 326 319 315 313 312 311 310 309 310 310 309 308 308 307 307 306 306 306 305 305 305 304
322 321 321 321 322 323 324 323 323 322 324 324 325 325 325 325 326 327 331 333 334 335 337 338 336 330 327 324 319 315 313 312 311 310 309 309 310 309 309 308 307 307 306 306 305 305 305 304 304
321 320 320 321 321 322 323 323 323 323 322 322 321 322 323 325 324 325 326 330 332 334 335 336 335 330 325 321 318 316 314 312 311 311 309 309 309 309 309 308 307 307 306 305 305 304 304 304 304
320 319 320 321 322 322 322 320 321 321 321 321 321 321 322 322 323 323 323 325 329 331 333 334 333 328 323 320 318 316 314 312 311 310 309 309 309 309 308 307 307 307 306 306 305 305 305 304 304
321 316 318 318 318 320 322 320 319 319 319 319 318 318 319 320 320 321 321 322 324 327 330 333 332 326 323 320 318 316 314 312 311 310 309 308 308 308 308 307 307 306 306 306 305 305 305 305 305
315 315 315 317 317 317 317 318 318 318 318 319 319 319 319 319 319 319 320 321 321 323 326 329 332 327 324 321 318 316 313 312 312 310 310 308 308 307 307 307 307 306 306 306 305 305 304 304 304
315 315 316 317 317 317 318 318 318 318 318 319 319 319 319 318 319 318 320 320 320 321 323 324 329 328 325 321 318 316 314 312 311 309 309 308 308 307 306 306 306 306 305 305 305 305 305 305 303
317 317 317 316 316 317 318 319 319 319 320 319 319 319 319 320 320 320 319 319 319 320 321 321 323 327 325 321 318 317 315 313 311 309 308 308 308 306 306 306 306 306 305 305 304 304 304 304 303
317 318 318 318 318 318 320 322 322 321 319 319 319 320 320 320 321 321 321 320 319 319 319 320 321 322 324 320 318 316 314 312 309 308 307 307 307 306 305 305 305 305 305 305 305 304 304 304 303
319 318 317 319 320 322 320 323 322 321 320 319 320 320 320 319 317 317 317 316 317 318 318 318 319 319 320 319 317 315 313 310 310 309 308 307 306 306 305 304 304 304 304 304 304 303 303 303 303
318 318 318 319 320 321 322 323 320 321 321 319 320 318 318 318 317 316 316 316 316 315 316 317 317 317 317 317 316 314 314 313 312 310 308 307 305 305 305 304 304 303 304 303 303 302 302 302 302
316 318 320 320 320 322 320 322 321 320 319 319 318 316 314 313 314 313 313 313 314 315 316 315 316 316 316 315 314 314 314 315 313 310 308 307 306 305 304 304 303 303 303 303 303 302 302 302 302
320 321 320 321 324 322 320 320 320 319 318 316 315 313 311 310 310 311 312 312 313 314 315 314 314 315 315 314 313 313 314 314 313 310 308 307 306 305 304 304 303 303 303 303 302 302 302 302 302
320 319 320 319 317 318 317 319 319 318 318 316 315 313 309 308 309 310 311 311 312 313 314 313 313 315 314 313 312 311 312 313 313 310 309 308 307 306 305 304 303 303 303 302 302 302 302 302 302
318 319 318 322 319 319 318 318 317 317 317 311 311 310 307 308 309 309 309 310 312 312 313 313 311 313 313 312 311 310 311 312 311 310 309 308 307 306 305 304 303 302 302 302 301 301 302 301 301
310 310 309 310 308 311 312 312 313 313 308 307 306 306 307 308 309 309 311 310 310 311 313 314 311 310 311 310 310 309 310 310 310 310 309 308 307 306 305 304 303 302 302 301 301 301 301 301 301
305 307 309 311 311 311 313 312 310 305 303 303 305 307 308 309 310 311 310 310 310 311 312 314 313 309 309 309 309 308 309 309 309 309 308 307 306 305 304 303 303 302 301 301 301 301 301 301 300
306 310 305 307 307 306 307 307 303 303 303 305 306 308 308 308 309 309 309 309 309 310 311 313 313 311 308 308 308 307 308 308 308 308 308 307 306 305 304 303 302 302 301 301 301 300 300 300 300

GFSSGP_925_thetae_021.txt.gz
Theta_e
343 340 345 350 361 357 360 353 347 349 347 344 344 344 343 341 343 357 347 347 338 343 347 348 351 345 352 350 351 348 345 344 343 343 344 343 343 343 343 344 347 348 349 348 348 348 348 348 347
339 341 345 353 355 360 357 347 348 346 344 343 344 344 343 340 340 350 348 347 340 344 347 349 347 345 349 350 349 348 344 342 340 340 340 340 340 341 341 341 343 344 346 348 347 346 347 347 344
340 340 349 352 350 350 354 346 345 344 343 343 343 342 340 338 337 344 346 347 345 344 346 350 347 347 350 348 347 345 343 340 340 338 339 339 339 340 341 341 342 344 342 343 346 348 345 345 343
337 341 342 348 350 349 346 345 344 345 344 341 340 339 338 338 337 341 346 347 347 347 346 348 348 348 348 346 344 343 343 341 342 340 338 338 337 337 337 337 341 340 337 340 344 344 345 345 345
337 343 349 348 346 344 343 342 344 345 344 342 340 339 338 336 340 344 345 346 348 347 346 347 348 348 347 345 344 342 343 340 337 336 336 336 336 335 335 334 335 336 334 334 338 341 342 343 345
337 338 343 343 340 340 342 340 342 344 343 341 339 338 337 336 336 344 345 345 347 345 344 346 349 350 348 344 342 344 342 337 331 328 331 333 335 334 332 331 331 332 332 330 329 332 334 339 345
335 336 337 335 335 336 337 339 339 341 342 342 337 338 336 334 336 344 344 344 343 340 339 339 345 349 347 343 343 344 340 331 326 324 323 331 333 332 331 329 330 329 328 322 322 322 321 332 338
336 333 333 333 333 333 332 337 338 337 338 336 336 336 334 333 335 342 343 342 339 337 337 336 344 346 345 341 341 340 336 326 321 318 317 321 328 324 322 326 326 326 321 316 318 319 319 321 331
333 329 328 329 330 331 330 332 331 333 335 335 336 335 332 331 335 341 342 342 339 337 337 335 339 344 342 340 338 337 334 323 314 314 312 318 325 325 324 321 322 322 313 312 314 316 316 317 319
327 326 324 326 329 329 328 329 329 329 330 328 332 332 330 330 336 340 342 341 339 338 337 336 336 339 341 338 336 331 328 325 322 320 313 318 319 320 321 317 309 307 305 305 307 310 312 315 317
324 324 322 325 323 325 325 325 325 327 329 326 326 328 331 330 336 339 339 338 337 337 337 336 336 335 337 336 334 329 326 323 319 317 315 316 318 315 318 314 313 311 309 310 309 310 310 311 313
324 322 323 323 323 324 324 323 324 325 326 325 326 329 329 331 332 337 338 337 336 336 337 337 336 335 334 334 332 328 325 317 315 314 314 315 314 313 313 312 311 311 310 309 309 309 308 308 308
323 323 323 323 323 324 323 324 324 324 323 323 325 325 327 328 330 331 335 335 335 335 335 337 337 335 333 332 331 328 321 315 315 314 313 314 314 313 313 312 311 310 309 309 309 308 308 307 307
323 323 322 322 322 322 322 323 324 323 323 323 323 324 324 326 327 328 329 333 333 334 334 336 338 335 333 331 329 326 320 316 315 314 313 314 314 314 313 312 311 310 309 309 308 308 308 307 307
322 322 321 322 321 322 323 323 323 324 324 323 323 322 323 323 323 325 326 328 331 332 333 334 337 337 333 330 328 325 320 317 315 314 314 313 314 313 313 312 311 311 309 308 307 307 307 307 306
321 321 321 323 323 322 322 321 321 322 322 321 321 321 321 321 322 322 324 325 326 329 331 332 335 337 335 329 327 324 320 317 315 314 314 313 313 313 312 312 311 311 309 308 308 308 307 307 307
321 322 321 320 321 320 321 322 321 321 320 320 320 320 320 320 320 320 321 322 323 324 327 329 333 336 335 331 326 323 320 318 316 315 314 312 312 312 312 312 311 310 309 309 308 308 308 308 308
319 318 317 318 318 320 319 319 320 320 320 320 320 320 321 321 321 320 320 320 321 322 324 326 330 334 334 331 326 322 320 318 317 315 314 313 312 312 312 311 311 310 309 309 308 308 307 307 307
317 317 317 318 319 319 319 320 321 322 322 322 322 322 321 321 321 321 320 320 320 321 322 324 327 331 334 330 326 323 320 319 317 316 314 314 312 311 311 311 311 309 309 309 308 307 308 307 306
318 320 321 322 321 321 322 322 323 323 324 323 322 321 321 322 322 320 319 319 320 321 321 322 323 326 331 331 327 324 321 319 317 316 315 314 312 311 311 311 310 309 309 308 308 307 307 307 306
321 321 322 321 320 321 323 323 323 323 324 322 322 321 321 320 320 319 319 318 318 319 319 320 321 323 325 331 328 325 322 320 318 316 315 313 312 311 310 310 310 309 309 308 308 307 307 307 306
322 320 321 320 322 322 321 323 322 322 322 321 321 319 316 315 315 315 315 315 315 316 317 319 318 320 321 325 329 327 324 322 319 317 314 312 312 311 309 309 309 309 308 308 308 307 307 306 307
319 319 319 321 322 323 323 323 323 322 322 321 318 315 313 311 311 312 312 313 313 313 314 316 317 317 319 320 325 327 324 322 319 317 314 313 311 311 309 308 308 308 308 308 307 306 306 306 305
318 321 322 322 324 325 323 323 322 322 321 319 317 316 315 311 310 311 310 310 311 312 313 315 315 316 316 318 320 325 324 322 320 316 315 313 311 310 309 308 307 307 307 307 306 306 305 305 305
321 319 319 321 328 328 321 320 321 321 319 316 313 312 310 309 309 310 310 311 310 312 312 313 314 316 315 316 318 320 323 322 321 318 315 313 311 309 309 308 307 307 306 306 306 305 305 304 304
320 318 319 319 319 319 319 319 318 320 317 313 310 308 307 308 309 310 310 311 310 311 311 312 313 315 315 314 316 317 320 320 319 319 317 314 312 310 309 308 307 307 306 306 305 305 305 304 304
317 316 316 320 318 318 317 316 317 316 312 308 306 306 306 307 308 309 309 309 310 310 310 312 313 315 315 313 313 315 316 318 318 318 319 314 312 311 309 308 307 306 306 306 305 305 304 303 304
314 309 309 312 311 311 311 311 312 311 307 306 305 305 306 308 308 309 309 308 309 310 310 310 312 314 315 314 312 312 314 315 315 316 317 314 313 311 309 308 307 306 306 305 304 304 304 304 303
308 307 309 310 312 312 312 311 310 307 305 305 305 305 305 308 308 308 308 307 308 309 309 309 309 312 314 314 312 311 312 313 313 314 315 315 313 311 309 308 307 306 305 305 304 303 303 303 303
305 307 309 309 309 309 310 310 306 306 305 305 304 305 307 307 307 307 307 307 307 309 308 306 306 309 312 313 313 310 310 311 311 312 313 314 313 311 309 308 307 306 305 304 303 303 303 303 303

GFSSGP_925_thetae_024.txt.gz
Theta_e
341 341 344 351 366 364 358 357 347 350 347 342 342 341 340 340 342 363 347 343 341 345 347 345 347 345 351 349 349 346 344 343 343 344 343 343 343 342 342 344 347 348 349 348 346 348 345 345 347
339 341 346 359 364 361 357 348 350 347 343 341 341 340 340 339 344 350 348 342 341 346 346 351 346 348 351 351 349 346 343 341 339 340 339 339 341 341 341 344 345 345 348 351 347 345 344 341 344
340 341 353 359 358 356 357 347 348 345 342 342 341 339 338 340 337 348 348 343 342 345 349 350 346 345 348 349 347 345 341 338 338 339 339 338 340 340 340 341 342 340 346 346 347 347 346 344 342
337 343 344 352 353 350 349 344 345 345 344 342 340 339 337 337 337 343 347 345 342 345 349 348 346 348 349 348 346 344 340 341 340 338 338 337 336 336 335 338 337 337 338 343 345 345 346 345 344
336 347 354 353 351 345 342 342 341 344 344 343 340 340 339 336 342 346 345 345 346 347 349 345 346 349 347 346 344 343 337 342 340 334 336 336 335 334 333 333 335 333 333 337 339 342 345 344 345
343 341 345 343 339 335 335 339 339 341 341 342 339 339 338 336 341 344 344 345 345 346 349 347 346 348 347 346 344 344 341 334 335 330 331 335 334 333 331 331 332 331 330 329 332 331 331 345 347
342 343 342 339 337 335 333 335 338 337 337 338 339 339 336 335 339 344 344 344 345 345 345 347 346 349 347 345 344 344 342 334 329 326 324 332 331 331 327 329 329 327 322 319 322 320 320 333 341
340 342 337 336 336 336 333 331 334 333 333 332 337 339 333 334 338 343 342 342 343 341 340 344 347 346 346 344 342 344 341 334 328 321 317 324 319 319 325 325 323 318 314 314 317 318 318 321 331
332 335 332 330 331 334 330 328 328 330 332 331 329 334 332 334 336 341 342 341 340 337 337 335 345 346 345 343 342 343 340 336 327 319 313 321 324 325 325 324 313 309 308 310 312 314 315 318 318
331 335 330 328 327 328 327 326 327 325 327 326 325 328 331 334 335 339 341 341 339 337 337 336 342 345 344 342 340 337 335 331 319 315 311 322 323 323 322 309 307 305 305 305 306 310 313 315 317
327 330 328 325 326 324 326 324 324 323 325 327 326 323 328 331 334 337 339 340 339 337 337 336 335 343 342 341 338 335 332 326 321 320 314 319 319 320 317 310 311 309 310 310 309 310 310 311 311
326 325 324 325 325 325 325 324 323 322 323 324 322 323 325 328 329 335 338 338 338 337 337 336 335 336 339 340 337 334 329 325 323 320 316 316 317 314 317 313 312 310 310 309 309 309 308 307 308
323 324 324 325 324 324 324 324 324 323 323 322 322 322 323 325 325 330 335 337 337 336 336 337 336 336 335 338 335 333 329 325 320 316 315 316 315 314 313 312 311 310 309 309 309 308 308 307 307
323 323 323 321 321 322 322 323 323 322 322 322 322 322 321 321 324 325 328 330 334 335 335 336 337 336 335 334 335 332 330 324 316 315 314 314 314 314 313 312 311 310 309 309 309 308 308 307 307
324 322 321 322 321 323 322 322 322 321 322 322 322 319 320 320 323 324 325 326 328 332 333 335 336 337 336 334 333 332 330 323 316 315 314 314 315 314 313 312 311 311 310 309 308 307 307 307 307
320 321 323 324 323 324 322 323 323 321 320 320 319 317 317 317 318 321 322 324 325 326 329 332 335 337 337 335 332 331 328 323 317 315 314 313 314 314 313 312 312 311 310 308 308 307 307 307 307
323 321 323 322 321 321 322 321 321 320 319 318 317 317 317 317 318 320 320 320 322 324 324 327 331 336 338 337 334 330 327 323 318 316 314 314 313 313 313 312 312 311 310 308 308 308 308 308 308
320 318 318 318 318 319 320 320 320 319 320 320 319 318 318 318 318 319 318 318 320 320 322 323 325 334 337 337 336 330 326 323 320 317 315 314 313 313 313 312 311 311 310 309 308 308 307 307 308
316 316 317 319 321 322 323 322 321 321 321 322 322 320 318 318 317 316 316 315 317 317 318 319 319 324 332 336 336 332 325 322 320 318 316 314 313 312 312 312 311 311 309 309 308 307 308 307 306
320 321 321 322 323 320 320 320 320 322 322 320 319 316 315 314 313 313 314 314 314 314 315 316 318 318 318 330 335 332 327 323 320 319 317 315 313 312 312 312 311 311 309 309 309 307 307 307 307
321 321 322 322 321 320 321 322 323 321 320 317 314 312 310 309 310 310 311 311 312 313 313 314 315 316 317 317 329 331 327 324 321 319 317 316 314 313 312 312 311 311 309 309 309 308 307 307 306
320 321 320 321 321 322 320 322 321 321 319 315 312 311 310 308 308 309 310 310 310 311 312 313 313 314 316 315 316 326 328 324 322 320 318 317 315 313 312 311 311 310 309 309 308 308 307 308 307
319 320 320 321 322 321 323 324 322 321 320 317 315 312 307 307 308 308 309 309 310 310 312 311 311 314 315 316 315 316 321 327 324 321 319 317 315 314 312 311 311 310 309 309 309 308 307 307 307
319 321 319 318 319 325 323 324 323 322 318 312 308 307 305 306 307 308 309 309 309 310 311 311 311 312 313 315 315 314 316 321 325 323 320 317 315 313 312 311 310 310 309 309 308 308 307 307 305
320 319 320 323 328 329 320 319 321 316 310 306 305 305 304 304 306 306 306 308 309 309 310 311 311 312 313 314 316 315 313 316 324 324 321 317 314 313 312 311 310 309 309 308 308 307 306 306 305
315 317 320 321 320 322 318 319 320 311 306 305 305 305 304 304 306 306 307 307 308 308 308 310 310 311 310 312 315 314 313 313 317 324 323 317 315 313 312 311 309 309 308 308 307 307 306 305 305
316 316 311 316 317 317 317 317 315 308 306 305 305 305 304 304 306 306 306 307 307 307 308 308 310 308 308 309 313 314 313 312 313 317 322 321 316 314 311 310 309 308 308 307 307 306 305 305 304
313 311 310 310 311 312 311 310 310 306 305 305 304 304 303 304 305 305 305 306 306 306 307 309 308 307 306 307 311 312 313 312 311 312 319 320 319 315 311 310 309 308 307 307 306 306 305 305 304
308 308 308 308 308 309 312 311 308 305 305 305 304 303 303 304 305 305 305 305 305 305 307 306 305 306 306 307 310 311 310 312 310 311 313 318 318 316 312 310 309 308 307 307 306 305 305 304 304
306 305 306 312 311 309 308 308 306 305 305 305 304 303 303 305 305 305 305 305 305 306 304 304 305 305 306 307 308 308 310 311 311 309 310 312 315 315 313 310 309 308 307 306 306 305 304 304 304

GFSSGP_925_thetae_027.txt.gz
Theta_e
336 340 342 348 354 354 355 355 349 343 342 338 338 339 337 338 348 355 345 344 344 347 339 345 346 349 347 350 350 345 342 342 342 343 343 343 342 340 341 346 347 348 348 348 348 344 344 344 345
339 341 345 347 354 356 352 349 348 341 340 339 339 336 335 344 350 347 345 342 343 345 337 340 344 350 349 350 349 344 342 340 341 339 339 340 342 341 344 345 342 349 348 349 346 344 340 344 344
335 341 343 348 352 355 350 347 344 340 339 340 339 337 335 337 347 345 346 340 342 345 345 341 344 348 347 349 347 343 339 333 339 338 338 339 339 339 341 340 340 344 346 346 345 346 344 341 342
334 340 337 344 348 346 346 343 341 342 341 338 338 337 335 336 347 345 345 339 344 346 347 343 343 344 346 348 347 343 337 334 339 339 338 337 337 337 338 337 335 338 342 343 345 345 345 343 343
333 338 346 348 347 341 343 341 338 341 340 341 337 338 336 340 341 346 345 340 344 348 349 346 343 348 348 347 345 343 342 341 337 336 336 336 335 334 334 334 333 333 336 337 340 343 347 344 344
333 333 337 337 334 331 328 333 335 333 333 337 337 337 335 342 346 346 345 343 344 347 348 346 342 348 348 347 345 344 341 341 336 336 336 335 334 332 331 331 331 330 329 332 332 334 344 345 344
335 334 335 334 332 329 330 328 332 331 331 333 335 336 334 337 344 344 344 345 346 347 348 346 341 344 346 346 344 344 342 339 336 335 335 332 330 327 325 325 327 325 316 318 317 317 331 340 339
330 333 333 329 330 329 327 325 329 327 330 328 331 335 334 332 343 344 343 344 345 347 347 346 342 341 343 345 344 344 342 339 336 332 334 328 318 316 321 313 312 312 312 314 315 316 318 329 336
328 323 325 325 325 326 323 322 322 321 326 327 327 333 330 335 342 343 343 342 344 345 345 345 344 342 340 343 343 343 342 339 336 329 326 319 318 320 324 312 307 308 309 311 313 314 317 317 324
325 325 324 323 322 322 322 322 321 320 318 321 322 322 331 335 339 340 340 339 342 340 341 340 345 343 342 340 341 342 341 337 332 324 319 322 323 321 319 311 306 304 305 306 310 312 314 316 317
323 321 323 323 321 323 322 321 322 319 319 318 321 322 326 331 333 337 338 340 339 338 336 336 340 344 343 343 341 340 337 333 327 318 314 324 325 323 321 307 306 306 309 308 309 310 311 314 314
323 323 322 322 323 322 322 322 321 320 319 318 318 317 323 326 328 331 336 338 339 338 337 336 336 342 344 342 341 339 336 328 323 316 315 322 322 321 320 312 311 309 309 308 309 307 306 309 308
320 319 322 321 320 319 320 320 320 320 318 317 317 318 317 318 324 330 334 337 338 337 337 336 336 337 343 342 340 339 336 333 327 320 319 317 319 318 315 313 311 310 309 309 308 308 307 307 307
320 320 320 319 319 318 319 319 320 319 318 318 318 317 316 316 318 323 324 332 336 336 335 336 336 335 338 341 340 338 335 332 327 322 320 316 317 316 313 313 312 310 309 309 308 308 308 307 306
319 320 318 318 318 319 319 319 319 316 316 317 316 314 314 315 315 315 316 318 326 331 334 335 336 336 334 337 339 337 333 330 326 321 317 315 316 315 313 312 312 311 309 309 308 308 308 307 306
317 318 317 317 320 321 318 317 319 317 316 315 314 312 313 312 314 314 315 315 315 320 319 327 336 336 335 335 334 335 333 330 325 320 316 314 314 314 313 312 312 311 310 309 308 307 307 307 307
317 316 316 314 315 321 319 316 316 316 316 314 313 312 315 313 313 313 313 313 312 313 314 316 323 331 336 335 334 333 333 332 329 321 316 314 314 314 314 313 312 311 310 309 308 307 307 307 307
314 313 313 313 314 316 318 317 316 316 317 314 314 313 311 311 310 311 310 310 311 311 312 312 314 316 325 334 333 332 332 331 330 323 317 315 314 313 314 313 312 311 310 309 308 308 307 307 307
316 315 315 316 317 317 317 317 317 317 314 310 308 307 307 308 308 309 309 309 309 311 311 311 312 313 314 315 319 326 327 329 327 323 320 317 315 314 313 313 312 311 311 310 309 308 308 307 307
317 317 316 317 319 318 316 317 316 312 310 309 307 306 306 307 307 307 308 308 308 309 311 310 310 311 313 314 314 315 321 323 325 324 320 317 316 315 313 313 312 311 311 310 309 308 307 307 306
318 319 318 318 318 317 317 316 318 312 310 310 307 306 306 306 306 306 307 307 308 308 310 310 310 311 312 313 313 314 314 316 321 320 320 318 316 315 314 313 312 312 311 310 309 308 307 307 307
317 318 318 319 318 317 316 319 317 313 311 310 305 303 304 305 305 306 307 307 308 308 308 309 310 311 311 311 312 314 315 314 315 321 319 319 317 316 314 313 312 312 311 310 309 309 308 307 307
317 318 318 318 318 319 319 319 317 314 308 304 302 302 301 304 304 304 305 307 307 308 307 307 310 310 310 310 310 311 314 314 313 313 320 319 318 316 315 313 312 312 311 311 310 309 308 307 306
317 318 313 313 315 318 317 320 318 312 305 303 302 301 301 301 303 304 306 306 306 307 306 307 307 308 310 309 309 309 311 313 312 312 314 320 318 317 315 314 312 312 311 311 310 309 308 307 307
312 311 314 315 320 321 316 315 311 304 303 303 302 301 301 301 303 303 304 305 306 306 305 305 306 307 307 306 306 306 310 313 312 311 311 317 318 316 315 314 313 312 312 311 310 309 308 308 306
312 313 315 319 318 319 314 313 310 303 303 303 303 302 301 301 303 304 305 305 305 305 304 305 306 307 305 306 306 305 309 311 311 311 310 310 316 317 316 315 313 312 311 311 310 309 309 308 307
312 310 308 310 312 313 314 310 306 303 303 302 302 302 300 300 303 303 303 304 304 304 303 304 304 304 304 305 305 306 309 310 309 310 311 310 310 316 316 315 313 311 311 310 309 309 308 308 307
310 309 309 305 307 307 306 308 310 303 303 303 303 302 300 302 303 302 302 303 304 304 304 304 304 304 304 304 305 306 308 307 307 310 311 310 309 312 315 313 312 311 310 310 309 308 308 307 306
304 304 305 304 304 305 306 307 302 303 303 303 303 303 302 301 302 301 303 304 304 304 303 303 303 303 304 304 306 306 307 307 308 310 310 309 308 308 314 313 311 309 309 309 308 308 307 306 305
305 304 303 302 306 305 301 306 302 303 303 303 303 302 301 303 302 301 302 303 303 303 303 303 304 304 304 305 305 305 305 305 308 309 309 308 309 307 309 312 310 309 308 308 307 307 306 306 305

GFSSGP_925_thetae_030.txt.gz
Theta_e
337 340 342 347 350 352 353 352 348 343 341 338 337 336 338 338 342 337 346 346 346 343 343 348 347 348 349 350 350 345 341 343 344 344 344 343 340 342 350 347 348 347 347 347 345 345 345 344 340
337 341 345 344 349 354 348 347 346 341 339 336 337 332 336 341 348 346 344 346 343 342 342 346 350 347 349 349 347 344 341 341 341 341 340 341 337 344 346 343 347 347 346 346 345 341 343 343 341
334 339 340 346 350 351 349 344 343 340 337 338 338 335 332 337 346 344 343 344 343 343 337 342 347 348 347 350 346 342 339 341 339 339 339 339 340 342 341 341 345 345 345 344 346 344 340 342 342
332 338 336 342 347 344 344 340 341 341 340 338 335 337 334 338 344 343 344 342 343 344 340 338 346 349 349 349 346 343 336 339 339 338 338 337 339 338 337 338 342 340 342 343 344 345 341 342 342
334 335 342 343 340 337 334 338 338 336 336 339 336 337 335 340 342 344 342 341 344 345 345 340 341 345 348 349 347 344 338 339 339 338 337 336 335 336 336 334 336 338 339 340 340 343 343 344 341
330 329 335 335 333 330 325 324 332 331 330 336 337 335 334 340 343 345 340 341 343 345 347 344 344 342 346 348 347 345 343 339 337 337 336 336 334 334 334 333 332 333 335 336 337 342 345 344 340
332 331 332 333 331 327 328 321 328 326 325 329 334 335 333 339 345 345 340 341 344 346 348 346 344 343 343 346 347 345 343 341 337 336 336 336 333 333 332 332 331 330 331 327 329 336 342 342 342
330 329 332 327 326 323 325 321 323 321 324 324 329 333 335 334 345 345 342 340 345 348 347 346 345 343 341 343 344 344 343 341 337 336 336 334 332 330 331 331 329 326 321 318 317 322 333 336 339
323 318 323 323 322 322 321 320 320 319 319 318 324 326 327 332 343 344 344 342 348 348 347 346 345 342 341 341 343 343 342 340 338 336 335 333 326 327 328 319 324 322 313 314 315 317 321 330 338
323 320 317 319 321 320 320 321 320 319 316 317 317 318 330 332 340 341 340 339 346 348 348 346 344 341 341 341 343 344 343 339 336 332 330 326 320 321 322 315 317 313 310 312 313 315 317 318 333
322 319 319 322 321 322 320 319 321 320 318 316 318 319 317 331 335 338 339 340 340 346 347 346 344 341 341 341 341 342 342 339 333 328 324 322 322 322 321 313 309 307 307 308 311 312 314 315 319
321 321 321 321 321 321 320 320 319 319 317 316 316 315 318 326 328 334 337 339 339 339 343 344 343 342 342 341 340 339 341 340 333 324 321 319 324 323 321 313 307 307 309 308 308 308 309 312 312
319 318 320 320 319 318 318 317 318 318 316 315 315 315 313 312 316 317 318 324 332 337 337 338 340 341 342 342 342 340 339 338 334 326 319 315 321 323 322 318 311 309 309 308 309 307 307 308 307
318 319 318 318 317 317 318 317 318 317 316 314 316 311 311 311 313 312 313 312 315 321 328 329 335 337 341 342 343 341 340 338 335 331 323 316 316 319 319 318 313 311 309 309 308 307 307 306 306
318 317 315 316 318 319 317 318 319 317 315 314 309 310 311 310 311 311 311 311 311 313 317 321 329 338 341 341 342 342 340 339 336 333 326 321 318 316 317 316 313 312 310 309 309 308 307 307 306
316 315 316 316 314 320 317 317 316 314 313 311 311 309 310 308 308 308 309 310 310 310 311 313 318 326 332 337 337 336 335 338 336 332 327 323 321 317 316 315 313 312 311 309 309 308 307 307 306
312 315 315 312 312 316 319 316 315 313 313 311 308 307 308 307 307 307 308 310 310 310 309 310 312 313 316 324 330 334 332 332 333 331 327 324 320 316 315 314 313 312 311 310 309 308 307 307 306
315 312 312 312 313 316 316 315 310 311 310 308 305 304 306 306 305 307 307 308 309 310 310 310 312 312 312 312 315 317 326 329 327 325 326 322 317 315 314 314 313 313 312 310 309 308 306 306 306
314 314 315 314 316 316 316 313 309 307 306 305 303 303 304 304 305 307 307 308 307 308 309 310 310 310 310 311 312 314 314 317 324 322 317 315 316 315 314 314 314 313 312 311 310 308 307 307 307
317 317 315 316 317 317 315 312 309 307 307 305 304 304 304 304 303 305 306 307 307 307 307 309 309 310 310 310 311 312 314 314 314 315 320 316 314 314 314 313 313 313 312 311 310 309 307 307 307
316 317 317 317 316 315 315 314 311 309 305 304 303 304 304 304 304 303 305 306 306 306 306 306 307 308 310 309 309 310 312 313 313 313 313 314 318 313 314 314 313 313 313 312 311 309 308 307 306
316 317 317 318 317 316 315 315 314 309 303 301 299 300 303 303 303 303 304 305 306 305 304 306 306 306 309 307 307 307 307 311 312 312 312 313 312 317 313 313 314 313 313 312 311 310 309 308 306
316 316 317 317 317 318 317 317 315 306 303 302 301 300 300 303 303 303 304 305 306 304 304 304 305 306 307 306 306 306 305 307 311 311 311 312 312 311 315 315 313 313 313 313 312 310 310 308 307
314 313 310 313 314 316 314 318 315 305 303 302 301 300 300 300 303 303 304 304 305 304 304 304 304 304 304 304 305 305 305 305 310 310 310 310 310 311 311 314 313 313 313 312 312 311 310 309 308
310 310 311 313 316 315 314 312 309 302 302 303 302 300 299 299 302 302 302 303 304 304 304 304 305 304 304 304 304 304 304 305 309 308 307 308 308 309 310 311 313 311 311 312 312 311 310 310 309
311 311 311 310 313 315 312 310 304 302 302 302 302 301 299 298 300 301 302 303 304 304 303 304 303 302 303 303 303 304 305 306 309 307 307 308 309 310 309 308 312 312 311 311 312 311 310 309 309
309 309 309 309 309 310 310 304 302 302 302 302 301 300 300 299 301 301 302 303 303 303 303 303 303 303 303 302 304 304 305 306 306 306 307 307 309 310 308 308 308 312 311 310 311 310 310 309 309
308 308 310 305 306 307 305 306 306 302 302 301 301 300 300 299 301 300 301 302 301 302 302 303 303 303 303 303 304 304 305 304 304 304 304 308 308 308 308 307 308 311 311 310 310 309 309 308 308
304 303 303 303 302 304 304 304 301 301 302 301 301 301 301 299 299 299 300 303 303 303 303 303 303 303 303 303 303 303 302 302 304 303 303 308 308 307 307 307 307 309 311 310 308 309 309 308 307
303 303 301 301 302 303 300 303 302 301 302 302 301 300 298 300 300 299 301 301 302 303 303 303 302 302 303 303 302 301 301 302 303 303 303 306 308 308 307 306 307 308 310 309 308 308 308 308 306

GFSSGP_925_thetae_033.txt.gz
Theta_e
336 341 343 347 346 346 350 349 346 344 340 337 335 336 338 336 336 333 344 343 344 346 343 350 349 348 350 350 349 349 347 345 346 347 347 344 345 346 347 347 347 349 348 344 347 347 348 347 347
333 339 343 341 348 349 344 345 346 341 338 334 333 334 336 337 347 344 345 345 343 345 342 347 351 349 350 349 349 346 343 343 344 345 344 340 341 345 347 346 347 346 345 346 341 345 346 346 347
334 339 340 344 347 347 346 341 341 339 336 337 338 332 333 336 345 343 341 344 344 342 339 344 352 349 349 349 348 346 344 342 340 340 340 339 343 344 342 344 344 344 345 345 342 342 345 344 346
332 337 334 341 344 341 344 339 339 340 339 337 334 336 332 335 343 341 342 344 343 340 338 341 350 347 348 347 348 346 345 343 339 338 338 338 340 340 340 343 344 342 341 343 345 341 344 343 345
334 331 336 335 335 333 327 328 334 335 334 334 335 335 335 336 342 341 342 343 342 341 337 337 343 349 349 350 348 345 343 341 339 339 337 337 338 338 336 338 340 340 340 340 341 343 343 343 344
329 326 330 330 331 329 325 320 328 325 328 332 336 334 334 333 340 342 342 342 342 342 341 335 340 342 345 349 348 345 342 340 340 339 337 336 336 337 335 334 336 337 338 338 339 340 343 341 343
331 328 330 332 329 323 326 319 323 320 320 327 329 334 331 336 342 343 342 341 342 343 344 342 343 343 343 346 348 345 343 340 339 338 337 336 335 334 334 333 332 333 334 335 336 340 342 342 340
329 326 331 327 324 320 323 319 321 319 318 317 323 328 332 334 343 340 341 342 343 345 346 345 345 345 345 345 345 345 343 342 338 337 337 336 334 333 333 332 331 330 331 331 333 338 340 340 341
319 317 320 322 321 320 319 319 318 318 317 315 317 321 323 329 342 339 339 345 346 346 347 346 346 346 344 343 342 342 341 342 338 337 336 335 331 328 330 328 328 328 328 328 327 328 333 337 338
320 313 314 317 319 319 319 319 319 318 315 316 315 314 318 332 341 342 339 343 347 348 348 347 346 346 344 343 341 339 341 341 337 333 332 332 327 321 324 322 325 326 325 323 319 318 321 329 336
321 318 318 320 320 320 320 318 319 318 316 315 315 314 313 326 333 335 334 334 339 345 348 347 347 346 344 342 341 339 341 340 337 330 326 325 323 319 322 321 317 318 320 316 317 315 315 317 328
321 320 320 320 320 319 319 318 318 318 316 313 312 310 311 310 311 311 311 313 317 329 342 346 349 347 344 343 341 339 341 340 339 332 324 319 316 317 320 319 311 309 309 309 311 310 312 313 315
318 318 318 318 318 318 317 317 317 316 311 310 310 310 309 309 309 309 310 311 313 316 320 330 344 347 346 344 342 340 340 340 339 336 329 321 314 314 318 319 315 309 308 309 308 308 307 310 309
317 317 316 315 315 316 317 317 317 314 309 310 309 308 307 307 308 309 309 308 309 311 313 319 326 336 345 345 343 342 341 341 341 339 333 324 318 314 317 319 318 313 310 309 308 308 306 307 306
317 315 313 316 314 318 316 316 317 311 310 309 307 306 306 306 306 307 309 309 308 309 311 312 317 331 344 344 343 341 340 340 340 339 336 329 321 315 315 317 317 316 312 310 309 308 307 306 306
315 313 314 315 313 315 316 316 311 309 309 307 306 304 305 305 305 306 308 309 309 310 310 310 310 313 318 330 337 339 340 339 338 338 336 331 324 318 317 317 316 315 313 311 310 308 308 307 306
310 314 313 312 313 316 316 314 308 308 307 306 303 303 305 304 305 306 306 307 309 309 309 310 310 310 311 314 314 323 329 331 334 336 336 333 328 320 318 318 317 315 313 312 310 309 308 307 307
314 312 312 312 313 315 311 309 306 305 304 303 302 302 303 303 303 306 306 306 306 307 308 309 309 309 309 310 312 313 314 315 320 324 329 330 328 323 320 317 317 315 313 312 310 309 308 308 307
313 313 314 313 314 314 309 308 307 305 304 303 302 302 303 303 304 305 306 305 305 306 306 306 307 309 309 309 309 311 313 314 313 313 316 317 318 320 319 318 315 315 313 312 311 310 308 307 306
316 316 314 314 316 315 309 308 307 306 305 304 303 303 303 303 302 303 305 305 304 304 306 306 306 308 307 307 307 307 308 310 311 312 313 313 313 315 313 314 314 314 313 312 311 310 309 307 306
315 315 315 315 315 312 309 311 307 304 302 302 302 303 304 304 303 302 303 305 304 303 304 304 305 308 306 306 305 305 305 306 307 308 308 310 311 312 313 313 311 312 312 313 312 311 310 308 306
315 315 316 316 316 315 314 315 308 304 302 301 299 298 303 303 303 303 303 304 304 304 303 303 305 307 305 304 304 305 305 305 305 307 308 306 306 306 306 311 312 312 311 310 312 312 311 308 307
316 315 316 316 316 316 315 316 312 301 303 302 300 299 299 300 302 302 303 304 304 304 303 304 304 305 305 304 303 303 303 304 304 306 306 306 306 306 305 307 310 311 312 311 311 310 310 310 307
311 311 310 311 312 314 311 316 311 306 302 302 301 300 299 298 299 302 303 303 304 304 303 303 304 304 303 303 303 303 303 304 304 305 308 306 306 306 307 309 309 308 310 311 310 310 310 310 308
309 306 306 309 314 313 312 312 308 301 300 301 302 300 298 298 296 300 301 302 303 303 303 303 303 303 302 302 302 303 303 304 305 307 306 305 306 307 307 308 306 307 308 310 311 309 309 308 308
310 309 307 308 308 310 310 310 305 301 300 301 301 299 298 298 297 299 301 302 302 302 302 302 302 303 303 303 303 303 303 303 304 304 304 304 304 305 308 308 306 307 307 308 310 310 309 308 308
308 307 308 308 306 306 308 306 301 300 301 301 299 299 298 298 297 299 301 301 302 302 302 302 302 302 303 302 302 303 303 303 302 301 301 303 302 303 308 308 306 307 306 307 309 309 309 308 307
307 306 309 303 306 305 303 303 306 300 300 300 299 298 298 298 297 298 300 301 302 302 302 302 302 301 302 302 302 302 302 301 301 301 301 302 302 303 308 308 307 307 306 307 309 310 309 308 307
302 303 303 303 302 304 303 303 301 300 301 301 299 298 298 297 298 298 299 301 302 302 302 303 302 302 302 301 302 301 301 300 301 301 300 301 301 302 303 306 307 306 305 306 307 310 309 309 307
302 302 300 302 302 301 299 303 301 299 299 300 299 298 298 299 299 299 300 301 301 301 301 302 302 302 301 301 301 299 300 300 301 301 300 300 301 302 303 303 305 306 305 305 305 308 309 308 307

GFSSGP_925_thetae_036.txt.gz
Theta_e
333 338 343 345 344 341 346 347 345 343 340 336 333 334 336 334 333 330 341 343 341 344 341 351 350 350 351 351 351 350 350 350 348 348 348 345 345 346 345 345 347 348 346 346 346 347 348 348 348
333 338 341 338 344 345 344 341 345 341 337 332 334 334 335 335 344 343 344 343 342 343 342 347 351 349 350 350 349 349 348 346 346 348 347 342 344 346 346 345 344 345 345 345 345 345 346 347 347
333 337 337 340 343 341 342 340 340 338 335 336 336 331 332 334 344 340 341 342 344 344 342 343 350 351 348 348 347 347 345 345 345 345 343 340 343 344 344 344 343 342 344 343 342 345 344 346 345
333 334 331 337 339 338 341 331 336 338 337 335 333 335 331 332 341 341 340 342 342 344 342 343 351 349 347 347 346 346 345 344 344 340 339 339 341 341 340 343 341 342 342 343 343 342 343 344 344
331 327 327 330 331 330 327 325 324 329 329 331 334 334 334 335 340 341 342 341 340 340 338 341 348 346 346 345 347 346 343 341 339 339 337 337 338 338 336 339 340 340 340 340 341 342 344 343 345
328 323 323 325 328 326 323 319 325 320 321 323 329 333 333 332 340 342 342 341 340 338 337 338 341 344 348 348 348 346 339 336 338 339 337 336 337 337 335 334 336 337 338 339 338 341 342 342 343
329 324 326 329 327 322 324 317 321 318 315 325 320 330 328 333 340 342 343 342 341 340 340 337 343 350 349 348 346 346 340 336 340 339 337 336 335 335 334 333 332 333 334 335 334 337 339 343 340
326 323 329 327 323 319 320 317 320 318 317 313 319 325 323 322 332 342 344 344 343 342 342 339 343 349 348 347 346 346 343 339 340 338 337 336 334 333 333 332 331 330 331 331 332 336 339 339 338
316 315 318 321 321 318 317 318 317 317 316 314 315 314 313 331 337 339 343 344 344 345 345 343 345 346 345 345 345 346 343 340 333 331 335 335 330 326 326 326 325 329 328 329 329 330 335 336 338
316 311 313 315 317 319 318 318 317 318 314 313 312 311 313 322 333 331 330 336 345 346 347 348 348 348 348 346 344 343 341 342 339 332 327 324 321 319 317 320 318 325 326 325 325 323 324 331 333
319 316 317 319 319 319 318 317 317 316 314 310 310 309 308 309 310 311 311 312 315 328 343 347 349 351 349 348 346 345 343 341 341 336 329 323 320 317 314 316 314 311 313 314 315 316 316 317 326
321 319 319 320 319 317 318 316 311 310 310 309 308 308 308 307 307 308 307 309 311 314 317 330 346 348 348 348 347 345 344 343 342 339 336 331 327 321 316 317 316 310 309 309 310 312 312 313 315
317 316 317 316 315 315 316 314 310 309 309 306 307 306 306 306 307 307 307 309 309 311 314 317 323 342 346 348 347 345 343 342 342 341 338 333 328 324 319 318 318 311 308 308 308 308 308 308 311
316 316 314 313 314 315 317 314 312 309 307 305 305 304 304 304 305 307 307 307 308 309 310 313 323 329 342 346 347 345 344 342 342 341 340 337 332 326 320 318 319 317 310 308 309 308 308 306 307
316 314 313 312 311 316 314 312 309 308 306 304 302 302 303 304 304 304 307 307 308 309 309 310 312 317 329 337 341 343 343 342 341 340 340 339 337 331 324 318 319 319 315 310 309 309 308 307 306
313 311 313 313 314 314 314 313 307 306 305 303 302 301 302 303 304 305 306 307 308 308 309 309 309 310 313 316 324 334 337 339 339 339 339 339 338 336 329 321 317 319 318 313 310 309 308 308 307
309 313 312 311 313 315 313 311 305 304 304 303 301 301 303 302 304 305 305 305 305 306 307 308 308 308 309 311 313 314 315 321 327 330 331 332 333 334 331 326 319 318 319 315 312 310 308 308 307
313 313 312 311 312 309 307 306 305 304 303 302 301 301 302 302 302 304 303 303 305 305 305 307 307 307 307 307 307 309 311 312 313 314 316 317 318 321 327 327 322 318 318 316 313 311 309 308 308
313 313 313 312 313 308 307 306 305 304 303 302 302 302 302 302 302 304 304 303 303 304 303 305 307 306 306 306 305 305 305 305 306 308 310 312 312 313 313 314 318 319 317 316 314 311 309 309 307
315 315 313 313 314 308 307 306 306 305 304 304 303 303 303 303 301 302 304 303 303 303 303 303 307 306 305 305 305 305 305 305 305 305 305 306 306 308 310 313 313 311 314 314 313 311 309 308 307
314 314 314 315 314 307 306 308 305 303 302 302 302 302 303 302 302 301 303 304 303 303 303 303 305 305 305 305 305 304 303 303 303 304 305 306 305 305 305 306 310 312 312 310 312 311 309 307 307
315 313 315 316 315 312 310 312 306 302 301 301 300 297 298 300 300 301 302 303 304 303 303 303 303 304 304 304 303 302 302 302 303 304 304 307 306 306 305 306 307 309 310 310 311 310 310 307 306
315 311 313 315 314 313 313 316 311 300 301 301 301 299 298 297 297 300 302 303 303 304 303 303 303 303 303 303 303 302 302 302 303 305 306 307 305 305 306 306 307 307 308 308 310 310 309 308 307
310 310 308 310 310 312 310 313 310 301 300 301 301 300 298 297 296 297 302 303 303 303 302 302 302 303 303 302 303 302 302 302 303 304 304 304 304 303 304 306 307 306 305 307 308 308 309 308 308
308 303 305 306 311 312 311 312 309 302 299 300 301 300 298 297 296 295 298 301 302 302 302 302 302 302 302 302 303 303 302 302 302 302 302 301 301 303 303 303 307 306 305 306 306 307 308 309 307
310 307 306 306 305 306 308 310 307 300 299 299 300 299 297 297 296 295 298 300 301 302 302 302 303 302 302 302 302 302 301 302 302 302 301 300 300 302 302 302 305 307 306 305 306 306 307 308 308
307 306 306 306 305 304 304 305 302 300 299 300 300 298 297 297 296 296 299 300 301 302 302 302 301 301 302 302 302 301 301 302 302 301 300 300 300 301 301 301 306 308 307 306 305 306 307 308 308
306 304 306 302 305 305 302 301 304 300 299 299 299 297 297 297 297 296 299 301 302 302 302 301 301 301 301 301 302 301 301 301 301 300 299 300 300 300 300 301 303 304 307 306 305 305 305 307 308
301 303 302 302 301 304 303 302 299 301 299 299 298 297 297 297 297 297 299 301 301 301 301 301 301 301 301 302 301 301 301 301 300 299 299 300 300 300 300 300 302 303 303 304 306 305 305 305 307
302 302 300 303 302 299 298 302 300 298 298 298 298 298 297 297 298 298 299 300 300 299 299 299 299 300 300 299 300 299 298 299 299 299 299 299 299 300 300 300 300 301 302 304 306 305 305 304 305

GFSSGP_925_thetae_039.txt.gz
Theta_e
330 335 341 343 351 349 350 351 347 347 342 337 335 336 337 335 332 334 340 342 340 343 342 350 349 350 348 349 350 349 348 348 346 346 345 343 343 346 344 345 346 346 344 345 345 346 347 347 348
331 338 339 343 347 354 349 342 346 343 338 334 335 336 336 337 343 343 344 341 340 344 348 349 349 348 349 348 348 347 347 346 345 345 344 341 340 343 343 345 343 344 343 344 345 343 345 345 345
332 336 344 345 343 339 340 336 336 340 337 337 338 333 334 336 344 340 340 340 341 346 347 349 348 348 348 348 347 347 346 344 344 345 343 337 342 341 342 342 342 342 344 341 344 344 344 344 345
334 336 332 340 338 339 339 334 328 335 335 333 334 337 333 334 341 340 341 341 343 345 346 346 348 349 346 345 345 345 345 343 343 341 340 340 341 341 340 342 341 341 341 342 342 344 342 344 343
329 330 332 334 331 332 329 324 324 327 326 328 334 337 335 335 340 340 342 341 340 344 341 347 348 350 347 346 346 346 344 343 339 335 336 338 338 338 335 337 338 339 338 339 340 342 344 343 343
337 327 330 329 328 328 325 321 324 320 318 324 324 333 335 333 335 343 344 341 339 337 337 343 347 348 346 345 345 347 345 339 335 337 334 334 337 337 334 331 336 336 335 337 338 341 343 341 342
335 331 330 330 329 323 324 319 321 319 318 320 318 329 327 321 324 343 346 344 343 341 341 346 349 349 346 346 346 347 344 339 330 329 329 330 332 333 332 330 328 331 332 333 332 339 339 343 339
330 331 330 328 326 321 320 320 320 319 320 316 317 318 324 315 333 344 345 344 344 343 342 346 348 352 352 351 347 345 346 343 339 329 324 323 322 320 320 321 322 325 329 329 327 334 335 340 337
318 326 324 323 323 320 318 320 318 316 317 315 313 313 311 314 334 336 342 343 345 347 344 344 346 349 350 349 348 346 347 346 342 340 338 336 331 322 319 318 318 317 320 326 324 326 335 336 336
322 322 317 317 318 321 320 319 318 319 315 315 314 311 310 312 315 316 316 318 319 327 342 347 346 347 348 347 348 348 346 346 344 340 338 336 332 327 323 321 319 315 319 319 320 321 321 329 331
321 322 317 319 320 319 319 316 313 316 316 312 311 310 309 310 310 311 311 311 311 314 323 339 347 349 348 349 348 347 346 345 343 342 338 334 332 329 325 320 322 318 317 316 314 315 315 317 322
322 319 320 321 318 317 318 314 313 312 311 309 308 308 308 309 309 309 309 309 310 312 316 319 325 344 345 346 349 347 345 344 343 341 341 337 333 328 326 320 319 318 314 313 312 313 313 313 314
318 317 317 316 315 315 314 313 312 310 308 306 306 307 307 308 308 308 308 308 308 310 312 316 328 328 335 344 344 345 345 344 342 342 341 339 337 331 326 322 317 318 314 310 309 309 310 309 310
316 316 315 313 313 315 313 311 312 310 307 306 306 307 306 307 306 308 308 308 307 308 309 310 314 325 334 338 341 342 344 345 343 342 342 341 340 337 332 326 320 317 317 311 309 308 308 308 306
315 316 314 313 314 316 313 313 311 308 306 306 305 306 306 305 305 305 305 306 306 307 308 308 310 313 317 323 333 339 340 340 341 341 341 341 340 339 337 332 326 319 319 316 310 309 309 308 306
314 313 317 312 316 315 315 315 309 307 306 306 305 305 306 305 304 304 304 304 305 307 307 307 307 307 311 313 314 315 320 327 331 334 335 336 336 337 336 334 332 325 320 320 314 310 309 308 308
313 316 314 314 313 314 314 313 307 305 305 306 305 305 305 305 304 303 303 304 304 305 306 305 304 304 304 305 308 309 310 311 312 313 316 319 324 326 328 331 332 327 325 320 319 312 309 308 308
313 315 313 313 314 312 311 308 306 305 305 305 305 304 305 305 305 303 303 303 303 303 305 305 304 304 303 302 302 303 305 305 305 306 307 310 311 313 314 317 322 324 324 321 319 316 311 309 308
313 313 314 313 313 311 309 308 307 305 305 305 305 305 305 305 303 303 303 303 303 302 303 305 305 304 304 304 304 305 304 304 304 304 305 305 305 306 307 311 312 314 316 318 318 316 311 309 308
315 315 315 313 313 312 308 308 306 306 305 305 305 305 305 305 304 303 303 303 303 303 303 303 304 304 304 304 304 303 303 303 302 302 303 305 306 305 305 306 308 311 312 313 313 314 311 309 307
314 315 314 316 313 308 308 310 307 305 305 305 305 304 304 305 305 304 304 303 303 303 303 303 303 303 303 303 303 303 303 303 303 303 302 303 306 306 306 306 307 308 310 311 311 311 311 311 307
316 313 315 316 317 318 310 313 309 304 304 302 303 301 301 301 302 303 304 303 303 303 303 302 302 302 303 303 302 302 302 302 302 302 303 304 306 305 305 305 306 306 307 309 309 309 309 308 310
316 311 312 315 316 314 314 316 315 303 303 302 302 302 301 301 300 300 300 302 303 302 302 302 302 303 302 302 302 301 301 302 302 302 303 303 305 304 304 304 303 306 307 305 306 309 308 308 308
309 310 309 311 313 315 311 317 316 305 304 302 302 302 302 301 301 300 300 299 302 302 302 303 303 303 303 303 302 302 302 302 301 302 302 302 302 301 300 302 303 302 306 305 305 306 308 308 308
309 306 311 311 312 315 312 315 316 306 302 303 303 302 302 301 301 301 300 300 301 302 302 303 303 302 302 301 301 302 302 302 301 301 301 302 303 301 300 300 302 302 302 307 305 305 306 307 308
310 308 310 311 309 309 307 313 312 304 302 302 302 301 300 300 300 301 300 300 301 302 302 302 301 301 301 301 301 301 301 301 301 301 301 301 302 301 300 300 302 302 303 307 307 305 305 306 307
308 309 308 307 305 307 307 307 305 301 301 300 302 301 301 300 301 300 299 300 301 301 300 300 300 300 299 300 299 300 300 300 300 300 300 301 301 299 300 300 300 301 303 307 307 307 306 306 307
306 305 307 306 308 307 306 304 308 303 302 301 301 301 301 300 300 301 301 301 300 300 299 299 299 299 299 299 299 299 299 299 299 299 299 299 299 299 299 300 300 300 302 304 305 307 306 306 306
305 306 303 304 305 308 307 308 302 304 303 302 301 301 301 300 300 300 301 300 299 299 299 299 299 299 298 298 298 299 299 299 299 298 299 299 299 299 299 299 300 301 302 303 304 304 305 306 306
302 302 304 309 305 302 303 308 302 302 301 301 301 300 300 299 300 300 300 299 299 299 299 298 298 297 297 297 298 298 299 299 299 298 298 299 298 298 298 299 299 300 302 301 302 303 304 306 305

GFSSGP_925_thetae_042.txt.gz
Theta_e
340 339 345 350 353 350 353 352 349 344 341 340 339 339 338 337 336 338 347 346 344 345 346 349 348 349 348 349 350 347 347 346 344 344 343 339 345 346 342 344 346 344 344 345 346 344 346 346 347
336 341 345 348 350 352 351 346 347 345 342 340 339 339 338 340 340 342 343 346 344 344 345 348 346 349 347 347 348 347 346 345 345 344 343 338 339 342 343 343 343 344 342 345 346 343 345 344 345
335 338 346 340 341 347 347 343 345 343 339 339 336 338 338 342 343 340 344 346 345 345 345 348 344 347 348 347 346 346 346 344 344 344 342 334 341 341 341 341 340 343 343 341 345 343 345 344 344
339 342 339 338 338 341 339 334 332 338 333 336 337 336 339 337 344 343 345 345 345 346 346 348 344 348 347 347 346 346 344 342 342 341 334 340 342 337 342 340 340 339 340 342 341 344 343 344 343
335 336 333 336 335 333 328 328 324 324 324 326 333 334 339 327 336 347 346 345 344 345 345 347 346 347 346 346 345 345 345 344 340 334 330 337 339 333 335 338 337 338 338 339 340 342 345 342 344
338 334 330 330 329 330 325 324 323 321 322 322 325 331 333 325 334 348 347 346 344 345 345 345 346 346 348 348 348 346 347 345 340 337 334 333 338 333 320 323 333 335 333 336 335 341 342 342 342
336 336 335 333 330 327 323 322 322 322 321 321 322 326 330 322 334 348 347 346 346 345 346 346 348 349 347 346 346 346 346 344 342 341 338 336 336 335 330 322 320 323 326 326 333 339 341 343 341
335 334 334 332 327 325 322 322 322 322 320 319 319 323 326 320 333 347 347 346 346 347 347 347 349 349 351 350 348 346 346 345 343 341 339 337 333 332 332 330 327 329 325 320 325 338 336 340 338
324 331 331 326 324 325 323 322 322 320 320 318 317 318 317 321 331 341 345 345 345 346 347 347 347 348 351 350 349 348 346 344 343 341 339 337 335 333 332 331 326 330 330 329 319 332 334 333 337
327 328 323 322 324 324 323 322 321 322 321 319 318 316 318 322 326 328 329 330 329 329 332 339 348 348 349 350 349 349 348 346 345 342 340 339 337 333 330 327 325 326 329 328 326 321 323 332 333
327 326 324 323 324 322 321 320 318 321 322 316 316 315 317 319 320 321 321 320 321 321 322 322 326 335 346 350 350 349 348 348 345 343 342 340 338 335 332 328 328 327 326 325 324 323 320 320 323
326 324 323 323 319 320 321 319 317 317 316 312 312 313 315 316 315 315 315 315 317 318 318 320 324 330 333 345 346 346 348 347 347 345 343 342 340 337 334 330 326 325 323 321 321 319 318 317 316
322 322 320 318 319 319 318 318 316 314 311 311 312 313 314 314 313 313 313 313 313 314 316 317 319 324 334 340 344 344 344 345 346 344 344 342 341 340 337 333 329 325 323 320 317 316 315 314 313
321 320 318 318 319 318 319 316 317 312 311 312 312 312 312 311 311 310 310 310 311 311 311 312 315 318 322 328 338 339 340 341 342 343 343 342 341 341 339 337 333 328 324 321 317 314 313 312 312
319 319 318 319 319 318 318 319 316 311 311 312 311 311 310 308 308 308 307 307 308 308 308 308 308 310 314 317 319 321 325 331 335 337 338 338 339 338 337 337 335 333 327 323 318 315 313 312 311
319 319 321 318 319 317 318 321 314 311 311 311 310 310 309 307 307 306 306 306 307 307 307 307 306 306 307 308 310 312 314 316 317 319 320 323 327 331 333 334 333 333 329 325 321 317 315 313 312
319 318 319 319 317 319 319 321 314 311 311 311 310 310 309 308 307 306 306 305 305 306 307 307 306 306 306 306 307 307 308 308 309 311 312 313 315 316 321 327 328 328 330 329 324 320 317 315 314
317 318 319 320 319 318 318 317 313 310 311 311 310 309 309 308 307 306 306 305 305 305 306 306 306 306 306 306 306 306 306 306 307 307 307 308 309 310 312 315 319 323 324 325 327 325 320 316 315
319 320 320 319 317 318 317 317 314 311 310 310 310 309 308 308 307 306 306 306 305 305 305 305 306 306 306 305 306 305 305 305 305 305 306 306 308 308 309 310 312 315 319 321 322 324 322 319 316
319 320 320 318 317 318 319 318 314 311 310 310 310 309 308 308 308 307 306 306 306 306 305 305 305 305 305 305 305 305 305 305 305 305 305 305 306 307 308 308 309 310 312 315 317 317 321 320 318
320 319 318 319 318 315 316 319 315 311 310 309 308 308 308 308 308 308 307 307 306 306 306 305 304 304 304 305 305 304 304 304 304 304 304 304 305 306 307 307 307 308 309 310 312 316 315 315 318
320 316 318 318 319 321 315 316 317 313 310 309 309 308 308 307 307 306 306 306 307 306 305 305 304 304 304 304 304 304 304 304 304 304 304 304 304 305 306 306 306 306 307 308 309 310 313 314 314
320 315 316 317 318 317 318 318 320 313 311 310 309 307 307 306 306 306 305 305 304 306 305 305 305 304 304 303 303 303 304 304 304 304 304 304 304 304 304 304 303 304 304 305 307 308 309 311 312
313 314 315 316 317 320 317 318 319 314 313 311 308 307 306 306 306 305 305 305 305 306 306 306 305 303 303 302 302 302 302 302 303 303 304 303 303 304 304 304 303 303 303 304 305 307 308 308 310
314 315 317 319 322 321 317 319 319 316 310 311 308 307 307 306 306 306 305 305 305 305 304 303 302 302 301 301 301 301 301 301 302 302 303 303 303 303 303 304 303 303 302 304 304 306 308 307 308
314 314 315 316 316 316 315 318 317 309 309 308 308 307 306 306 306 306 305 304 304 304 303 302 301 301 300 300 300 300 300 300 301 301 302 302 302 302 303 303 303 302 302 302 303 305 307 308 307
313 314 313 313 311 312 314 313 312 307 307 307 307 306 306 306 305 305 304 304 304 303 302 301 301 300 300 300 300 299 299 299 300 300 300 301 301 301 301 301 301 302 302 302 302 303 307 307 306
310 310 313 313 314 315 314 312 314 310 308 307 307 307 307 305 305 305 304 304 303 302 301 301 300 300 299 299 299 298 299 299 299 299 300 300 300 300 301 301 301 301 302 301 301 302 306 306 305
310 311 310 311 312 314 315 315 311 310 310 309 308 308 307 306 305 304 304 303 302 301 301 300 299 299 298 298 298 298 298 299 299 299 299 300 299 299 300 300 301 301 301 301 301 302 303 304 305
306 308 310 312 313 311 312 313 308 308 308 308 308 308 307 305 304 304 303 302 302 301 300 298 298 297 298 298 298 298 298 298 298 299 299 299 299 299 300 299 300 300 300 301 301 302 302 303 303

GFSSGP_925_thetae_045.txt.gz
Theta_e
343 341 346 353 363 358 350 348 343 342 340 337 337 338 339 339 337 344 347 343 342 342 347 348 346 349 346 347 350 346 345 344 344 344 344 339 345 344 343 346 345 347 347 348 345 345 345 346 346
336 342 348 353 361 356 349 344 345 342 339 337 335 337 340 345 340 343 343 343 343 341 345 350 343 347 347 348 347 345 344 344 344 343 343 333 339 340 342 342 342 344 345 345 345 346 347 344 346
336 341 349 343 345 350 349 343 341 340 335 334 336 335 342 345 343 341 342 342 342 342 343 350 340 347 346 346 345 345 345 344 344 343 341 328 337 335 341 340 341 341 341 342 344 344 345 344 346
338 346 343 342 343 340 339 336 334 339 331 332 334 339 337 335 345 343 342 341 342 342 343 347 343 347 347 347 346 345 345 343 343 342 335 337 341 330 339 341 340 339 339 341 341 344 345 344 344
338 339 337 340 338 333 333 332 327 328 328 326 329 337 333 334 344 344 343 342 341 342 343 345 343 349 348 347 347 346 345 344 343 337 333 338 340 333 338 338 337 336 338 340 340 342 344 345 343
343 337 333 335 333 329 327 327 326 325 324 323 324 331 330 329 346 347 344 343 341 342 342 345 341 344 347 347 347 345 345 344 342 338 336 336 339 337 329 326 330 332 332 336 334 341 344 344 342
341 341 336 331 330 329 325 324 323 323 323 323 323 327 330 324 337 349 345 344 344 343 343 343 346 349 345 346 345 345 344 344 343 341 339 336 335 336 333 328 324 325 327 327 331 339 340 343 340
338 338 336 334 330 329 324 323 323 322 322 322 322 325 329 324 334 347 346 345 345 345 345 343 342 344 350 350 348 347 343 344 343 343 340 336 332 330 327 326 331 323 326 326 326 337 338 340 340
329 339 337 330 327 327 323 323 323 322 322 321 321 322 323 327 333 343 345 345 344 344 345 344 342 342 347 349 350 349 347 344 343 342 341 339 337 336 334 333 330 322 316 320 320 332 336 335 337
332 337 328 325 326 326 324 323 323 323 323 322 321 321 323 327 330 332 334 334 332 331 331 331 334 340 346 348 348 348 348 349 347 345 343 342 338 337 333 330 325 320 317 313 314 311 327 332 331
329 331 326 326 326 323 322 322 321 324 324 319 319 319 321 322 324 325 325 326 326 325 325 325 328 332 335 346 348 348 349 346 347 345 343 342 340 338 336 333 332 331 330 329 327 326 322 321 323
330 325 325 325 321 322 323 322 320 322 319 316 317 317 318 319 319 319 319 319 319 320 320 321 323 328 336 336 348 346 345 345 344 345 344 344 343 341 339 335 332 328 327 325 323 322 321 321 319
325 324 321 321 322 322 321 322 320 317 315 316 316 316 317 317 316 315 315 315 315 315 315 316 318 322 327 334 341 342 341 341 343 344 344 342 342 341 341 340 336 332 328 325 323 320 319 318 317
323 321 320 321 321 321 321 320 320 316 315 316 316 316 315 314 313 312 312 313 312 311 311 310 311 313 317 320 323 326 330 334 334 336 338 339 341 342 341 340 340 338 333 328 325 321 318 317 315
320 321 320 320 321 321 321 321 322 316 316 316 315 314 313 312 311 310 310 310 311 310 309 309 308 309 309 310 312 313 315 318 321 322 324 324 327 331 335 337 337 337 338 334 328 323 319 317 316
320 319 322 322 321 320 320 322 319 315 316 316 315 314 312 311 310 309 309 309 309 310 309 309 309 309 309 309 309 309 310 310 311 312 314 315 316 318 322 330 331 332 333 333 330 326 322 319 317
321 319 322 323 320 322 321 323 320 316 316 316 315 314 312 311 310 309 308 308 308 309 309 309 309 308 308 309 308 308 308 308 308 309 309 308 310 311 312 316 320 326 327 328 330 330 327 322 319
321 321 320 321 322 320 322 322 320 316 315 316 315 314 313 311 310 309 308 308 308 308 308 308 308 308 308 308 308 308 308 307 307 307 307 307 308 309 310 310 312 315 319 324 324 326 329 328 321
319 320 321 322 321 319 320 321 320 317 315 316 315 314 313 312 310 309 308 308 308 308 308 307 307 307 307 307 307 306 306 306 307 307 307 307 307 307 307 309 309 310 311 314 319 321 324 325 327
321 322 323 322 320 319 321 323 321 318 315 315 315 314 312 311 310 309 309 308 308 308 308 307 307 306 306 306 306 306 306 305 306 306 306 306 306 306 306 307 308 309 309 310 312 315 319 321 322
322 322 321 320 322 321 321 322 321 319 315 314 314 313 312 312 311 311 310 309 309 308 308 307 307 306 306 306 306 305 305 305 305 306 306 306 306 305 305 306 307 307 307 308 309 311 313 318 319
322 320 319 320 322 322 320 318 324 319 315 314 313 312 312 311 311 310 309 309 308 308 308 307 307 306 306 305 305 305 305 305 305 305 305 305 305 305 305 305 306 306 306 306 306 307 309 311 315
322 319 320 321 321 319 320 321 323 320 317 315 313 312 312 311 310 309 308 307 307 307 307 307 307 306 305 304 304 303 303 304 304 304 304 304 305 305 305 305 305 305 305 305 305 305 306 308 309
318 318 319 319 319 320 321 321 323 320 318 316 314 313 311 310 309 308 308 307 307 307 307 307 306 304 304 303 303 302 303 303 303 303 303 304 304 305 304 304 305 305 305 305 304 305 306 306 308
318 319 320 325 326 325 320 319 319 320 316 316 315 313 310 310 309 309 308 308 307 307 306 305 304 304 303 302 302 302 302 302 302 302 303 303 304 304 304 304 304 305 305 305 304 304 305 306 307
318 318 318 320 320 320 318 319 320 314 314 313 313 311 310 309 309 309 308 307 307 306 305 305 304 303 303 302 301 301 301 301 301 301 301 302 302 303 303 303 303 303 303 304 304 304 304 305 306
317 315 317 315 316 316 318 318 315 312 311 311 311 311 310 309 309 308 308 307 307 306 305 304 303 303 302 301 301 300 300 300 300 300 301 301 301 302 301 302 302 303 303 303 303 303 304 304 304
313 313 317 317 317 319 318 318 317 313 312 311 311 310 310 310 309 308 307 306 306 305 304 303 303 301 301 300 300 300 300 300 300 300 301 301 301 301 302 302 302 302 302 302 302 303 303 303 303
313 313 312 313 315 316 317 318 314 313 313 312 311 311 310 310 309 308 307 306 305 304 304 303 301 300 299 299 299 299 299 299 299 299 299 299 300 300 301 301 301 301 301 301 302 302 303 303 303
310 312 313 315 317 316 316 317 314 312 311 310 310 310 310 310 309 307 306 306 305 304 303 301 300 299 299 299 299 299 299 299 298 298 298 298 298 299 299 300 300 301 301 301 301 302 302 302 302

GFSSGP_925_thetae_048.txt.gz
Theta_e
331 340 345 353 370 355 351 350 343 342 339 336 338 341 342 336 340 350 346 341 342 346 346 348 345 347 344 350 347 345 344 343 343 342 336 335 343 342 344 347 347 347 347 347 348 348 345 345 344
332 340 347 360 356 358 350 345 346 340 336 335 334 343 345 346 344 345 342 342 341 346 346 347 345 345 349 347 345 344 343 344 344 343 337 331 337 339 344 344 342 346 343 344 343 346 346 346 346
333 339 355 363 350 356 349 341 341 335 332 332 335 338 339 343 343 341 341 341 340 343 350 347 345 345 346 345 344 344 345 344 344 342 338 334 340 332 341 342 343 342 341 341 343 344 344 343 346
335 349 351 348 344 340 337 333 331 332 328 327 336 337 334 341 344 341 341 341 341 343 348 341 343 345 347 346 346 345 344 342 341 339 331 338 339 329 339 341 339 338 339 341 341 343 344 343 343
337 347 348 344 339 334 333 330 328 328 326 323 328 334 334 339 345 343 341 341 342 345 345 331 340 345 345 345 346 345 344 344 341 334 330 335 338 330 333 335 333 333 333 339 338 340 344 344 342
350 344 344 342 335 329 327 325 326 324 323 322 324 330 328 334 348 345 343 341 341 341 345 340 333 337 343 344 345 344 343 343 343 337 332 328 335 331 322 317 319 323 327 328 332 337 344 344 342
349 348 341 337 335 330 325 323 322 324 322 322 321 329 324 326 337 348 344 343 342 342 342 344 344 342 347 344 344 342 340 343 343 341 338 332 329 326 320 315 314 313 313 319 320 338 340 343 341
342 343 338 336 334 331 324 324 324 322 322 322 322 324 325 326 333 346 345 344 344 343 341 341 346 347 348 347 348 348 345 341 343 340 337 336 332 329 334 331 328 328 315 312 312 331 337 338 340
332 345 340 332 331 329 324 324 323 322 322 321 321 323 326 329 334 342 342 340 337 334 332 331 335 336 345 349 350 348 348 346 344 343 341 341 337 338 335 334 333 329 319 312 312 314 332 334 336
334 345 331 328 327 328 326 325 323 323 323 322 320 322 325 327 329 330 330 330 329 327 327 326 328 331 335 346 345 347 345 345 346 345 344 343 341 339 335 333 331 328 326 316 314 315 312 325 330
332 335 329 327 328 324 324 323 322 325 323 319 319 320 321 323 323 323 324 324 323 322 321 322 326 330 337 340 346 345 345 345 346 344 344 343 342 341 338 336 334 331 329 328 327 326 324 316 322
331 327 327 327 323 322 323 323 321 321 319 317 318 318 318 317 317 318 318 318 318 317 316 317 321 326 332 338 341 340 342 342 343 343 344 342 342 341 341 341 336 332 329 327 326 324 323 322 321
328 326 323 322 322 323 323 323 320 318 316 316 317 317 316 316 315 315 315 315 314 312 311 311 312 316 319 321 326 327 328 329 327 332 336 339 340 341 341 340 339 339 333 330 327 325 322 320 319
324 323 322 322 322 322 322 321 320 317 316 316 317 316 314 313 313 312 313 312 311 310 309 309 309 310 310 311 312 313 315 317 319 320 323 319 321 326 332 336 339 339 338 337 335 328 324 320 318
321 321 321 322 322 322 322 323 320 317 316 316 315 313 313 312 312 310 311 311 310 310 309 309 309 309 309 309 309 310 309 310 310 311 312 312 312 315 316 319 323 329 333 336 336 334 327 323 319
319 319 324 323 322 322 320 323 322 316 316 316 315 312 312 311 310 310 309 310 310 310 310 309 309 309 309 309 309 309 308 308 308 308 309 308 308 310 311 311 314 320 325 323 327 332 333 329 324
322 320 322 324 323 322 320 323 320 316 316 317 314 312 311 310 310 309 309 308 309 309 309 309 308 308 308 308 308 307 307 307 307 307 307 307 307 307 308 309 310 311 313 321 322 322 326 330 329
322 322 321 322 322 321 322 321 320 316 316 316 314 312 311 309 309 309 308 308 308 308 308 308 308 307 307 307 307 307 306 306 306 306 306 306 307 306 307 307 308 309 310 311 315 322 320 322 324
320 320 320 321 322 322 322 321 321 318 316 316 315 312 311 310 310 309 309 308 308 308 308 308 307 307 306 306 306 306 306 306 306 305 305 306 306 306 306 306 306 308 309 309 310 311 316 320 320
321 321 322 324 321 320 320 320 321 318 316 315 315 313 311 310 308 309 309 309 309 309 309 308 307 307 306 306 306 306 306 305 305 305 306 306 306 305 306 305 305 306 307 308 308 309 311 313 318
322 323 323 321 322 321 322 323 323 320 317 315 315 313 312 310 309 307 309 309 309 309 309 308 307 307 306 306 305 305 304 304 304 305 305 304 305 305 305 306 306 306 306 306 307 306 307 310 311
324 321 321 321 322 324 321 321 322 319 316 314 313 312 311 310 311 311 310 309 309 308 307 308 307 307 307 305 304 304 304 304 304 304 304 304 304 304 304 305 305 305 305 306 305 305 306 306 309
323 321 321 322 322 320 319 320 322 319 317 314 312 312 311 310 309 309 309 308 308 307 307 308 308 307 306 304 304 303 303 303 303 303 303 303 303 303 304 304 304 304 305 305 306 305 305 305 305
318 319 321 321 320 320 318 320 322 319 318 316 313 312 311 310 309 309 308 308 308 307 307 307 307 306 304 304 303 303 302 302 302 302 302 302 302 303 303 304 303 304 304 305 305 305 305 304 305
319 321 323 325 326 325 321 321 319 316 314 315 314 311 310 309 308 307 307 308 308 307 307 306 306 305 304 303 303 302 302 301 301 301 301 301 301 301 302 302 303 303 303 303 304 305 306 304 303
321 319 320 321 321 319 319 320 318 314 313 313 314 311 310 308 307 307 308 308 307 307 307 306 305 304 304 303 302 301 301 300 300 300 300 300 300 301 301 301 301 301 301 301 302 302 303 303 304
318 316 317 315 314 315 317 318 314 312 311 311 311 310 309 308 308 308 308 308 307 307 307 305 304 304 303 302 300 300 300 300 300 300 300 300 300 300 301 301 301 301 302 302 302 302 303 303 302
313 314 317 315 318 319 318 318 316 312 311 311 310 310 310 309 308 307 308 307 307 306 305 305 304 303 301 300 300 299 299 299 299 299 299 299 299 299 299 299 299 300 301 301 301 301 301 302 302
313 312 312 313 314 315 316 316 313 313 312 310 309 309 309 308 307 306 307 307 306 306 305 304 303 301 300 299 299 299 299 299 299 299 299 299 298 298 298 298 298 298 299 299 301 301 301 301 301
311 313 313 315 317 318 316 316 309 309 309 309 308 309 308 309 308 306 307 307 306 305 304 303 301 300 299 299 298 299 299 299 299 298 298 299 299 298 298 298 297 297 297 298 298 300 300 301 301

GFSSGP_925_thetae_051.txt.gz
Theta_e
329 340 342 352 349 344 344 344 336 336 336 338 341 341 342 340 344 344 343 344 345 342 336 346 350 343 347 350 346 347 346 345 342 342 339 342 344 346 346 346 346 346 348 347 348 345 345 343 343
332 338 347 353 352 354 347 339 335 332 329 341 341 343 344 347 344 341 341 343 344 345 337 338 342 345 347 345 345 340 345 345 344 340 337 338 340 344 345 345 345 345 345 346 346 345 344 346 341
331 335 349 345 348 353 339 335 333 327 322 329 336 332 337 341 339 340 341 342 346 346 348 336 341 345 346 344 343 343 343 342 342 340 333 337 338 337 343 343 343 342 343 342 343 345 344 344 344
333 343 343 340 338 334 328 326 326 326 321 327 332 336 334 335 341 341 340 342 346 349 347 339 339 345 345 345 344 341 342 342 336 331 326 337 336 329 337 338 338 337 337 340 340 342 343 344 343
335 338 338 333 331 330 327 324 321 319 320 326 329 332 331 333 342 341 341 343 344 344 331 328 331 335 339 340 341 341 342 342 341 332 324 324 330 319 323 326 325 325 329 336 337 339 344 343 342
337 335 338 332 326 323 320 318 319 319 318 319 322 325 326 329 342 344 341 342 342 341 342 331 332 332 333 331 336 339 342 343 342 340 333 325 324 319 314 313 313 313 318 321 324 331 342 343 341
343 336 338 328 325 322 322 320 318 318 318 319 319 324 323 325 337 345 342 341 341 342 344 339 337 340 342 341 339 340 339 340 340 338 336 334 328 321 331 320 316 317 313 311 311 328 338 341 340
331 334 337 328 329 324 321 322 320 318 319 318 320 322 323 325 332 342 343 339 334 327 328 338 342 346 347 346 345 346 346 342 343 342 339 339 336 331 335 332 330 328 322 314 312 315 332 335 339
328 334 328 327 328 323 321 322 320 318 318 319 320 322 325 327 330 335 329 328 328 328 324 325 329 333 345 347 347 345 346 347 347 346 344 344 341 338 337 334 332 331 328 322 312 311 316 327 333
327 327 326 325 324 324 322 322 321 320 319 317 319 319 324 324 324 323 323 322 321 320 321 323 330 339 344 347 346 346 346 345 345 344 343 343 343 341 340 335 335 332 329 328 326 321 323 312 318
327 327 325 326 324 321 322 321 321 320 319 317 317 318 318 319 318 318 318 318 318 316 316 319 325 335 337 337 337 340 343 342 342 342 343 343 342 342 340 337 335 333 330 328 327 324 324 323 318
325 324 327 324 320 320 321 320 318 317 318 315 315 316 315 312 314 315 315 314 313 311 310 312 316 318 322 322 320 323 322 322 323 326 327 332 337 340 340 340 340 339 333 329 327 326 324 323 322
324 322 321 320 321 320 320 320 317 315 314 314 316 314 312 311 312 313 313 311 310 309 309 309 310 310 311 311 311 312 312 313 316 318 316 314 316 319 322 325 330 335 337 337 335 329 325 323 321
322 321 320 320 320 321 320 318 318 315 313 314 314 311 309 310 311 310 310 310 309 309 309 309 309 309 309 309 309 309 309 309 310 310 309 310 309 311 312 314 317 320 324 328 333 336 334 328 323
318 319 319 319 319 320 319 319 318 314 313 313 311 309 309 310 309 309 309 309 309 309 309 308 308 309 308 308 308 308 308 308 307 307 307 307 307 308 308 309 310 313 313 319 319 321 327 333 333
318 316 318 318 319 320 317 316 318 312 313 312 310 307 308 308 308 309 309 309 309 309 309 308 308 308 308 307 307 307 307 307 306 306 306 307 307 307 306 307 307 308 310 311 313 316 318 321 326
316 315 316 321 319 319 317 318 316 312 313 312 308 307 307 306 306 308 308 308 308 308 308 308 307 307 307 307 307 306 305 306 305 305 304 305 305 306 306 306 306 306 307 309 310 313 320 316 315
318 317 317 320 320 318 318 317 316 313 312 312 308 306 306 305 305 308 308 308 308 308 308 307 307 306 306 306 306 305 305 305 305 305 304 305 305 306 306 305 305 305 306 307 308 308 310 314 317
318 317 317 317 320 318 317 317 317 314 312 311 310 306 306 306 306 308 308 308 308 308 308 307 307 306 306 306 306 305 305 305 305 304 303 304 305 305 304 305 306 305 305 306 307 308 308 308 311
319 319 318 320 320 318 318 318 316 315 314 313 311 308 306 305 304 307 308 308 308 308 308 308 307 307 306 306 306 305 304 304 303 303 303 304 303 303 304 304 304 305 305 305 305 306 307 307 307
320 320 319 319 319 318 318 318 318 316 313 312 312 310 307 305 304 304 307 308 308 309 308 308 308 307 306 306 305 304 304 303 303 303 303 302 302 303 303 303 303 303 304 305 305 305 305 305 305
320 320 320 320 319 318 318 317 314 315 313 312 311 309 308 305 304 304 305 307 308 308 307 307 307 307 307 306 304 304 303 303 302 302 302 302 302 302 302 302 302 303 303 304 304 304 305 305 305
321 319 319 319 318 316 316 316 313 314 314 312 309 309 308 305 305 305 307 307 307 307 307 307 307 307 307 306 304 303 303 302 302 302 301 301 301 301 301 301 301 301 303 302 302 304 305 305 305
317 317 317 318 315 316 314 315 315 316 315 312 309 308 308 306 306 306 307 307 307 307 307 307 307 306 305 305 304 303 302 301 301 300 300 300 300 300 300 300 300 301 301 302 302 302 302 304 305
317 315 317 319 320 319 316 316 314 315 313 313 310 308 307 306 305 303 304 306 306 307 307 306 306 306 305 304 303 302 301 300 300 300 300 300 300 300 300 300 300 301 301 301 301 301 301 301 303
317 315 316 318 319 314 316 315 313 310 308 307 309 307 306 305 303 303 305 306 307 307 307 306 306 305 304 303 302 300 299 299 299 299 299 299 299 299 299 299 299 299 299 299 300 301 301 301 302
315 312 312 311 310 310 311 314 311 309 309 308 306 305 305 304 303 304 305 307 307 307 307 306 305 304 303 301 300 299 299 299 299 299 299 299 299 299 298 298 298 298 298 298 298 299 300 301 301
312 311 312 310 313 315 312 314 313 310 309 309 306 306 306 305 304 304 305 306 307 306 306 305 304 302 300 299 299 298 298 298 298 298 298 298 298 298 298 297 297 297 297 297 298 298 298 299 300
310 308 309 308 309 311 310 310 309 310 309 307 307 306 305 305 304 303 304 306 306 306 305 303 302 300 299 298 298 298 298 298 298 298 298 298 298 297 297 297 296 296 296 296 296 296 296 297 298
309 310 308 311 311 310 309 311 307 305 305 305 306 306 306 306 306 304 304 305 305 304 303 302 300 299 298 298 298 297 297 298 297 297 297 296 296 296 295 295 295 295 296 296 296 296 296 296 297

GFSSGP_925_thetae_054.txt.gz
Theta_e
331 335 342 351 344 338 341 339 334 331 342 339 340 340 338 339 337 336 344 346 343 336 341 347 347 341 348 347 347 346 345 344 342 338 338 343 345 345 345 346 346 347 347 347 346 345 346 346 344
330 335 348 345 346 343 341 336 330 338 341 340 339 341 342 346 342 339 346 345 342 335 338 343 341 343 347 344 343 344 341 343 343 338 335 339 342 344 343 344 345 345 345 345 345 344 344 341 338
331 337 346 342 344 346 333 328 326 325 335 333 334 333 338 342 339 339 341 345 344 338 334 335 339 346 344 342 341 339 341 338 338 332 336 337 336 343 342 342 342 340 342 342 343 344 342 344 341
331 341 334 336 334 331 326 323 324 322 324 327 333 335 336 331 337 340 343 346 345 347 344 335 334 337 341 340 339 339 340 338 333 326 330 336 323 330 333 332 334 332 334 339 340 341 342 342 341
335 334 333 330 331 326 318 318 318 319 323 326 329 333 333 333 338 339 344 345 344 343 336 333 337 341 342 341 340 338 342 339 339 334 325 328 327 316 321 320 319 318 323 331 334 338 342 341 341
337 330 331 328 326 321 318 318 318 318 317 318 324 325 326 326 334 337 345 344 343 339 339 337 338 341 342 341 341 339 342 342 340 338 334 328 325 320 318 313 312 311 312 314 317 328 340 342 340
338 333 335 324 322 321 321 317 317 318 318 320 319 323 322 328 332 337 345 344 331 338 341 336 337 340 340 338 340 340 340 340 340 337 335 337 334 327 333 329 319 322 318 311 310 318 331 340 339
330 332 331 326 325 322 320 320 318 318 319 317 319 322 325 325 330 333 328 325 326 327 333 333 342 344 345 344 345 345 343 344 345 345 344 343 340 335 335 333 332 330 328 324 312 311 321 332 337
327 325 325 326 324 322 320 320 318 317 318 319 320 321 323 325 328 328 322 320 320 325 331 333 334 342 347 347 346 346 347 346 346 344 342 343 343 342 340 336 334 333 329 327 323 316 311 316 327
327 325 324 324 323 321 322 320 319 318 318 318 319 319 320 322 323 320 318 314 312 321 331 339 342 346 346 346 346 345 344 344 344 343 343 342 341 339 338 339 335 333 332 329 327 325 324 322 315
325 326 323 325 321 321 321 320 320 318 319 316 318 318 316 315 316 316 313 310 309 311 318 324 329 329 327 327 327 325 325 328 328 328 331 337 338 339 340 339 339 338 335 330 329 327 326 324 323
325 324 325 324 320 319 320 318 317 318 319 314 314 315 312 311 312 312 310 309 309 309 309 311 313 312 312 313 314 313 314 317 316 312 312 313 315 319 322 323 327 332 336 333 330 329 325 325 325
324 322 322 320 320 319 318 318 317 315 314 313 312 311 309 308 310 310 309 308 308 309 309 309 309 309 309 309 309 309 309 309 309 308 308 308 308 309 309 310 312 317 323 326 327 331 334 331 327
322 320 320 320 319 320 319 317 317 314 312 313 311 309 308 308 308 308 308 308 308 308 308 309 308 308 308 308 308 307 307 307 307 307 307 307 307 307 307 307 307 308 310 314 316 318 319 325 330
318 320 318 319 318 319 318 319 317 313 311 312 310 307 306 307 308 308 308 308 309 308 308 308 308 308 308 307 307 307 306 306 306 305 304 305 306 306 306 305 305 305 305 308 309 311 313 315 317
317 315 317 316 318 319 317 318 316 312 311 311 309 306 306 305 307 308 308 308 308 308 308 307 307 307 307 307 306 305 305 305 305 304 304 303 305 305 306 305 305 305 305 307 307 308 309 310 311
314 313 314 315 318 318 316 317 317 311 312 311 307 305 306 304 304 307 308 308 308 308 307 307 307 306 306 306 305 305 305 304 304 304 303 302 304 305 305 304 304 305 305 305 305 307 307 309 310
315 316 315 318 318 318 317 315 316 312 311 311 307 304 304 303 303 307 307 307 307 307 307 307 306 306 306 306 305 305 305 304 304 303 302 302 303 303 303 302 304 303 304 305 305 305 306 307 307
317 316 316 315 318 318 317 317 315 313 310 310 307 305 304 303 305 307 307 307 307 307 307 306 307 307 306 306 306 305 304 304 303 302 302 302 302 302 303 303 303 303 303 303 304 305 305 305 306
318 318 317 318 319 318 317 317 316 314 313 312 310 306 305 303 302 304 307 307 307 307 307 307 307 307 306 306 305 304 304 303 303 302 302 302 302 302 301 301 301 302 302 303 303 303 304 304 305
319 319 319 318 318 316 317 317 316 315 313 311 310 307 305 304 303 302 305 307 307 308 307 307 307 307 306 306 306 305 304 303 303 302 301 301 301 301 301 301 301 302 302 301 302 303 302 303 304
319 319 319 319 317 317 315 315 314 313 313 311 310 307 305 303 304 303 304 305 307 308 308 307 307 307 307 306 306 304 303 302 302 301 301 300 300 300 300 300 300 300 300 300 301 301 301 303 303
318 318 318 318 316 315 314 315 312 314 315 311 309 308 306 303 303 302 303 306 307 307 307 307 307 307 307 306 305 304 303 302 301 300 300 299 299 299 299 299 299 300 300 300 300 300 301 301 302
317 316 314 314 313 315 313 312 310 315 315 312 309 308 307 304 303 303 305 306 307 306 306 307 307 307 306 305 304 303 302 301 300 299 299 299 299 299 299 299 299 299 299 299 299 299 300 300 301
314 312 312 316 319 318 314 313 310 311 310 312 310 308 306 304 303 303 302 304 305 306 306 306 306 306 306 304 303 302 300 299 299 299 299 299 299 298 298 298 298 298 298 298 298 298 298 299 299
316 313 313 318 320 317 310 316 313 309 307 305 308 307 305 304 303 302 302 304 305 306 306 306 306 306 304 303 301 299 299 299 298 298 298 298 298 298 298 298 298 298 297 297 297 298 297 298 298
314 313 310 311 308 308 308 312 309 309 307 305 306 306 306 305 302 301 303 305 306 306 306 306 305 303 302 300 299 298 298 298 298 298 298 298 298 298 297 297 297 297 297 297 297 297 297 297 297
311 310 311 308 310 314 310 310 311 310 309 307 307 306 305 304 302 301 303 305 305 305 305 304 302 301 299 298 298 298 297 297 297 297 297 297 297 297 297 296 296 296 296 295 295 295 296 296 296
308 308 308 307 308 310 309 307 307 308 308 307 306 304 304 303 302 301 302 303 304 304 303 302 300 299 298 297 297 297 297 297 297 297 296 296 296 295 295 294 294 295 295 295 295 295 296 296 296
308 307 306 309 310 306 306 311 307 305 305 305 305 305 303 304 304 303 303 303 303 302 301 299 298 298 297 297 297 296 296 296 296 296 296 295 294 294 294 294 294 294 294 295 295 295 296 296 296

GFSSGP_925_thetae_057.txt.gz
Theta_e
326 332 342 345 339 335 339 336 332 335 343 340 340 336 339 340 335 333 343 347 344 336 341 348 343 344 349 348 346 345 343 342 338 335 340 343 342 341 346 345 345 346 347 346 346 346 347 346 347
330 335 347 339 340 339 337 333 339 341 342 338 335 339 341 345 340 343 345 347 336 332 339 346 341 342 347 342 343 340 342 342 338 334 337 338 343 343 342 344 343 343 344 345 345 344 344 340 341
330 338 340 340 341 339 330 328 331 338 332 333 335 333 339 343 339 344 342 342 334 332 335 338 336 344 347 341 340 344 340 339 334 334 337 336 340 341 341 338 337 336 341 341 342 342 341 342 339
331 336 326 335 335 328 324 322 331 321 326 329 334 341 336 331 331 338 343 343 340 339 337 338 344 347 344 342 342 343 339 335 330 328 336 334 331 335 334 330 328 326 327 337 339 341 341 340 341
335 328 327 329 328 320 318 318 318 322 324 322 329 340 339 327 336 340 342 344 345 343 340 338 341 344 343 342 341 343 341 340 339 333 328 331 326 318 320 319 317 316 319 325 332 336 340 340 339
337 327 328 329 325 319 317 318 317 317 317 318 331 331 331 326 329 344 346 345 347 343 337 337 339 342 342 340 340 341 344 341 338 336 334 331 328 326 326 317 313 313 312 311 313 322 336 339 338
334 331 329 324 321 320 319 317 317 317 317 320 320 324 324 325 335 344 341 341 344 340 336 336 338 339 338 339 342 342 341 341 342 342 341 339 335 329 333 330 325 328 326 321 311 312 321 336 338
329 328 325 323 322 321 319 319 317 317 318 317 319 322 334 323 333 335 323 330 340 343 339 340 342 343 344 342 344 344 343 344 345 344 342 343 342 339 336 335 334 332 331 328 320 314 313 323 332
325 324 324 325 323 322 319 319 317 316 318 319 319 321 321 324 322 321 320 324 335 338 334 341 343 344 346 346 345 344 343 345 344 342 342 342 341 338 341 340 337 334 335 332 329 328 318 317 318
326 324 323 321 321 319 320 319 318 318 318 319 319 316 320 322 318 313 313 318 332 338 343 343 345 346 346 345 344 343 343 342 339 337 337 340 340 340 337 337 336 335 336 335 332 331 330 328 324
324 329 323 324 320 320 320 319 319 317 318 317 319 317 314 315 313 309 308 313 318 328 328 326 328 329 330 327 325 324 321 318 315 313 314 318 321 326 329 332 333 336 336 334 331 330 327 326 326
326 323 323 324 321 318 320 317 318 317 318 314 315 313 311 310 310 307 306 308 310 313 314 312 313 315 314 312 311 312 311 309 308 308 308 308 308 308 309 310 313 317 323 328 329 329 332 331 326
324 322 321 319 319 318 318 318 317 316 313 311 311 310 308 308 308 307 307 308 308 308 309 309 309 309 308 308 308 308 307 307 306 306 306 306 306 306 306 306 306 306 307 310 314 316 318 320 326
321 319 319 319 319 319 319 317 316 314 311 310 310 308 306 306 306 305 306 307 308 308 308 308 308 308 308 307 307 307 306 306 305 303 303 305 305 305 305 305 305 305 304 306 308 309 310 312 314
318 320 317 318 318 318 316 317 316 313 310 311 308 306 305 305 306 306 307 307 308 308 308 308 308 307 307 307 306 306 305 304 303 303 302 302 304 305 305 304 304 304 305 304 304 304 306 306 307
315 314 316 315 317 318 316 316 316 311 310 310 307 305 304 304 306 307 307 308 308 308 308 307 307 307 306 305 305 304 304 304 303 302 302 302 303 304 302 303 302 303 304 304 304 304 305 306 307
313 313 314 314 316 318 316 317 315 310 311 310 307 304 304 303 303 306 307 308 308 308 308 307 307 306 305 305 305 305 304 304 303 302 302 302 302 301 301 302 302 303 303 302 302 304 304 304 305
313 315 313 315 317 317 317 315 314 311 310 310 307 304 304 302 302 306 307 308 308 307 307 307 306 306 306 305 305 305 305 304 303 303 302 301 301 301 301 301 301 301 301 301 302 302 302 303 304
315 315 315 314 316 318 316 316 315 312 310 309 307 305 303 302 304 305 307 307 307 307 306 306 306 306 306 306 305 305 305 304 303 303 302 301 301 301 301 301 301 301 301 301 302 301 302 303 303
317 316 315 315 318 317 316 316 315 313 312 311 310 306 304 302 302 303 305 305 306 306 306 306 306 306 306 306 305 305 304 304 303 302 302 301 300 300 300 300 300 300 300 300 300 300 301 301 301
318 317 317 317 316 315 315 316 315 314 312 311 309 307 305 303 302 301 303 305 306 306 306 306 306 306 306 306 305 305 304 304 303 302 301 300 300 299 299 299 299 299 299 299 299 300 300 300 301
318 317 318 318 316 317 315 317 313 312 311 311 308 305 304 302 302 302 302 304 306 306 306 306 306 306 306 306 306 304 304 303 302 301 300 300 299 299 299 298 298 298 298 299 299 300 299 299 299
317 317 316 316 314 315 313 313 311 312 314 312 308 306 304 302 302 301 303 305 306 306 306 307 306 306 306 306 305 304 303 302 301 300 299 299 299 298 298 298 298 298 298 298 298 298 298 298 298
316 314 312 313 312 314 312 311 312 314 313 310 310 307 306 303 301 302 304 305 305 306 306 306 306 306 306 305 304 303 302 300 299 299 298 298 298 298 298 298 298 298 298 298 298 298 298 297 297
312 310 312 313 316 314 313 311 311 309 309 308 308 308 306 304 301 301 301 303 305 305 305 306 306 306 305 304 303 301 299 299 298 298 298 298 297 297 297 298 298 298 297 297 297 297 297 297 297
314 310 311 315 318 318 311 314 313 309 305 304 305 307 306 304 302 301 302 303 304 305 305 306 305 304 303 302 300 299 298 298 298 297 297 297 297 297 297 297 297 297 297 297 297 297 296 296 296
313 314 310 309 307 308 308 308 310 307 305 304 305 307 307 305 303 302 302 303 303 304 304 304 304 303 300 299 299 298 298 297 297 297 297 297 296 296 296 296 296 296 295 295 295 295 295 295 295
311 308 310 307 310 311 309 308 311 307 307 305 306 307 307 305 303 300 300 302 303 303 303 302 301 299 298 298 298 297 297 296 296 296 296 296 295 295 295 294 294 294 294 294 294 294 294 295 295
308 309 306 306 307 310 309 306 305 307 307 308 307 302 302 302 302 301 301 303 303 302 301 299 298 298 298 297 297 296 296 296 295 295 295 294 294 294 293 293 293 293 293 293 294 294 294 294 294
307 307 305 305 307 304 304 310 306 303 303 303 304 303 302 301 301 300 302 301 300 299 298 298 298 298 297 296 296 296 296 295 295 294 294 294 293 293 293 293 293 293 293 293 293 294 294 294 294

GFSSGP_925_thetae_060.txt.gz
Theta_e
329 334 342 340 336 333 336 333 330 338 343 340 339 337 340 338 333 330 342 346 344 340 341 346 341 346 348 346 345 343 341 336 328 335 338 343 341 343 346 345 345 345 345 346 345 345 345 344 345
329 336 342 333 335 335 335 331 339 341 341 335 335 339 341 344 339 343 344 345 337 332 343 348 344 346 347 344 342 343 343 340 334 335 337 339 342 341 342 343 341 342 345 345 344 344 345 344 341
331 339 335 339 336 336 330 327 337 338 331 331 336 334 340 342 339 342 341 339 334 337 343 347 341 343 346 341 343 341 340 339 333 336 335 336 340 340 339 339 333 334 340 339 340 341 342 342 339
331 331 322 332 331 326 323 327 336 327 326 329 336 342 332 329 331 340 341 339 334 337 340 341 339 345 344 342 342 342 339 335 331 331 335 333 336 334 328 324 320 320 322 336 337 339 340 341 341
333 323 326 327 323 319 318 319 320 324 326 324 331 340 338 326 336 337 343 341 338 340 339 340 345 345 344 343 343 342 340 340 338 333 330 329 323 318 316 314 313 312 313 316 325 330 338 340 340
334 323 327 324 321 319 317 317 317 318 317 320 334 335 330 326 340 344 345 344 344 341 340 341 341 342 339 339 338 342 342 339 336 336 336 334 329 329 329 323 319 324 324 317 311 312 323 335 338
332 326 327 324 320 319 317 314 316 315 317 320 324 333 324 328 337 345 345 345 346 343 342 341 342 339 339 341 342 341 341 342 343 343 342 341 337 332 334 334 332 331 329 328 319 313 317 327 335
327 323 321 320 320 320 317 318 315 316 318 317 318 333 334 325 326 336 337 338 343 341 340 343 342 343 341 342 343 342 342 342 344 342 342 342 341 339 338 336 335 334 335 334 330 327 315 316 323
321 323 323 324 321 321 317 319 317 316 318 318 317 320 320 320 320 328 333 336 338 336 337 345 344 344 342 343 343 343 343 342 341 340 341 340 339 337 338 339 339 339 338 339 337 333 329 326 324
324 324 323 321 320 319 318 319 317 318 320 320 318 316 320 317 319 322 327 332 338 338 342 343 344 345 342 342 342 339 332 328 325 324 325 327 331 333 334 334 336 336 336 335 333 331 328 327 326
324 328 322 323 320 319 319 318 317 316 318 319 320 316 314 312 312 314 317 327 329 329 331 337 338 335 334 329 325 320 314 313 310 309 308 308 309 309 310 313 314 318 325 329 329 330 330 330 327
326 322 322 322 319 319 319 317 318 316 317 314 315 312 311 307 306 309 312 319 320 317 317 321 320 320 317 317 314 310 308 307 306 306 306 306 306 305 305 305 305 305 305 308 311 315 317 319 323
324 322 319 318 318 317 316 317 317 316 312 311 311 311 309 306 305 307 310 311 312 311 309 310 310 310 309 309 308 307 306 305 303 302 303 304 304 305 305 304 304 304 304 304 305 306 307 308 310
319 318 318 318 318 318 319 316 316 314 310 310 310 308 306 305 304 305 306 307 308 308 308 308 308 308 307 307 306 306 305 303 302 302 301 303 304 304 304 303 303 303 303 304 304 304 304 305 305
316 320 316 317 317 318 315 315 316 312 309 309 308 305 305 305 304 305 307 307 308 307 307 307 307 307 307 306 305 304 303 303 302 302 301 302 302 301 301 302 302 302 302 303 303 303 304 304 304
315 313 318 314 317 317 315 315 314 310 310 309 306 304 304 303 304 305 306 307 307 307 307 307 307 306 305 304 304 304 303 303 302 302 302 301 301 301 301 301 301 301 301 301 301 301 302 303 303
312 317 314 314 316 317 315 315 314 309 310 310 305 303 303 302 303 304 306 306 307 307 307 307 306 305 305 305 304 304 304 303 303 302 302 301 301 301 300 300 300 300 300 300 301 301 301 302 302
315 314 313 313 316 317 317 315 313 311 309 310 307 303 302 301 302 305 306 306 306 307 307 306 306 305 305 305 305 304 304 303 303 303 302 301 301 300 300 299 299 299 299 299 300 300 300 300 301
311 314 315 314 314 317 315 315 314 311 309 309 307 305 303 301 303 305 306 306 306 306 306 306 306 306 305 305 305 305 305 304 303 303 302 302 301 300 299 299 299 298 298 298 299 299 299 299 300
316 316 315 314 317 317 316 315 314 312 311 310 309 307 305 302 301 302 304 305 306 306 306 306 306 306 306 306 306 305 305 304 303 303 302 301 300 299 299 299 298 298 298 298 298 299 299 299 300
317 316 316 316 316 314 314 315 314 312 311 311 309 307 305 303 301 300 302 304 305 305 306 306 306 306 306 306 306 305 304 303 303 303 302 300 299 299 298 298 298 298 298 297 298 298 299 298 299
317 316 317 318 316 316 314 315 312 311 311 311 309 305 305 302 301 301 301 303 304 305 305 305 305 306 306 306 306 305 303 303 302 301 300 299 299 298 298 298 298 297 297 298 298 298 298 298 297
316 315 315 315 313 314 313 313 310 310 313 310 309 306 304 302 302 301 301 304 305 304 305 305 305 305 305 306 305 304 303 302 301 300 299 299 298 298 297 297 297 297 297 298 298 297 297 297 297
313 311 311 312 312 312 312 310 311 311 312 307 307 307 305 303 301 301 303 303 304 304 305 305 305 305 305 305 304 303 301 300 299 299 298 298 297 297 297 297 297 297 297 297 297 297 297 297 297
311 312 314 310 315 311 312 311 311 308 307 305 303 303 306 304 302 301 301 302 304 304 305 304 305 305 304 303 302 300 299 298 298 298 297 297 296 296 296 296 296 296 295 296 296 297 297 297 296
313 311 311 313 315 315 311 314 312 307 304 303 304 305 306 306 302 301 301 301 302 303 303 303 304 304 303 301 299 298 298 298 297 297 296 296 296 296 296 295 295 295 295 295 294 294 294 294 294
313 314 309 308 305 307 308 307 309 304 304 303 304 304 305 304 301 300 301 302 302 302 303 303 303 302 300 298 298 298 298 297 296 296 296 296 295 295 294 294 293 293 293 293 293 293 293 294 294
310 307 310 306 310 309 307 307 309 307 306 304 302 300 301 301 300 299 300 301 302 302 302 302 300 299 298 298 298 298 297 296 296 295 295 294 294 294 293 293 292 292 293 293 293 293 293 293 293
308 308 305 305 305 310 309 305 303 306 305 303 300 300 300 300 299 299 299 300 300 300 300 299 298 298 298 298 297 296 296 295 295 294 294 294 293 293 292 292 292 292 292 292 293 293 293 293 293
307 308 305 307 305 303 302 308 305 303 301 302 300 300 300 299 299 298 298 298 298 298 298 297 298 298 297 296 296 295 295 294 294 294 294 293 292 292 292 292 292 292 292 292 292 292 293 294 294

GFSSGP_925_thetae_063.txt.gz
Theta_e
330 337 341 337 347 343 339 336 332 343 344 341 339 337 340 341 333 337 341 344 344 345 343 348 344 345 347 345 344 342 335 332 331 337 342 343 342 344 345 344 344 345 345 345 346 346 345 346 346
329 337 340 336 344 342 338 333 339 343 343 338 338 340 342 343 341 343 344 345 343 339 345 347 344 345 344 342 342 343 340 334 334 336 335 340 340 340 341 341 340 342 343 346 346 344 343 341 341
331 338 340 343 339 341 336 331 342 341 336 334 341 338 341 343 341 342 341 337 335 339 344 347 344 345 344 344 343 340 336 331 332 335 333 336 339 338 336 334 327 330 340 339 340 343 343 342 339
332 331 328 339 335 331 328 334 341 336 327 335 340 343 333 329 333 338 342 335 337 341 345 346 341 344 344 340 342 337 337 337 332 330 329 324 325 322 319 318 316 315 322 329 333 338 343 342 340
330 329 334 331 324 321 320 331 335 328 328 331 336 343 339 326 336 336 342 336 340 341 341 345 344 344 341 340 339 339 338 338 336 333 332 329 325 326 318 313 316 318 315 312 314 322 334 344 343
341 329 335 332 323 320 319 323 321 322 321 327 341 341 336 327 342 344 342 340 339 340 340 347 343 342 340 340 338 340 341 337 338 338 338 335 331 332 331 327 329 329 329 325 315 313 318 328 338
340 335 334 328 324 321 321 317 319 320 320 327 331 340 330 333 343 345 344 345 344 341 341 346 345 344 340 341 342 341 340 343 343 343 342 342 340 337 336 337 335 334 334 334 330 326 314 318 329
333 330 327 324 324 325 318 319 317 318 320 318 319 338 339 334 337 343 344 345 344 340 340 343 343 340 340 341 341 342 342 342 341 341 341 339 337 340 339 338 338 339 339 340 338 334 333 326 319
323 334 331 329 324 325 318 320 318 317 321 320 319 323 324 321 325 333 335 336 338 339 340 344 343 342 342 342 342 342 339 338 336 337 337 336 335 335 337 336 337 335 335 336 334 331 329 327 326
330 335 333 325 323 323 319 320 320 321 322 323 321 319 319 317 326 336 337 336 335 337 341 344 343 342 341 341 339 335 328 320 317 316 317 316 321 321 322 322 323 329 331 331 330 329 329 329 328
327 336 325 323 322 320 321 320 318 320 322 323 325 323 317 316 321 329 330 332 331 339 340 342 342 339 337 332 321 316 312 310 309 308 307 307 307 307 307 307 306 307 309 311 316 320 321 321 324
328 322 323 323 321 321 321 319 319 318 319 315 321 320 315 316 320 322 323 322 321 326 331 330 328 327 323 316 311 308 306 305 304 303 304 304 304 304 304 304 304 304 304 304 304 305 307 310 312
324 323 320 319 319 318 318 318 319 319 314 316 317 316 313 313 313 312 316 313 313 316 316 314 314 314 311 309 306 305 304 303 302 302 302 303 303 303 303 303 302 302 303 303 303 304 305 306 305
320 320 319 318 319 318 319 317 317 316 313 315 316 316 311 310 310 308 309 308 308 309 309 309 308 308 307 306 306 304 302 302 302 301 302 302 301 301 301 301 301 301 302 302 302 302 303 304 304
318 321 317 318 318 319 317 317 319 314 313 315 314 314 310 308 306 309 308 308 309 308 307 307 307 306 306 306 304 303 302 302 302 302 301 301 301 300 300 300 300 300 300 300 300 301 301 303 303
318 317 324 317 318 317 316 322 315 313 314 315 313 311 310 307 306 306 306 307 307 307 307 306 306 306 305 303 303 303 302 302 302 302 301 301 300 300 300 299 299 299 299 299 299 300 300 302 302
315 325 319 319 317 318 317 319 315 312 313 314 312 310 309 308 305 304 306 307 307 307 306 306 306 305 304 304 304 304 303 303 302 302 302 301 301 301 300 299 299 298 298 298 298 299 299 300 301
324 317 314 317 316 318 318 319 316 313 313 315 312 310 308 308 306 304 305 306 306 306 306 306 305 304 304 304 304 304 304 303 303 302 302 301 301 301 300 300 299 298 298 298 298 298 299 300 300
316 316 316 314 314 318 318 317 318 315 313 314 313 310 308 307 306 304 304 305 305 306 306 305 305 305 305 304 304 304 304 303 303 302 302 301 301 300 300 299 299 298 298 297 297 298 299 299 300
317 316 316 315 316 318 317 318 318 314 314 313 313 311 309 306 305 304 303 304 304 305 305 305 305 305 305 305 305 305 305 304 303 303 302 301 300 299 299 299 298 298 297 298 298 297 299 299 300
316 316 315 317 316 315 316 318 316 313 312 312 311 311 310 308 307 305 304 303 304 305 305 305 305 305 305 305 305 305 305 304 303 302 302 300 299 299 298 298 298 297 297 298 297 298 298 298 299
318 316 317 317 318 319 314 319 315 311 314 311 311 309 309 308 306 305 304 303 304 305 305 305 305 304 305 305 305 305 304 303 302 302 301 299 299 298 298 297 297 297 297 297 298 297 298 298 298
317 315 316 315 315 315 315 316 314 312 315 312 309 309 307 306 307 305 304 304 303 305 305 305 304 304 304 305 305 304 304 303 301 300 299 299 299 298 297 296 296 296 297 297 297 297 297 297 297
314 312 312 313 314 316 313 313 314 313 311 309 308 307 308 306 305 304 302 302 303 304 304 303 303 304 304 304 304 303 302 301 299 298 298 298 297 296 296 296 296 296 296 296 296 296 296 296 296
312 316 319 315 317 315 312 313 314 310 308 306 306 307 308 306 305 305 304 302 302 303 303 303 303 304 304 304 303 302 300 298 298 298 297 296 296 296 296 295 295 295 295 295 295 295 295 295 295
313 316 317 315 315 317 311 316 314 307 305 305 306 307 307 306 304 304 303 303 302 303 303 303 303 303 303 302 300 298 298 298 297 296 296 295 295 295 294 294 294 294 294 294 294 294 294 294 294
313 316 310 311 306 310 311 309 309 306 306 304 304 305 304 304 303 303 302 301 301 302 302 303 303 302 300 298 298 298 298 297 296 295 295 295 294 294 294 294 294 293 293 293 293 294 294 294 294
311 309 313 311 314 310 310 309 313 309 307 304 304 304 303 303 303 302 301 300 300 301 301 301 300 299 298 298 298 297 297 296 295 295 294 294 294 293 293 292 292 293 293 293 293 293 293 293 294
310 310 307 308 308 313 312 311 305 307 305 304 303 302 303 303 302 301 300 299 299 300 299 298 298 298 298 298 298 297 296 295 294 294 293 293 292 292 292 292 292 292 292 293 293 293 293 293 294
306 308 308 313 309 305 308 312 305 303 303 303 302 302 302 302 302 300 299 298 299 298 298 297 297 298 298 297 296 295 295 294 293 293 292 291 291 291 292 292 292 292 292 293 293 293 293 293 294

GFSSGP_925_thetae_066.txt.gz
Theta_e
340 341 347 347 348 342 343 342 340 345 344 341 338 339 338 339 335 339 345 345 347 343 344 346 340 347 347 345 344 341 334 328 335 338 343 342 342 343 343 341 344 345 346 346 345 346 346 346 346
341 344 347 344 347 347 342 339 344 345 343 339 338 337 336 338 336 335 335 343 343 341 344 343 342 347 343 344 344 343 336 331 336 335 339 340 339 338 339 338 337 342 343 344 344 344 344 344 344
338 340 349 346 346 349 341 340 345 342 339 339 341 340 338 340 340 336 337 340 339 342 343 344 344 346 343 342 340 340 336 333 335 335 334 338 337 334 333 331 331 334 338 337 339 343 343 342 342
337 337 336 346 347 339 337 340 342 343 337 338 342 342 337 336 339 337 338 338 339 342 343 343 342 346 342 342 339 336 338 336 335 334 332 331 332 330 328 324 321 320 317 321 329 335 343 342 342
337 337 344 344 338 332 330 340 342 337 334 341 342 342 341 335 340 340 340 339 341 343 343 342 344 345 342 341 340 339 336 336 335 335 335 333 333 331 321 325 330 331 327 316 313 318 332 340 342
345 337 344 345 336 327 330 340 338 333 332 336 341 340 340 334 342 343 341 340 341 343 343 343 342 344 342 340 340 342 340 340 340 340 340 338 335 336 336 335 335 335 337 334 327 324 319 325 336
346 342 342 342 335 328 329 337 328 328 329 333 338 338 337 338 345 345 342 342 342 342 344 346 344 344 341 342 343 342 342 343 343 342 342 341 340 339 339 336 338 339 340 340 338 337 334 327 321
340 340 340 338 335 333 328 333 324 324 324 327 331 339 340 339 345 346 347 345 343 342 343 346 345 344 344 344 341 342 342 341 340 340 339 338 338 340 340 340 339 338 338 338 335 331 329 326 325
331 340 341 338 334 332 324 327 322 321 324 329 329 331 334 337 339 343 345 343 342 341 342 345 345 345 345 341 338 338 338 336 336 334 333 332 328 328 327 334 334 333 333 333 332 331 330 329 330
336 341 339 335 332 330 324 324 324 324 326 329 327 325 332 332 339 342 343 343 342 342 344 345 344 344 341 332 334 331 326 317 316 316 316 316 316 314 314 314 313 314 318 320 323 324 326 327 330
335 340 334 329 327 326 325 324 324 325 327 326 327 329 332 334 340 342 343 341 341 341 341 342 340 339 335 323 320 317 315 314 312 311 311 311 311 310 310 310 310 310 310 311 312 314 316 318 320
334 329 329 328 326 325 325 325 324 325 326 322 325 329 332 334 337 341 340 337 335 336 335 333 333 328 322 317 315 312 310 308 308 307 307 308 308 307 307 307 307 307 308 307 307 308 309 310 311
331 328 326 324 323 325 324 325 325 324 322 321 325 329 331 333 336 336 334 330 330 329 326 324 321 318 315 312 309 308 307 306 306 307 306 306 306 306 306 306 306 306 306 306 306 306 306 307 307
326 327 325 324 323 323 325 323 322 323 320 324 326 328 329 330 330 328 327 324 325 321 317 315 313 312 310 309 308 306 306 306 306 306 305 305 305 305 305 304 304 304 304 304 304 304 305 305 306
323 326 324 324 324 324 323 324 324 321 321 324 326 327 326 325 324 324 324 320 317 314 311 310 309 309 309 308 307 306 305 306 306 306 305 305 305 304 304 304 304 303 303 303 303 304 304 304 305
324 325 330 324 323 321 321 335 322 319 321 323 324 325 324 322 320 322 318 316 313 311 310 309 307 308 308 307 306 305 306 306 306 305 305 305 304 305 305 305 304 303 303 303 303 303 303 303 304
322 339 335 329 321 322 321 331 321 319 320 322 323 322 322 321 318 316 313 312 311 310 309 309 308 307 306 306 306 306 306 306 306 305 305 305 304 304 305 304 304 303 303 303 302 302 302 303 303
329 326 327 333 322 321 323 323 322 319 320 321 321 321 320 320 317 313 312 311 310 309 309 309 308 307 306 306 306 306 306 306 305 305 305 304 304 304 304 304 304 303 303 302 302 302 302 302 303
329 327 327 320 318 320 322 321 321 321 320 320 321 320 319 318 316 313 311 310 309 309 309 308 307 307 307 306 307 307 308 307 306 306 304 304 304 303 303 304 303 303 303 302 302 301 301 302 302
320 322 323 319 319 320 322 322 321 320 319 319 320 320 319 317 315 312 310 309 309 309 309 308 308 307 307 308 308 308 308 307 307 306 305 304 303 302 302 302 302 302 302 302 301 301 301 301 301
325 325 323 319 320 319 320 320 320 317 317 316 317 317 318 317 315 313 310 309 309 309 308 308 308 307 307 307 307 307 306 306 306 306 305 304 302 302 301 301 301 301 301 301 301 301 301 301 301
321 319 319 320 320 320 319 317 320 317 319 316 314 316 316 317 316 314 311 310 309 309 308 308 308 307 307 307 307 308 308 309 308 306 305 303 301 301 301 300 300 300 300 300 300 299 299 300 300
321 320 321 320 321 320 320 320 320 319 319 316 315 314 314 314 315 314 311 311 310 309 308 307 307 306 306 306 307 308 308 307 306 304 303 302 302 302 301 300 299 300 299 299 299 299 299 299 299
318 319 319 320 320 321 318 318 318 318 315 314 315 314 314 313 313 313 311 309 309 307 307 307 306 306 306 306 306 307 307 307 305 303 303 302 302 301 300 300 299 299 298 298 298 298 298 298 298
318 321 319 320 322 319 317 318 320 314 311 312 313 314 313 312 312 312 310 309 308 307 307 307 306 306 306 306 306 305 304 303 302 302 302 301 300 300 300 299 298 297 297 297 297 297 297 297 297
320 321 319 318 318 320 316 319 319 311 311 311 312 313 313 312 312 311 310 310 309 308 307 307 306 307 306 305 304 302 301 301 301 301 300 300 299 299 298 297 297 297 296 296 296 296 296 296 296
318 320 316 317 314 317 317 315 313 311 310 311 311 312 311 310 310 309 308 307 307 307 307 306 306 306 304 302 301 301 300 300 300 299 299 299 298 297 296 296 296 295 295 295 295 296 296 296 297
317 314 318 318 318 317 315 315 317 312 311 310 310 310 310 309 309 308 307 306 305 305 304 303 304 303 301 301 300 300 300 299 299 298 298 297 296 296 295 295 295 295 295 295 295 296 296 296 297
315 317 314 315 315 316 315 315 313 313 311 310 309 309 309 309 308 308 306 305 304 303 302 301 301 301 301 300 300 300 300 299 298 297 297 296 295 295 294 294 294 294 295 295 296 296 296 296 296
312 315 316 316 315 314 315 315 309 310 309 309 308 308 308 308 307 307 306 305 305 304 302 302 301 300 300 299 299 299 298 298 297 297 296 295 294 294 294 294 294 295 295 296 296 296 296 296 296

GFSSGP_925_thetae_069.txt.gz
Theta_e
345 346 349 355 358 346 343 343 342 343 343 340 338 336 335 336 337 347 341 341 340 341 343 347 346 348 346 344 342 342 335 336 337 341 341 341 340 342 340 340 344 345 346 346 345 346 346 346 346
342 345 351 355 354 355 345 340 343 342 341 338 337 337 335 336 333 337 337 339 339 340 341 343 343 345 344 345 345 343 336 336 335 336 339 339 336 335 334 333 334 341 342 343 345 344 344 344 345
341 343 352 352 349 354 346 341 343 341 339 339 340 338 337 339 338 336 336 336 337 340 340 346 344 343 344 344 344 339 335 336 336 334 335 336 334 331 330 329 330 332 332 334 337 343 344 343 343
340 344 343 349 350 345 341 340 340 340 338 338 338 339 338 340 337 335 335 335 338 340 342 341 345 343 344 345 343 341 340 338 337 337 335 334 332 330 328 332 335 333 330 328 326 332 339 341 342
338 346 349 348 345 341 338 339 339 336 335 337 336 340 340 337 337 336 336 338 339 340 341 342 346 343 344 344 343 343 340 337 337 336 336 335 338 335 334 335 337 338 337 335 332 326 332 335 339
346 344 348 347 343 338 336 337 336 333 332 336 337 338 339 338 338 340 338 339 340 342 342 343 343 342 343 344 344 344 343 342 342 342 341 339 338 340 340 339 340 340 340 339 338 337 333 327 327
347 346 343 343 342 336 335 336 335 330 331 333 335 337 339 339 340 341 339 340 341 341 341 343 344 343 344 344 343 343 342 343 345 343 341 342 341 340 340 341 340 339 341 339 337 331 328 325 321
345 345 343 341 340 339 333 336 330 328 328 333 334 337 339 339 343 342 340 340 341 340 341 344 344 344 344 345 342 342 342 341 340 339 338 336 338 336 338 336 335 336 335 335 334 332 330 329 330
337 343 343 341 339 337 332 335 327 325 327 328 333 333 338 341 344 343 341 341 340 340 339 343 343 343 345 341 339 340 338 336 331 327 326 329 328 326 322 323 321 322 325 323 324 326 329 329 332
337 343 342 339 337 336 330 332 327 325 326 330 331 330 336 341 342 343 342 342 340 339 340 343 344 344 341 335 327 334 325 321 321 320 320 319 318 315 315 314 312 313 313 314 313 314 318 321 324
337 342 340 336 335 333 330 328 327 327 330 330 331 330 334 337 340 341 340 339 339 339 341 341 341 342 337 328 324 324 322 319 315 314 313 312 311 310 311 311 310 310 309 310 310 310 311 312 314
336 338 336 333 329 330 329 328 327 328 331 327 328 329 333 337 339 340 338 338 339 341 341 340 340 338 330 325 323 318 314 311 310 309 309 309 309 308 308 309 309 309 308 308 308 308 308 309 309
334 335 331 330 328 328 328 329 329 328 327 324 325 329 332 334 336 338 338 337 337 339 336 334 331 327 324 319 314 311 309 309 309 309 308 308 309 308 308 308 307 307 307 306 307 307 307 307 308
330 332 329 326 327 327 328 328 325 329 326 325 326 329 330 332 335 337 337 335 335 332 329 328 325 320 316 313 310 309 308 309 309 309 308 308 308 307 307 307 307 306 306 305 306 306 306 306 307
328 329 328 328 327 328 327 329 328 328 324 325 326 327 329 331 333 333 334 332 332 326 321 318 315 313 312 310 309 308 308 308 309 308 308 308 308 308 308 307 307 306 306 306 305 305 306 306 306
330 332 334 328 326 325 324 338 330 324 323 324 326 327 328 328 329 329 330 328 324 318 315 313 311 311 311 310 308 308 308 308 308 308 308 307 307 308 308 308 307 306 306 306 306 305 305 305 305
329 340 340 339 327 327 324 334 324 322 322 324 324 325 327 326 326 326 325 322 318 315 313 311 311 311 310 308 308 308 308 308 308 308 308 307 307 307 307 307 307 306 306 306 305 305 305 305 305
339 338 340 340 337 324 327 328 328 322 322 322 323 323 324 325 324 323 320 318 315 313 312 311 311 309 308 308 308 308 308 308 308 308 308 307 307 306 307 307 306 306 306 306 306 305 305 305 304
336 337 337 335 320 321 325 327 326 323 323 323 322 322 322 322 322 320 317 316 313 312 312 311 310 309 309 309 309 309 309 309 308 308 307 306 306 306 306 306 306 305 305 305 305 305 305 304 304
332 334 336 330 321 321 331 329 324 322 322 321 321 322 322 321 321 318 316 314 313 312 312 311 310 309 309 310 310 310 310 310 309 309 308 307 306 305 305 305 305 305 304 304 304 304 304 304 304
330 332 331 328 324 323 322 323 322 321 320 319 319 320 320 321 320 319 316 314 313 312 312 311 310 310 309 310 310 310 309 309 309 308 308 307 306 304 304 304 304 303 303 303 303 303 303 303 302
335 328 325 324 322 322 321 321 321 320 321 318 318 319 319 320 320 318 316 314 313 312 311 311 310 310 310 310 310 310 310 310 311 310 309 308 306 304 304 304 303 303 303 303 302 302 302 301 302
330 322 322 323 322 321 320 321 319 320 321 318 318 318 318 318 319 318 316 314 313 312 312 311 310 310 309 309 309 310 310 311 310 309 308 306 305 305 304 303 303 302 302 302 301 301 301 300 300
321 322 322 322 321 321 319 322 320 321 318 316 318 317 317 316 317 317 315 314 313 312 312 311 310 309 309 309 309 309 310 310 310 309 307 306 305 305 304 303 303 302 301 300 300 300 300 300 300
321 322 323 325 326 321 320 319 320 317 315 317 317 316 316 315 316 315 314 312 312 311 311 311 310 310 309 309 309 309 309 309 307 306 305 305 304 304 303 302 301 300 300 299 299 299 299 298 298
321 321 321 320 320 322 320 320 321 314 315 316 316 316 315 315 315 315 314 313 312 311 311 310 310 309 309 309 309 308 306 305 305 304 304 303 303 302 302 301 300 299 298 298 297 297 297 297 298
321 319 320 320 319 319 318 319 315 314 314 315 315 315 314 313 313 312 311 310 310 310 310 309 309 309 309 307 306 305 304 303 303 303 302 302 302 301 300 299 298 298 297 297 297 297 297 297 298
320 318 320 320 319 321 320 317 318 315 314 313 313 313 312 312 311 311 309 309 308 307 307 306 306 306 305 304 304 303 303 303 302 302 302 301 300 299 298 297 297 297 296 296 296 297 297 298 298
318 319 318 319 319 319 319 319 317 316 314 313 313 312 312 311 310 310 309 308 307 307 306 305 305 304 304 303 303 303 303 302 302 301 300 300 299 298 297 297 296 296 295 296 296 297 297 298 298
316 319 319 319 319 316 317 316 313 314 313 313 312 311 311 310 310 309 308 308 308 307 306 305 304 304 303 303 302 302 302 301 301 300 300 298 297 296 296 295 295 295 295 296 297 297 298 298 298

GFSSGP_925_thetae_072.txt.gz
Theta_e
337 347 347 356 367 359 348 344 343 343 342 338 334 333 333 332 341 356 341 340 340 345 345 349 346 346 344 343 342 336 336 335 339 339 339 338 337 337 336 338 344 345 345 346 345 345 345 346 345
336 344 350 362 362 358 349 340 346 342 339 335 337 336 334 335 336 339 340 339 339 342 346 345 346 345 345 344 343 337 337 334 334 338 337 335 332 331 331 332 335 336 338 341 344 344 344 344 344
339 344 357 362 361 356 348 343 342 339 337 337 338 335 337 339 336 337 337 338 339 345 345 342 342 343 343 344 342 339 338 337 335 333 334 332 331 330 331 332 331 331 330 330 333 339 343 341 342
338 348 350 354 355 350 344 342 340 339 337 335 336 337 339 337 335 334 335 336 339 344 341 342 343 344 344 343 343 342 340 338 338 337 337 338 333 333 336 337 338 336 333 331 329 330 331 338 340
336 349 358 354 349 345 340 339 339 337 336 336 335 338 340 337 334 334 335 338 339 343 340 344 344 343 344 345 343 341 338 338 338 337 338 339 339 340 340 340 340 340 340 339 337 332 329 320 325
347 349 353 353 349 340 339 336 336 333 333 334 335 339 339 337 336 336 337 338 339 341 344 345 342 344 344 345 344 343 343 342 343 343 342 340 341 341 340 342 341 342 342 339 337 334 331 324 319
347 353 353 346 348 344 338 335 334 332 331 333 333 340 338 338 339 337 338 339 339 342 343 342 342 341 344 344 343 343 344 343 343 341 342 341 340 340 340 339 338 338 337 335 333 331 330 329 330
346 352 352 348 346 343 336 337 331 329 333 333 332 338 339 338 340 339 339 339 339 341 343 344 344 345 344 343 343 341 340 339 338 337 334 333 330 333 335 331 327 328 327 320 325 326 329 328 331
339 349 349 345 343 340 335 335 329 325 327 328 330 337 337 341 341 340 339 339 339 339 344 343 343 343 343 341 341 339 337 329 325 324 326 328 322 319 316 313 314 314 315 313 313 314 317 319 322
340 348 346 342 339 337 335 335 327 325 325 328 331 333 342 342 342 341 339 339 339 340 344 343 342 342 341 336 331 329 322 321 320 320 319 318 315 313 313 311 310 310 310 310 309 310 310 310 312
341 342 342 341 339 335 333 334 328 326 329 329 330 330 336 341 341 341 340 338 337 338 342 342 342 342 335 329 325 324 321 317 313 311 311 311 310 309 309 309 309 308 308 308 308 308 308 308 308
342 338 339 337 334 333 332 330 328 328 331 326 327 329 333 335 337 339 339 338 340 340 340 341 341 339 330 326 323 319 314 311 309 309 309 309 309 309 308 308 307 307 306 306 306 306 306 307 307
340 339 336 332 331 330 330 330 329 328 327 324 326 330 331 332 336 338 338 338 341 340 340 339 337 330 326 321 315 311 310 309 309 308 308 308 308 308 307 307 306 306 306 305 305 305 305 306 306
332 337 333 329 329 329 329 330 327 329 327 325 325 328 329 330 333 336 337 336 337 337 335 331 329 324 318 313 310 309 309 309 309 308 308 308 307 308 308 307 307 306 306 306 305 305 305 305 306
331 334 332 332 331 328 326 331 328 328 326 325 325 325 327 329 333 335 336 335 335 332 330 328 320 316 313 310 309 308 309 309 309 308 308 308 308 308 308 308 307 307 306 306 306 305 305 305 305
333 333 338 331 329 326 326 335 328 326 325 324 324 323 326 328 331 333 333 332 332 325 321 317 314 312 311 310 309 308 309 309 309 308 308 307 307 308 308 307 306 306 306 306 305 305 305 305 305
334 340 341 334 333 329 328 331 325 322 323 323 323 323 325 325 328 330 331 329 323 319 315 312 312 311 310 309 308 308 309 309 308 309 308 307 307 307 307 307 306 306 306 306 306 305 305 305 305
338 336 339 341 341 336 335 330 327 329 322 322 321 321 323 324 324 326 326 324 318 315 313 311 311 311 309 308 308 308 308 308 308 308 308 307 307 306 306 306 306 306 305 306 305 305 305 304 305
336 337 339 332 328 335 337 331 331 329 322 323 322 320 319 322 322 323 322 319 315 313 312 312 311 309 309 308 308 309 309 309 308 308 308 307 306 306 305 305 305 305 305 304 304 304 304 304 304
335 337 340 334 322 325 330 333 332 330 323 320 319 319 319 320 319 319 318 317 314 313 312 312 310 309 309 309 309 310 310 310 309 309 308 307 307 306 305 305 305 304 304 303 303 304 303 303 303
335 334 335 332 325 329 330 325 324 321 320 319 318 319 319 318 318 316 316 315 313 313 312 312 311 310 309 310 310 310 310 309 309 309 308 308 307 306 305 304 304 304 303 303 303 303 303 303 302
334 331 331 331 327 332 322 324 322 320 320 318 317 317 317 318 319 316 315 315 313 313 312 312 311 310 310 310 310 310 310 310 310 310 310 309 307 306 305 304 304 303 303 302 303 302 302 301 301
330 326 330 331 326 323 323 322 320 319 320 317 317 317 317 316 318 316 314 315 314 313 312 311 311 310 310 310 310 310 310 310 311 310 309 308 307 306 305 305 304 303 303 302 302 301 301 301 300
323 324 323 322 322 322 320 320 320 319 316 316 316 316 316 316 317 315 315 314 314 313 312 311 311 310 310 309 309 309 309 310 310 310 309 308 306 306 305 304 303 303 302 301 300 300 299 299 299
323 323 328 329 326 325 320 320 319 315 316 317 315 314 314 315 314 312 311 313 313 312 311 311 311 311 310 309 309 309 309 309 309 308 306 305 304 304 303 303 302 301 300 300 299 299 299 298 299
322 323 324 325 326 324 320 320 316 314 315 315 314 314 313 313 313 312 312 312 311 311 311 311 311 310 310 309 309 309 309 307 306 305 304 304 303 303 302 302 300 300 299 298 298 297 297 297 297
322 320 320 320 318 318 319 316 314 314 315 315 313 313 313 312 311 310 310 310 310 309 309 309 309 309 309 308 308 307 306 304 304 303 303 302 302 302 301 300 299 298 297 297 297 297 296 297 297
320 318 321 319 319 322 320 319 317 314 314 313 312 311 311 310 309 308 308 308 308 307 307 306 306 306 306 305 304 304 304 303 303 302 302 302 301 300 300 299 297 297 297 296 296 296 296 296 297
318 319 318 318 320 319 318 317 315 313 312 312 311 310 310 309 308 307 307 308 307 307 306 305 305 304 304 304 303 303 303 302 302 302 301 301 300 299 298 297 296 296 295 295 295 295 296 296 297
316 319 318 319 319 317 316 317 313 312 312 311 311 311 310 309 308 307 308 308 308 307 306 306 305 304 303 303 302 302 302 302 301 301 300 299 298 297 296 296 295 295 295 295 295 296 296 297 297

GFSSGP_925_thetae_078.txt.gz
Theta_e
324 338 342 350 349 345 341 340 335 337 334 329 329 330 332 336 347 347 342 345 340 344 345 346 344 342 339 336 335 336 338 338 336 334 333 333 334 335 338 340 341 343 343 344 344 345 344 341 337
335 344 348 349 350 352 339 336 339 337 331 327 330 331 334 339 339 342 345 344 338 341 344 345 343 342 340 338 336 335 336 337 335 333 332 332 332 332 333 333 335 336 338 340 342 343 343 341 336
335 341 345 351 356 354 341 338 335 333 330 333 333 333 333 339 338 343 344 343 338 341 343 343 344 343 340 338 338 337 335 335 335 333 332 336 337 338 337 334 333 332 330 330 328 332 329 332 332
333 339 340 350 351 347 343 336 334 334 333 333 335 339 334 335 338 340 344 343 343 342 342 343 344 343 342 341 341 340 340 338 340 338 335 338 339 339 340 341 340 339 339 338 335 330 321 317 317
333 340 350 349 349 344 337 334 332 333 332 333 335 339 336 333 337 342 344 345 342 343 341 342 343 343 342 341 341 341 341 340 340 341 341 341 341 342 341 340 340 340 338 337 337 335 332 330 330
332 339 347 350 348 345 335 333 332 331 331 335 337 336 334 334 339 343 344 344 341 339 339 341 343 344 343 342 342 343 343 342 342 341 341 341 341 339 339 339 338 335 333 332 332 332 331 331 330
335 341 347 345 345 342 337 331 331 329 329 332 333 338 333 331 335 343 344 341 339 336 336 336 341 345 344 343 344 344 344 342 344 341 340 339 337 335 332 330 326 322 322 321 324 322 322 329 329
335 341 347 346 346 341 337 331 330 329 329 327 333 338 335 331 333 341 342 340 337 340 332 338 340 342 342 342 340 339 338 338 339 333 326 323 317 316 318 317 320 319 318 318 315 314 312 313 312
333 340 345 345 346 342 332 327 323 324 327 328 332 333 333 334 333 340 340 343 345 341 336 340 340 341 341 339 339 335 325 330 337 326 319 317 312 311 311 314 315 315 315 314 311 307 308 308 308
333 337 340 338 337 337 332 326 323 324 327 330 337 333 334 334 334 335 339 342 343 340 341 342 341 341 341 338 334 323 322 321 325 324 313 312 311 309 308 308 307 306 306 306 306 306 307 307 307
334 336 338 336 335 335 331 325 323 322 325 327 337 335 334 334 334 334 336 341 342 341 343 343 342 340 339 336 324 319 318 317 315 317 310 309 309 307 307 306 306 305 305 305 305 305 305 305 306
337 336 338 337 332 331 331 327 322 322 322 323 334 335 335 335 334 335 334 340 342 342 343 344 340 338 336 326 321 318 312 311 311 309 308 308 308 307 306 306 305 305 305 305 306 305 305 305 305
333 337 339 334 330 327 327 326 324 325 322 321 333 336 337 336 335 337 335 339 341 342 343 342 340 335 328 322 321 316 313 311 309 308 308 308 307 306 306 306 306 306 306 305 305 305 305 305 304
333 336 337 329 330 332 326 329 329 324 321 324 333 335 334 335 336 335 336 339 340 341 342 341 339 329 325 322 315 310 310 309 308 308 307 307 307 307 306 306 306 306 306 305 305 305 305 304 304
328 334 328 329 328 329 332 327 328 321 320 325 327 329 330 330 334 333 338 338 341 341 342 340 331 324 316 312 310 310 309 308 307 307 307 307 307 307 306 306 306 306 306 305 305 304 304 304 303
329 328 331 330 326 325 332 332 329 328 322 321 323 323 325 326 328 331 337 337 339 340 339 330 325 315 315 312 310 309 308 307 307 307 307 307 307 307 307 306 306 305 305 305 304 304 304 304 303
331 332 332 327 327 330 331 332 327 330 327 322 318 318 321 323 327 332 335 332 331 333 327 323 318 315 312 310 309 308 308 308 307 307 307 307 307 307 307 306 306 306 305 304 304 304 303 303 303
332 332 332 328 329 330 330 329 332 333 334 332 326 318 318 323 328 330 333 332 330 323 320 317 313 311 310 309 308 308 308 308 308 308 308 307 306 306 306 306 306 305 305 304 304 303 303 303 302
329 331 332 333 334 333 329 334 333 332 330 329 325 315 316 320 322 325 326 328 323 314 312 311 310 310 309 308 308 308 308 308 308 308 308 307 307 306 306 305 305 305 305 304 303 303 302 302 302
332 331 333 325 336 333 336 337 336 331 327 325 319 316 315 315 318 315 316 315 315 313 311 311 311 310 309 308 308 308 308 308 308 308 308 307 307 306 306 306 305 304 304 304 303 302 302 302 302
334 334 331 329 329 325 326 327 325 325 320 317 316 314 314 315 317 311 311 310 313 313 312 311 310 309 308 308 307 308 308 308 308 307 308 307 307 306 306 306 305 305 304 304 303 302 302 302 301
337 331 333 332 330 335 327 331 316 318 316 315 314 312 313 314 314 311 309 308 311 312 311 311 310 309 308 308 308 308 309 309 309 309 308 308 307 307 307 307 306 304 304 304 303 302 302 301 300
333 328 331 332 327 321 321 319 315 314 316 315 314 313 312 313 312 311 308 309 310 311 311 311 310 309 308 308 309 309 309 309 309 309 310 310 309 308 307 306 305 303 303 303 302 301 301 300 299
325 323 324 322 319 324 320 320 316 315 313 314 313 313 311 310 311 309 309 309 309 310 310 310 309 308 308 308 309 309 309 309 309 309 309 309 308 307 306 304 303 303 302 302 301 300 299 299 298
324 326 325 323 319 321 315 317 317 313 312 312 312 311 308 306 306 306 306 308 309 309 308 309 309 309 309 308 308 309 309 308 308 308 308 306 305 304 303 303 302 302 301 300 300 299 298 297 297
325 328 321 322 320 319 315 317 314 312 311 310 310 309 307 306 305 305 305 307 308 309 310 310 310 309 309 308 308 308 308 308 308 306 305 304 303 303 302 302 301 300 300 299 298 297 297 297 296
319 322 316 315 314 315 315 312 311 312 311 310 309 308 307 305 304 303 304 305 306 307 308 309 309 307 307 306 305 305 304 304 303 303 302 302 301 301 301 300 299 298 297 296 296 295 295 295 295
318 318 317 313 315 316 314 313 313 312 311 310 309 307 306 304 303 302 303 304 305 305 305 305 305 305 305 304 304 303 303 302 302 301 301 301 300 300 299 298 297 296 296 295 295 294 294 294 294
317 320 316 315 313 315 314 314 308 311 311 309 307 306 305 304 303 302 302 304 304 304 305 305 304 304 304 304 303 303 302 301 301 301 300 300 299 299 298 296 295 295 294 294 294 294 294 294 294
315 315 312 315 315 310 309 311 307 308 310 309 306 306 305 304 303 302 302 303 304 304 304 303 303 303 303 302 302 302 301 301 300 300 300 299 298 296 295 295 294 294 294 294 294 294 294 294 295

GFSSGP_925_thetae_081.txt.gz
Theta_e
325 335 341 350 349 340 340 339 334 336 332 327 329 329 332 338 345 342 342 343 345 341 346 343 341 338 337 338 338 338 337 336 335 334 334 334 336 338 340 342 342 342 343 343 344 344 344 344 341
331 344 348 347 348 350 339 335 337 335 328 328 329 332 333 342 340 344 344 343 339 344 343 343 343 339 337 336 336 337 337 335 333 332 333 333 333 333 334 335 335 336 338 341 341 339 340 340 339
332 341 344 349 351 354 340 336 335 330 327 331 334 331 332 338 342 344 344 342 344 342 345 342 342 340 338 336 335 336 336 334 333 334 336 337 337 336 333 334 333 332 331 330 329 326 323 327 329
334 339 338 349 353 348 342 336 332 330 330 333 334 338 333 336 343 342 344 342 340 343 341 343 343 341 340 339 339 338 337 339 336 336 338 339 339 341 341 340 338 338 339 338 337 333 332 332 333
334 338 349 349 348 344 337 333 331 332 331 334 335 338 334 333 337 343 342 340 339 342 342 343 343 341 341 341 341 340 340 340 340 340 340 341 342 341 341 339 338 338 338 337 337 335 335 336 336
332 337 347 350 347 344 335 332 331 330 330 333 335 334 334 335 343 344 342 341 340 340 340 342 342 342 341 341 342 343 342 342 341 341 339 340 341 339 338 336 334 329 330 330 327 328 333 331 325
333 342 346 345 345 342 336 330 329 329 332 334 332 336 332 336 343 344 343 343 341 339 339 342 342 341 342 343 343 341 343 343 341 341 341 338 337 334 331 325 323 323 323 322 321 320 322 319 315
331 339 347 345 345 342 336 332 330 329 329 330 332 335 334 330 343 344 345 343 341 340 340 340 345 343 343 343 345 342 342 341 338 332 330 326 324 322 318 321 321 319 319 318 316 311 311 311 310
333 340 346 345 345 342 333 329 324 325 328 328 332 330 330 332 343 344 344 345 344 342 339 343 345 344 342 341 340 340 340 337 331 324 318 313 313 315 315 317 318 317 316 314 308 307 307 308 308
333 337 340 339 339 337 333 325 322 327 330 333 336 332 331 332 341 340 341 343 344 343 340 342 344 343 341 339 336 329 334 335 326 317 314 311 309 308 309 309 307 306 306 305 305 306 306 306 306
331 337 336 337 335 335 332 324 321 326 328 331 336 333 331 332 339 339 340 342 341 341 341 342 342 342 340 337 327 325 322 324 328 314 312 310 308 306 306 306 305 305 305 305 305 305 305 305 305
336 334 336 336 329 329 331 325 322 325 325 324 331 331 331 331 334 337 339 342 342 340 342 342 341 341 339 333 323 321 318 317 321 311 309 308 307 306 305 305 305 305 305 305 305 305 304 304 304
333 336 338 334 331 327 326 325 323 322 322 325 332 332 332 332 333 336 337 340 341 340 342 342 341 340 337 324 317 313 313 312 310 308 308 307 307 306 306 305 305 305 305 305 305 305 304 304 303
330 333 336 335 331 330 328 327 325 323 322 334 334 334 332 333 332 333 333 339 340 341 342 342 340 337 334 322 319 312 310 309 309 308 307 307 306 306 306 306 306 305 305 305 305 304 304 304 303
331 336 331 329 329 329 331 328 325 323 322 332 335 333 333 333 334 333 333 339 341 341 342 342 339 333 325 322 319 312 309 308 308 307 307 307 307 306 306 306 306 305 305 305 304 304 304 304 303
329 329 333 329 326 325 330 332 326 328 324 326 330 331 332 331 333 334 336 338 340 341 342 341 337 327 324 320 312 309 308 307 307 307 307 307 307 307 306 306 306 305 305 305 304 304 303 303 303
329 331 331 328 326 328 330 332 326 330 325 324 322 323 326 326 324 330 336 337 339 341 340 338 332 322 317 312 310 309 308 307 307 307 307 307 307 307 306 306 306 305 305 304 304 303 303 303 302
330 332 328 327 328 330 331 332 330 332 332 323 319 319 322 322 323 329 333 333 337 339 338 335 323 315 312 310 308 308 307 307 307 307 307 307 306 306 306 306 306 305 305 304 304 303 303 302 302
328 330 331 329 328 329 331 332 330 333 332 332 328 321 315 319 324 330 329 329 333 334 334 327 317 312 310 308 308 308 308 308 307 307 307 307 306 306 306 306 305 305 305 304 304 303 303 302 302
329 331 331 326 334 330 330 330 332 331 329 325 326 320 314 317 321 323 322 320 324 324 325 319 315 311 309 308 308 308 308 308 308 308 307 307 307 307 306 306 306 305 304 304 304 303 302 302 302
331 331 329 332 330 324 331 330 328 325 325 318 315 314 314 313 320 317 313 313 312 317 318 315 312 310 308 308 308 308 307 307 307 307 307 307 307 306 306 306 306 305 305 304 303 303 302 302 301
334 331 330 331 331 336 327 335 321 317 319 315 313 312 314 314 316 312 310 310 309 310 311 311 310 309 308 308 307 307 307 307 308 308 308 307 307 306 306 306 305 305 304 303 303 302 302 301 300
332 330 332 330 329 328 323 325 321 314 316 314 313 312 312 312 312 308 307 310 310 310 310 310 310 309 308 307 307 307 308 309 309 309 308 308 309 308 307 306 305 304 303 302 302 302 301 300 299
326 323 323 323 324 327 324 326 324 315 314 313 312 312 310 308 310 307 307 309 309 309 309 309 308 307 307 307 307 307 308 308 309 309 309 309 309 308 307 306 304 303 302 302 301 300 300 299 298
324 326 326 329 331 329 317 322 324 312 311 312 311 311 307 305 307 305 304 305 307 308 308 308 307 307 306 307 307 308 308 308 307 307 307 307 306 305 303 302 302 302 301 300 299 299 298 297 297
325 327 323 327 321 320 317 318 316 310 309 308 308 307 305 304 303 304 304 306 307 307 308 308 308 308 308 307 307 307 307 307 307 307 305 304 303 302 302 301 301 300 299 298 297 296 296 295 295
324 326 323 316 312 316 314 312 311 311 310 309 308 306 305 304 303 303 303 305 306 307 308 308 308 307 307 307 306 306 305 305 304 303 302 301 301 301 300 299 298 297 297 296 295 295 294 294 294
318 324 320 318 316 316 312 313 313 313 311 309 308 305 304 303 302 301 301 303 304 305 305 305 305 304 304 303 303 303 303 302 302 302 301 301 300 299 299 298 297 296 295 295 294 294 294 293 294
316 317 314 313 312 314 314 313 308 310 310 309 307 305 304 303 302 301 301 302 302 303 303 304 304 303 303 303 302 302 301 301 301 300 300 299 299 297 296 295 295 294 294 294 293 293 293 293 293
315 316 314 317 316 308 309 311 306 305 309 308 306 305 303 303 302 300 300 301 302 302 303 303 303 303 303 302 302 301 301 300 300 300 299 297 296 295 295 294 294 294 293 293 293 293 293 293 293

GFSSGP_925_thetae_084.txt.gz
Theta_e
326 334 344 348 349 339 340 338 333 334 331 327 327 331 334 338 343 339 342 344 344 344 346 342 339 338 339 339 338 338 337 335 334 334 336 337 339 340 342 341 341 341 343 342 343 343 343 343 343
330 339 347 344 347 350 344 334 336 332 328 329 329 331 333 341 341 342 344 345 344 343 344 340 340 338 337 338 337 336 335 333 332 332 332 333 334 335 336 336 335 336 337 337 335 336 337 336 336
330 342 343 347 346 349 342 333 334 331 328 329 335 330 331 337 342 342 343 344 341 344 342 341 340 338 336 337 337 337 335 334 334 335 336 336 334 333 334 334 334 333 333 332 332 333 335 335 334
338 338 337 349 352 348 340 335 331 328 329 332 333 336 332 335 342 343 343 339 342 343 342 342 341 339 337 336 336 336 336 335 336 337 338 339 340 339 340 337 338 338 338 338 338 338 337 336 336
334 337 347 347 347 344 338 334 328 330 330 335 333 336 333 337 340 342 341 341 341 343 340 342 342 340 339 339 339 339 339 337 338 339 339 341 340 339 341 339 337 337 336 332 334 336 333 329 328
331 336 347 350 346 342 337 331 330 330 330 333 334 333 334 336 342 344 341 340 339 340 342 343 342 341 341 341 341 341 341 341 342 340 339 341 341 339 336 332 329 329 328 326 327 327 326 323 319
330 341 345 344 343 342 338 328 329 328 330 335 330 334 331 340 343 343 341 339 342 340 340 342 341 341 341 342 343 342 343 342 340 340 340 339 336 332 327 325 325 323 324 323 321 322 321 317 313
330 338 344 342 345 343 335 331 329 328 330 330 330 334 333 336 344 343 342 342 342 341 340 341 341 341 341 343 341 342 343 341 340 339 333 329 325 324 325 322 322 322 320 319 314 311 311 311 310
332 341 344 346 344 342 333 332 326 325 330 331 331 329 330 340 344 344 344 344 343 341 340 341 342 341 343 343 342 342 342 339 332 324 320 319 317 318 319 320 320 318 317 314 307 307 307 308 308
334 337 340 339 340 337 335 328 323 328 330 331 334 330 334 342 343 343 343 342 341 342 341 342 343 343 342 341 341 341 339 333 323 316 313 311 312 314 313 312 310 308 306 305 305 305 305 305 305
330 336 334 338 336 334 335 328 325 329 331 329 334 330 337 341 342 342 343 342 341 340 340 343 343 342 340 340 338 338 337 328 320 314 311 309 307 306 306 305 305 305 305 305 305 304 304 303 303
333 332 335 335 330 330 332 326 322 329 329 325 330 329 334 340 340 341 341 341 341 340 340 342 341 341 340 338 331 330 329 329 322 312 311 308 306 305 305 305 305 305 305 305 304 304 303 303 302
333 333 334 332 330 328 327 326 324 325 322 324 329 329 332 338 339 339 340 341 341 340 340 343 339 339 338 335 326 322 317 323 319 311 309 307 306 305 305 305 305 305 305 305 304 304 304 303 302
327 331 336 335 329 330 327 327 323 322 321 331 330 330 330 332 335 336 338 340 340 340 338 340 340 339 338 331 320 316 315 315 311 308 308 307 306 306 305 305 305 305 305 304 304 304 304 304 303
327 333 332 333 328 330 328 328 326 325 323 334 331 329 329 329 331 333 336 339 340 341 338 340 340 339 336 327 317 312 311 309 308 308 307 306 306 306 306 306 305 305 305 304 304 304 304 304 304
331 331 335 331 327 326 329 333 326 328 327 333 333 332 331 331 332 332 333 338 339 341 340 340 340 339 334 323 318 312 310 308 308 307 307 306 306 306 305 305 305 305 305 304 304 304 304 303 303
327 332 331 330 325 328 329 330 325 329 327 329 331 330 332 332 329 333 333 335 338 340 341 340 339 336 330 322 317 310 308 307 307 307 307 307 307 306 306 306 305 305 305 305 304 304 303 303 303
329 330 327 328 327 329 331 331 329 330 328 326 325 326 330 332 331 328 334 335 337 339 340 340 338 331 325 317 309 308 307 307 307 307 307 307 307 306 306 306 305 305 305 305 304 303 303 302 302
327 329 328 326 327 330 331 331 330 331 332 331 323 320 320 320 323 327 332 334 336 337 339 339 335 327 318 309 308 307 307 306 306 307 307 306 306 306 306 306 305 305 305 304 304 303 303 302 302
327 331 330 327 330 327 329 331 330 329 331 330 330 328 323 315 322 327 326 329 332 334 335 332 328 316 311 311 309 308 307 307 307 307 307 307 306 306 306 306 305 305 305 304 304 303 303 302 302
330 331 330 331 328 324 331 330 329 328 327 325 319 320 317 313 318 322 316 318 322 327 331 327 321 313 311 309 308 307 307 307 307 307 307 307 307 307 306 306 305 305 305 304 303 303 302 302 301
330 329 328 332 332 335 327 335 326 323 322 317 314 312 313 312 316 318 313 311 316 318 323 321 316 313 310 308 308 307 307 307 307 307 307 307 307 307 306 306 305 305 304 303 303 302 302 301 301
328 330 329 329 327 328 324 330 325 314 316 315 312 312 312 311 311 313 311 311 311 315 316 317 314 310 309 308 307 307 307 307 307 307 307 308 307 306 306 305 304 304 303 303 302 302 301 300 300
324 325 324 321 323 331 329 329 329 316 315 314 311 311 310 308 308 307 308 309 308 310 313 312 310 308 308 307 306 306 306 307 307 308 308 308 308 307 306 305 304 303 302 302 301 300 300 299 298
325 326 327 331 330 333 317 324 330 315 311 312 311 310 307 305 307 303 303 304 307 307 308 308 308 306 305 305 305 306 306 307 307 307 307 307 306 304 303 302 302 301 301 300 299 299 298 298 297
326 326 327 333 329 328 318 326 323 311 309 308 307 306 305 305 303 303 303 304 306 306 307 307 306 306 305 306 306 306 306 307 307 307 306 304 303 302 302 301 300 300 299 297 297 296 296 295 295
324 328 320 314 311 317 317 312 310 310 310 309 307 306 305 304 303 303 303 305 305 306 306 307 307 306 306 306 306 306 305 305 304 303 302 302 301 301 300 299 298 297 297 296 295 294 294 294 293
321 320 330 324 321 316 311 313 315 313 311 309 307 306 304 302 301 301 300 302 304 306 306 305 305 305 304 304 303 303 303 302 302 301 301 300 300 299 298 297 296 295 295 294 294 294 293 293 293
316 317 316 322 319 319 315 314 308 309 310 309 307 304 303 302 301 300 299 301 302 303 304 303 303 303 303 303 302 302 301 301 300 300 300 299 299 298 297 295 295 295 294 294 293 293 293 292 293
315 315 314 319 315 308 311 313 306 304 307 308 306 304 303 302 301 299 298 299 300 301 302 302 302 302 302 301 301 300 300 300 299 299 299 298 297 296 295 295 294 294 293 293 292 292 292 292 292

GFSSGP_925_thetae_087.txt.gz
Theta_e
328 332 346 348 356 347 349 345 335 337 333 328 329 334 336 338 342 342 341 344 344 346 345 345 342 340 340 340 340 339 337 335 336 337 339 339 340 341 340 340 341 343 341 340 340 339 338 340 339
335 337 345 349 354 354 351 338 339 336 332 332 332 334 334 343 342 344 345 345 346 346 344 341 340 340 340 338 337 335 333 333 333 333 334 335 337 337 336 336 335 335 334 333 335 336 338 337 335
330 344 351 355 352 355 352 337 338 333 332 331 336 332 333 340 343 344 343 346 346 345 341 340 339 339 338 338 337 335 334 334 335 335 334 333 333 334 334 335 336 335 335 336 336 337 337 338 334
339 340 341 355 356 352 346 338 335 331 330 329 335 336 335 336 342 343 345 346 346 343 341 342 339 337 337 338 337 336 335 335 337 339 339 339 338 337 339 338 338 338 337 337 338 336 332 333 334
334 342 351 353 351 348 342 338 332 332 333 336 333 336 336 339 341 343 345 345 344 342 342 340 340 338 337 338 337 338 337 337 338 338 340 340 339 341 339 338 337 333 333 337 332 329 327 328 331
338 340 352 354 350 344 341 336 334 332 333 335 336 336 339 338 344 345 344 343 344 342 341 341 340 340 340 340 340 340 339 340 341 339 338 341 340 338 333 331 331 329 329 330 328 326 324 321 327
335 345 348 348 347 344 342 333 333 333 334 337 333 337 334 341 344 345 344 344 342 341 341 344 339 340 340 341 342 342 342 341 340 340 340 338 333 329 328 327 327 326 325 324 324 323 318 315 321
333 343 346 346 347 346 337 332 331 332 334 330 332 337 338 340 344 345 344 342 343 341 342 342 341 341 341 343 342 341 341 340 340 338 333 329 328 327 326 325 324 323 322 319 312 311 312 311 311
333 342 344 345 346 345 333 335 330 328 333 334 334 332 331 340 344 344 344 343 343 342 341 341 341 341 342 342 340 341 341 340 335 331 329 323 322 322 322 322 321 319 317 313 307 306 307 308 308
339 341 341 341 342 342 336 333 330 332 334 333 335 331 338 343 344 343 342 342 342 342 341 342 341 341 343 341 341 342 340 333 325 320 318 317 318 319 319 317 317 315 310 305 305 304 304 304 304
333 337 336 338 338 335 336 332 329 331 335 334 337 336 342 343 343 342 342 342 341 340 340 341 341 343 343 341 340 341 337 329 318 314 311 310 311 310 306 305 305 305 305 304 304 303 303 302 302
331 332 335 336 336 334 335 329 325 331 336 322 331 336 342 344 343 342 343 342 341 339 340 341 343 342 340 337 339 339 335 325 316 313 310 307 306 305 305 305 305 304 304 304 304 303 303 303 302
331 332 333 335 331 329 328 327 326 327 328 327 331 338 342 343 342 342 342 342 341 339 339 341 344 341 338 337 336 335 334 327 319 312 309 307 305 305 305 305 305 305 305 305 304 304 304 304 303
325 330 333 335 330 331 329 327 325 323 325 331 332 335 341 342 341 341 341 341 340 339 338 340 344 340 338 337 332 327 322 328 319 311 308 306 305 305 305 305 305 305 305 304 304 304 304 304 303
326 330 333 336 332 332 328 329 327 325 325 334 332 332 335 340 340 340 341 341 341 340 339 338 340 339 338 335 326 322 317 322 315 309 307 306 305 305 305 305 305 305 305 304 304 304 304 304 303
328 331 335 333 329 328 332 342 327 326 332 335 334 332 332 332 337 338 339 340 340 340 339 337 339 339 338 334 320 315 312 311 308 308 307 306 305 305 305 305 305 305 305 304 304 304 304 304 303
327 328 334 332 328 328 332 335 327 328 330 336 336 335 334 333 331 332 335 339 339 340 339 338 338 339 337 329 319 311 310 309 308 307 306 306 306 305 305 305 305 305 305 304 304 304 304 304 304
327 332 330 334 328 329 331 331 328 330 328 331 334 335 335 334 333 332 332 336 338 339 339 338 338 338 334 325 318 310 308 307 307 306 306 306 306 306 306 305 305 305 305 305 304 304 304 303 303
326 329 331 328 327 331 333 333 330 331 333 330 328 329 330 333 328 327 333 334 337 338 339 338 337 335 331 322 312 307 307 307 306 306 306 306 307 306 306 306 305 305 305 305 304 304 303 303 303
315 324 329 331 328 329 332 333 332 331 332 332 330 325 324 320 324 329 331 334 334 336 336 337 335 333 325 320 312 308 307 307 306 306 306 306 306 306 306 306 305 305 305 305 304 303 303 302 302
317 321 329 331 328 327 330 332 331 330 329 330 328 328 328 327 320 324 325 326 328 330 334 332 334 328 323 314 309 308 307 306 306 306 306 306 306 306 306 306 305 305 305 304 304 303 302 304 301
323 325 330 331 333 335 327 337 330 328 328 326 327 319 322 318 316 321 324 319 321 324 328 327 330 326 319 310 309 308 307 307 307 307 307 307 306 306 306 305 305 304 304 304 303 303 302 301 303
325 329 330 331 332 332 327 335 332 315 320 323 319 315 314 313 314 319 320 316 315 321 321 325 324 317 310 309 309 308 307 307 306 306 306 306 306 306 305 305 304 304 303 303 302 302 301 301 301
324 326 326 324 329 336 331 333 334 324 321 316 314 314 313 311 310 313 313 309 309 315 323 323 316 309 308 308 307 306 306 306 306 307 307 307 307 307 307 306 306 305 304 302 301 301 300 300 299
326 329 334 335 335 334 319 330 331 318 312 313 314 313 311 309 310 308 308 307 306 310 313 312 309 307 306 306 306 306 305 306 306 307 307 307 306 305 304 303 302 302 301 300 300 299 299 298 298
327 329 333 333 336 333 320 328 328 312 311 309 310 310 308 308 307 307 306 307 306 307 307 307 306 305 305 305 305 305 305 306 306 306 306 305 304 303 302 301 301 300 299 298 298 297 297 296 295
325 329 323 316 312 321 322 316 313 311 311 309 309 309 308 307 306 306 305 305 305 305 305 305 305 305 305 305 305 306 306 305 305 304 303 302 301 301 300 299 298 298 298 297 295 295 294 294 294
324 323 330 329 324 320 315 314 324 314 314 311 310 309 307 305 305 304 304 304 304 305 305 305 306 306 305 304 303 303 302 302 302 301 301 300 300 299 299 298 298 296 295 295 294 294 294 293 293
319 320 320 325 322 324 321 319 311 311 312 312 310 308 307 305 304 303 301 301 302 302 303 304 304 303 302 302 302 301 301 301 300 300 300 300 299 298 297 296 295 295 295 294 293 293 293 292 292
314 316 322 328 320 312 313 322 308 307 306 311 310 307 305 304 303 301 300 300 300 300 301 301 301 302 301 301 301 301 300 300 300 299 299 298 297 296 295 295 295 295 294 293 293 292 292 292 292

GFSSGP_925_thetae_090.txt.gz
Theta_e
333 345 350 353 357 351 345 346 343 341 337 334 334 336 337 340 340 347 346 344 344 344 342 344 341 343 344 344 342 341 338 338 340 341 340 340 342 341 341 342 342 341 339 339 338 337 339 340 344
340 344 348 355 353 347 342 343 345 342 337 334 336 337 339 342 344 346 345 345 344 344 340 343 341 341 341 341 339 337 335 334 335 336 337 338 339 338 337 336 335 334 334 337 339 339 339 337 343
340 345 353 351 349 349 345 346 344 338 335 335 336 335 332 340 344 343 344 344 344 343 341 341 341 341 340 338 336 334 334 335 335 335 334 335 335 335 336 336 336 336 337 337 338 337 338 338 340
340 345 347 352 348 347 347 345 340 336 334 335 337 335 336 338 342 341 344 343 342 340 341 341 341 339 339 338 337 336 336 337 339 339 338 337 338 339 338 338 339 337 339 338 333 332 335 340 342
339 345 348 350 347 345 346 346 340 338 337 337 336 335 338 341 342 344 344 342 339 339 339 338 339 338 338 339 338 337 337 339 339 339 341 340 341 341 338 337 334 337 336 332 330 329 335 338 340
339 342 349 349 347 344 344 344 340 338 337 338 335 335 340 342 343 343 342 340 338 340 338 337 339 339 339 339 340 340 339 341 340 339 340 340 340 336 334 332 331 332 331 330 327 326 329 332 333
338 344 347 346 347 346 344 342 341 341 338 338 336 337 340 343 342 342 340 339 338 339 338 337 337 338 340 341 341 342 342 341 341 341 341 337 333 331 330 330 329 328 327 326 325 323 318 324 329
333 341 345 346 347 346 342 340 339 341 339 336 336 339 342 342 342 342 342 340 338 338 338 337 337 337 340 342 341 341 341 341 341 339 337 332 329 329 328 327 326 324 322 319 313 313 313 313 317
334 340 345 345 345 344 340 340 335 335 337 337 336 337 337 342 342 343 343 340 338 337 339 338 337 338 342 343 342 342 339 341 337 333 330 329 329 327 326 324 322 321 319 311 307 306 307 308 308
334 339 341 340 341 343 341 340 337 336 337 337 338 336 339 343 342 343 342 341 338 338 339 338 338 339 342 342 342 341 342 336 331 326 323 323 324 323 322 321 320 317 310 305 304 304 305 307 307
328 334 335 338 339 341 341 339 336 338 339 337 337 340 344 343 342 343 342 341 339 337 338 339 338 340 343 342 341 342 336 328 321 320 319 319 319 318 315 312 309 308 307 307 307 307 306 306 306
327 326 329 335 337 339 340 338 337 337 339 335 334 340 344 344 343 342 342 341 339 338 339 340 340 342 343 341 341 339 334 324 318 316 313 312 310 308 308 308 308 308 308 308 308 308 307 307 306
323 322 325 330 333 337 336 338 338 335 336 330 329 339 344 344 342 341 341 341 339 338 339 341 343 344 342 341 340 337 332 324 318 314 310 309 309 308 308 308 308 308 308 308 308 308 308 307 307
319 324 323 325 333 335 335 336 330 333 331 332 334 338 343 343 342 341 341 342 341 339 339 341 344 343 342 339 336 335 332 326 318 313 310 309 309 308 308 308 308 308 308 308 308 307 307 307 307
319 318 321 327 324 335 334 338 334 334 328 333 334 338 341 342 342 341 341 342 341 340 339 341 343 342 341 336 332 329 327 324 318 313 309 308 308 308 308 308 308 308 307 307 307 307 308 308 308
317 322 318 319 329 329 334 339 338 331 329 332 334 336 338 341 342 342 341 341 341 341 339 340 341 340 340 331 331 321 319 320 316 311 309 308 308 308 308 309 309 308 308 308 308 308 308 309 308
315 315 322 319 328 331 335 334 336 331 331 333 335 335 336 338 341 341 340 341 341 342 341 340 340 340 335 334 332 321 312 313 311 310 309 308 308 308 309 309 309 308 308 308 308 308 308 309 309
313 314 317 322 323 334 335 337 333 332 331 336 337 337 337 337 336 338 338 340 341 336 341 342 340 337 332 327 315 312 310 310 309 309 308 308 308 308 308 309 309 308 309 308 308 308 307 308 308
314 313 316 320 323 330 333 335 333 331 330 333 337 338 338 336 334 333 334 338 336 338 341 342 339 333 327 321 314 311 311 310 309 309 308 308 308 308 308 309 309 309 309 309 308 308 308 309 307
316 316 318 322 323 329 330 336 335 332 332 331 332 334 335 335 336 334 333 334 337 340 341 341 337 332 324 319 316 315 313 310 310 309 309 309 309 309 309 309 309 308 309 309 308 308 308 308 307
318 319 317 322 329 331 328 330 334 334 332 332 331 331 329 331 333 334 335 336 337 339 339 339 334 327 324 319 314 312 310 309 309 309 309 309 308 309 308 308 309 308 308 309 309 308 308 308 308
319 318 317 324 331 333 333 327 330 334 335 333 333 332 331 328 328 327 332 333 337 338 337 335 332 327 322 318 314 312 312 311 309 309 309 309 308 308 308 308 308 308 308 308 307 307 306 307 307
320 318 318 322 330 331 333 330 331 331 336 335 333 333 331 330 328 325 327 328 329 333 332 331 327 325 320 315 313 312 312 312 311 310 310 309 309 308 308 307 307 307 307 307 306 306 305 305 305
321 323 325 328 332 335 328 332 329 331 331 332 329 327 325 323 319 321 323 324 324 326 326 326 327 321 314 310 312 312 312 310 310 310 310 310 309 308 307 307 307 307 307 306 305 305 305 304 304
326 324 329 334 334 335 329 332 329 329 323 321 320 321 320 318 317 318 321 321 320 322 324 324 319 312 311 311 310 310 310 310 310 310 310 310 309 308 307 306 305 305 304 303 303 303 303 302 302
322 324 330 341 330 330 325 330 326 322 317 316 315 318 316 315 316 315 317 319 319 321 321 314 311 308 308 309 308 308 309 309 309 309 309 309 308 307 305 304 303 302 302 301 301 301 301 300 300
327 327 325 328 320 329 328 326 322 316 316 315 316 316 315 314 314 313 314 316 316 316 311 308 306 306 307 308 307 308 308 309 308 307 307 306 305 303 303 302 301 300 300 299 299 299 298 298 297
324 324 328 328 331 328 323 322 327 321 319 317 316 316 313 312 312 312 312 312 311 310 307 306 307 307 307 307 308 307 306 305 304 304 304 303 302 301 301 300 300 299 298 298 297 297 297 297 296
324 325 327 327 327 331 326 322 316 316 315 318 316 314 313 312 312 311 311 310 308 307 307 307 307 306 306 305 304 304 303 303 303 303 302 302 301 300 299 298 298 298 297 297 297 296 296 296 296
312 318 326 331 328 321 323 325 312 313 313 317 315 313 312 310 309 309 308 307 308 307 307 307 306 305 304 303 303 303 302 302 302 302 301 300 299 298 298 297 297 296 296 296 296 296 296 295 295

GFSSGP_925_thetae_093.txt.gz
Theta_e
336 344 353 355 359 349 345 344 342 343 340 335 335 336 337 337 344 358 347 340 340 342 344 340 345 347 347 344 343 340 340 343 343 342 342 344 343 342 343 343 341 338 340 339 340 340 343 345 343
340 343 349 355 351 346 346 340 343 344 340 336 336 336 336 344 345 348 345 342 341 341 341 342 342 345 344 344 342 337 336 337 338 339 340 340 340 338 336 336 335 335 338 340 340 341 342 344 343
343 344 353 351 346 345 345 342 342 343 338 338 337 336 333 342 344 344 343 342 341 339 340 342 342 342 341 339 337 335 335 335 335 336 337 337 336 337 337 337 337 337 338 336 335 338 342 344 342
339 346 349 351 346 345 343 342 343 342 337 337 336 333 335 338 340 341 341 341 341 339 342 341 342 341 340 337 336 336 337 338 338 335 336 338 338 339 339 337 338 340 335 333 334 338 341 342 342
336 347 351 345 343 342 343 343 345 343 340 338 337 334 338 339 340 340 340 340 339 338 341 341 341 340 339 338 337 337 339 340 339 341 340 340 342 338 337 336 337 335 333 331 333 338 339 341 340
341 343 350 346 344 344 342 343 345 343 340 339 337 333 340 341 340 340 340 339 337 339 337 338 339 340 340 339 339 339 340 341 339 339 339 340 339 337 334 334 334 333 331 329 329 332 333 334 335
340 346 347 345 345 345 343 342 345 344 342 340 335 333 342 340 340 340 339 337 338 338 337 334 335 338 340 340 341 341 342 341 342 342 339 337 334 333 332 331 330 329 328 327 326 325 325 328 330
337 343 347 346 345 345 343 342 342 343 343 339 336 336 343 340 339 339 339 337 337 336 335 334 335 336 338 341 341 343 341 341 341 340 334 331 331 330 328 328 326 324 322 317 315 314 312 313 317
333 341 345 345 345 343 342 343 341 340 342 339 336 338 338 340 339 340 339 337 336 335 336 336 335 338 341 341 342 342 341 340 337 335 332 331 330 328 327 324 323 321 315 308 306 306 307 309 308
332 335 337 338 340 341 341 342 341 340 341 340 337 338 340 340 340 341 340 338 336 336 338 336 336 337 340 341 341 341 341 338 333 329 327 326 326 326 324 322 318 307 305 305 305 307 308 308 308
325 331 328 331 336 338 341 342 341 340 342 341 339 339 343 341 341 341 340 338 336 337 338 336 337 338 339 338 340 340 339 332 326 323 322 322 323 321 319 316 312 310 309 309 309 309 309 309 309
322 322 324 326 329 337 340 340 341 340 341 340 338 338 343 342 342 342 340 339 336 337 337 337 337 338 339 338 342 338 334 326 322 320 318 316 314 311 311 311 311 310 310 310 310 310 310 309 309
317 319 321 322 326 330 336 340 340 340 339 337 335 337 343 343 342 341 340 338 337 337 337 338 338 339 340 340 339 338 333 325 321 316 313 312 311 310 311 310 310 310 310 310 310 310 310 310 309
316 318 321 320 322 327 330 332 337 339 338 337 335 335 341 343 342 341 340 339 338 337 338 339 340 341 340 340 339 337 333 326 320 316 313 311 311 311 311 310 310 310 310 310 310 310 310 310 310
317 317 318 318 323 322 328 333 334 336 335 336 336 337 339 342 342 341 340 340 338 337 338 340 342 342 341 340 337 335 332 325 321 316 312 310 310 310 310 310 310 310 310 309 310 310 310 310 310
317 316 317 319 317 322 323 331 331 332 335 334 336 336 338 342 342 341 340 340 339 337 338 341 344 342 341 340 334 330 328 324 320 315 312 310 310 310 310 310 310 310 310 310 310 310 311 311 311
317 317 316 315 319 317 325 325 327 327 335 335 336 336 338 342 342 342 341 341 340 339 339 341 344 342 340 336 333 332 330 326 318 313 312 310 310 310 310 311 311 310 310 310 310 310 310 311 311
318 317 316 315 316 320 322 328 328 326 334 335 336 336 335 338 342 338 338 342 340 340 341 341 342 342 337 334 332 327 322 316 313 312 311 310 310 310 310 311 311 310 311 310 310 310 310 310 310
317 317 316 315 315 317 324 328 330 329 335 336 337 337 335 335 338 340 341 341 341 342 340 343 342 341 336 331 318 317 312 313 312 311 311 310 310 310 310 311 311 310 310 311 311 310 310 311 311
317 316 316 315 315 318 321 325 328 329 335 334 337 337 335 334 336 339 340 341 342 337 334 343 342 337 332 328 320 318 315 314 313 311 310 310 310 310 310 311 311 310 310 311 311 311 311 311 310
318 316 316 316 315 318 324 324 327 327 334 333 334 336 335 334 336 336 337 338 337 334 339 341 341 336 332 328 321 320 317 314 312 312 311 310 311 310 310 310 310 310 311 311 311 311 311 311 310
319 317 316 316 317 323 325 331 326 328 334 334 335 333 333 333 333 335 335 335 335 337 340 342 340 336 332 327 322 318 315 314 313 312 311 311 310 310 310 310 310 310 310 311 310 310 310 309 310
319 318 317 317 318 323 331 329 323 325 330 334 335 334 332 330 331 331 333 335 337 339 340 341 339 334 331 325 320 317 316 314 312 311 311 311 311 310 310 310 310 310 310 310 309 309 309 308 308
321 319 319 321 323 329 330 335 324 326 326 329 332 335 334 333 330 329 327 330 334 338 340 338 336 333 327 323 320 317 314 313 312 312 312 312 311 311 310 310 309 309 309 309 309 308 308 308 307
324 322 329 333 336 336 330 333 333 332 329 328 330 332 333 330 327 324 326 328 327 331 333 334 332 329 324 319 316 315 314 312 312 312 312 312 312 311 311 309 309 309 308 307 307 306 306 305 305
325 323 332 336 333 335 332 336 330 325 322 321 321 326 325 322 321 321 324 324 325 327 329 331 330 321 317 315 313 312 312 312 311 312 311 312 312 311 309 308 307 306 305 304 304 303 303 303 302
324 328 325 325 327 332 329 327 324 322 321 322 321 321 320 319 319 319 321 322 325 327 327 324 318 315 313 311 310 310 311 311 311 311 310 310 309 307 306 305 304 303 302 302 301 301 301 300 300
323 324 328 328 341 337 327 327 325 322 322 320 321 320 318 316 316 317 319 320 323 319 317 315 311 309 309 309 309 310 310 310 309 308 307 306 305 304 303 303 302 301 301 300 300 299 299 299 298
324 326 325 329 327 338 329 320 316 317 320 320 320 318 316 316 316 316 316 315 314 313 311 310 309 309 309 309 309 308 307 306 306 306 305 304 303 303 302 301 300 300 299 299 298 298 298 298 298
319 318 323 331 333 329 330 320 318 317 319 319 317 316 315 314 315 315 313 312 311 310 309 309 308 308 308 307 307 306 305 305 305 304 303 302 302 301 300 300 299 298 298 298 298 298 297 297 297

GFSSGP_925_thetae_096.txt.gz
Theta_e
329 335 354 358 363 361 351 347 343 344 339 334 334 335 336 343 352 365 345 343 346 340 340 348 348 348 347 345 342 342 345 344 342 344 345 343 344 343 341 339 339 340 340 341 342 343 345 343 341
343 340 350 357 363 353 349 343 345 343 340 335 334 334 334 349 348 348 344 341 344 343 339 345 347 347 346 344 339 338 338 339 340 341 341 340 337 337 336 336 336 338 339 338 340 343 344 343 342
340 343 354 358 353 352 345 343 342 342 338 338 337 334 333 347 347 344 341 340 341 342 341 340 346 345 344 341 336 335 335 336 336 337 337 337 337 337 337 337 338 336 334 336 340 342 343 342 337
337 346 349 356 354 346 343 341 344 342 339 338 336 334 337 341 343 343 341 340 340 342 343 334 343 342 339 336 335 336 337 336 335 336 337 338 337 338 337 340 337 335 335 338 339 341 341 341 337
336 348 355 351 345 342 340 341 346 343 339 338 337 335 338 340 341 340 340 341 339 345 342 338 342 339 337 336 337 338 340 340 340 340 341 342 341 339 338 338 336 334 333 337 338 339 341 339 335
341 346 354 354 348 342 340 339 348 347 340 339 337 339 340 340 340 340 340 340 338 343 341 341 341 339 338 338 339 340 341 341 340 339 340 341 338 336 336 336 334 332 331 331 333 332 331 330 329
341 346 350 348 347 345 342 341 345 345 343 340 337 340 342 339 340 340 340 337 339 339 340 338 339 340 340 340 340 342 342 342 341 341 338 337 335 334 333 332 331 330 329 326 321 322 325 327 328
338 343 346 347 348 347 342 344 347 346 344 340 337 343 344 339 340 339 338 337 338 336 335 335 337 338 339 340 341 343 341 341 340 337 335 333 333 331 330 328 326 324 318 316 314 312 310 309 311
335 342 344 345 346 344 341 341 344 340 342 340 337 338 339 340 339 339 337 337 337 336 334 334 335 337 340 342 343 341 341 340 338 334 331 330 329 328 326 325 323 317 308 306 306 308 309 309 307
332 339 339 336 338 340 339 340 344 344 343 341 337 339 340 339 339 339 337 337 336 335 335 334 335 339 341 342 340 340 338 334 331 329 331 330 328 325 323 316 307 306 306 307 308 309 309 309 309
326 332 330 329 329 331 333 338 340 344 343 341 340 341 340 339 339 339 338 337 335 335 336 336 337 340 340 342 340 339 339 336 328 325 326 325 325 321 312 309 309 310 310 310 310 309 309 309 309
320 322 323 325 326 326 328 336 339 343 343 338 339 339 341 339 339 340 338 337 335 337 336 336 337 338 339 341 338 339 335 327 323 321 321 320 320 317 312 312 310 310 310 310 310 310 309 309 309
316 317 318 319 321 323 326 329 336 339 337 337 338 336 342 340 339 341 339 337 336 337 336 336 336 339 340 340 339 337 328 323 320 317 315 313 311 310 311 310 310 310 310 310 310 310 310 309 309
317 317 317 318 320 320 322 327 329 333 335 337 337 336 341 341 340 341 340 338 336 337 337 337 337 338 338 339 337 335 327 322 317 315 312 311 311 311 311 310 310 310 310 310 310 310 310 310 310
317 317 317 317 318 322 321 322 327 327 329 336 336 335 335 341 341 340 340 338 336 337 337 337 338 340 339 339 338 334 327 322 318 314 312 311 311 311 310 310 311 310 310 309 310 310 310 310 311
318 317 317 317 317 317 319 322 322 327 328 331 336 334 335 339 341 341 340 339 337 337 337 339 339 340 340 339 337 333 328 323 318 314 312 310 310 310 310 310 310 310 309 310 310 310 311 311 311
319 319 317 318 317 317 316 318 323 322 326 329 333 334 335 336 340 341 341 340 338 337 338 342 341 341 340 338 336 332 328 323 318 319 311 310 310 310 310 310 310 310 310 310 310 310 310 311 311
321 319 318 318 317 316 317 317 319 323 322 326 332 335 334 336 340 341 340 340 339 337 338 345 343 342 340 336 335 330 329 324 321 314 311 310 310 310 310 311 311 310 310 310 310 310 310 310 310
322 320 320 317 316 316 315 316 319 322 326 327 330 334 333 338 339 341 341 341 340 338 339 343 343 342 339 333 330 327 325 319 315 312 311 310 309 310 310 311 311 310 310 310 311 311 310 310 311
323 322 320 316 316 315 315 315 317 324 328 328 335 335 334 332 338 340 338 335 335 341 341 343 341 341 338 334 334 333 317 314 313 312 311 310 310 310 310 311 311 310 310 310 311 311 310 311 311
321 321 320 317 316 316 315 315 316 320 325 332 333 333 334 333 333 338 335 336 341 340 339 342 341 340 337 335 331 321 315 314 313 311 310 310 310 310 310 311 311 310 310 311 311 311 311 311 310
324 320 319 319 320 317 315 318 318 322 324 330 333 333 334 332 333 337 339 340 341 338 335 342 340 336 335 332 321 319 317 314 313 312 310 310 310 310 310 310 310 310 311 311 311 311 311 310 309
323 321 322 322 319 317 317 321 323 325 324 332 332 331 331 331 331 335 337 338 339 336 338 343 337 336 334 331 321 320 315 314 313 312 311 311 311 310 310 310 310 310 310 310 310 309 309 309 308
323 322 323 323 323 323 319 327 330 327 325 332 332 332 330 329 329 328 331 335 335 338 341 342 337 334 332 328 323 317 316 315 313 311 311 311 310 310 310 310 310 310 309 309 309 309 309 308 308
324 325 325 326 328 325 328 328 326 326 327 326 330 330 330 328 327 326 327 330 335 340 340 339 336 333 332 326 320 318 316 313 312 312 312 311 311 311 311 310 310 310 310 309 308 307 306 306 305
326 325 327 327 335 334 328 333 332 329 325 324 327 331 332 328 322 324 326 327 331 332 335 335 333 328 326 321 318 315 313 312 312 312 312 312 312 312 310 309 308 307 306 305 304 303 303 303 302
324 329 323 325 325 332 328 328 328 327 323 323 323 323 323 320 319 321 323 325 327 329 330 331 327 324 320 316 314 313 312 312 311 312 311 310 310 309 307 306 305 303 302 302 302 301 301 300 300
324 324 329 326 334 332 326 317 318 321 321 321 319 317 317 316 316 319 320 325 328 328 328 322 319 315 313 311 311 311 311 311 311 310 309 307 306 304 304 303 302 302 301 301 300 299 299 299 298
324 323 327 327 330 336 325 319 316 319 319 319 317 316 315 315 315 316 316 316 317 316 313 312 311 310 310 310 310 310 310 308 307 306 306 304 304 303 302 301 301 300 300 299 299 298 298 298 298
320 320 323 330 329 329 329 319 315 318 317 316 316 319 316 315 314 313 312 312 312 311 310 309 310 310 309 309 308 307 306 306 305 304 304 303 302 302 301 300 299 299 298 298 298 298 297 297 297

GFSSGP_925_thetae_099.txt.gz
Theta_e
329 338 348 356 353 354 352 348 341 339 336 331 331 334 344 346 355 348 348 349 344 336 346 346 348 348 348 346 346 346 345 344 345 345 345 345 343 340 339 339 339 339 340 341 343 343 342 340 340
335 342 343 349 355 352 348 345 347 338 333 329 331 332 338 352 348 346 343 346 340 336 345 347 348 347 344 342 342 343 343 342 342 342 340 337 337 337 336 336 337 337 338 341 343 343 342 338 336
334 342 347 350 353 354 348 339 339 337 333 334 334 330 340 351 345 344 344 341 340 337 345 347 346 346 343 339 337 337 337 337 338 337 336 337 337 337 337 338 335 336 338 341 342 342 341 334 334
336 342 342 353 355 347 343 341 340 340 337 334 331 337 334 344 343 341 343 342 341 338 342 344 345 344 340 336 335 335 336 336 336 336 337 337 338 339 340 337 337 339 340 340 341 340 340 332 333
333 341 350 352 351 345 337 337 345 346 343 340 331 336 337 340 342 339 340 342 340 339 338 343 342 339 336 335 337 338 337 337 338 340 340 341 340 340 338 336 335 336 338 338 339 337 334 330 331
335 339 351 355 347 344 339 336 346 346 343 342 337 338 340 340 340 340 339 341 341 339 339 341 339 337 336 338 339 340 341 342 342 340 342 340 338 338 337 335 333 332 333 333 332 329 328 328 328
335 340 347 348 348 345 342 341 341 344 346 347 339 341 339 336 340 340 341 343 343 340 340 340 338 338 338 339 341 342 342 342 340 341 340 338 336 336 335 333 332 330 327 322 321 321 323 325 321
332 337 343 343 347 347 342 343 345 346 347 342 339 343 341 337 340 339 340 342 341 339 337 337 338 338 339 340 342 342 342 342 341 339 337 335 333 332 331 328 326 321 318 315 311 308 307 309 310
330 336 341 341 344 344 339 339 342 339 343 341 340 338 338 338 340 337 337 338 339 336 332 335 337 336 338 341 342 341 342 339 336 331 330 328 329 327 324 324 319 311 307 308 308 309 308 308 308
328 335 337 336 336 337 332 329 343 340 339 341 339 337 338 338 338 335 336 335 335 335 335 333 335 337 341 342 340 340 338 334 330 330 329 328 326 323 314 309 307 307 308 309 309 308 308 308 308
321 328 328 328 327 326 326 325 341 344 344 345 343 339 338 338 337 335 335 335 334 333 334 334 337 340 340 340 338 338 333 326 326 331 330 327 325 311 306 309 310 309 309 309 309 309 309 308 308
315 318 324 326 325 324 323 324 329 341 342 341 341 337 338 337 337 335 334 334 332 332 334 334 338 341 341 337 336 336 335 328 324 328 326 323 320 313 310 309 310 310 310 310 309 309 309 308 308
315 314 317 316 317 318 318 320 324 338 333 335 337 341 340 337 336 337 335 334 334 334 334 334 338 340 341 336 337 339 331 326 321 321 319 318 317 311 311 310 310 310 310 310 309 309 309 309 309
313 314 315 315 315 316 320 320 320 324 336 337 338 340 339 339 339 338 335 334 334 335 335 336 339 340 341 337 339 333 324 322 319 316 314 312 310 311 310 310 310 310 310 310 309 310 310 310 309
316 315 314 314 315 315 317 318 320 323 328 335 335 335 337 339 339 339 337 334 335 336 335 337 338 339 340 339 333 326 324 322 318 314 311 311 311 310 310 310 310 310 309 309 310 310 310 311 310
318 316 315 314 314 315 315 316 317 318 320 324 333 332 333 339 338 339 338 334 335 336 336 336 339 340 338 337 332 327 323 322 317 313 311 311 311 310 310 310 310 309 309 309 310 310 310 311 311
316 317 315 315 315 314 314 315 314 317 320 321 326 332 333 331 336 338 338 335 336 336 337 337 338 339 338 337 332 324 323 322 317 312 311 310 310 310 310 310 310 309 309 310 309 309 310 310 310
323 321 319 317 316 316 314 313 314 316 320 320 319 332 333 333 335 338 339 337 336 336 338 339 339 339 337 333 328 327 324 319 317 315 311 310 310 310 310 310 310 309 309 310 309 310 310 310 310
321 322 322 320 318 315 314 313 312 313 315 318 320 326 333 333 334 338 338 337 336 336 340 340 339 339 338 334 333 328 328 329 321 315 311 310 310 310 310 310 311 310 310 310 310 310 310 310 310
321 321 320 318 317 314 313 313 313 311 315 317 320 322 326 331 339 338 339 337 337 339 340 340 339 339 337 336 334 331 332 328 317 313 311 311 309 310 310 311 310 310 310 310 311 310 310 310 311
322 321 321 321 318 317 313 314 312 313 312 317 324 329 331 334 336 337 338 337 336 338 342 340 340 339 337 336 333 332 331 320 313 312 311 310 309 309 310 310 310 310 310 310 310 311 311 311 310
325 322 322 322 320 320 314 315 312 312 313 316 324 328 333 334 331 333 336 336 335 338 342 338 335 336 335 334 332 331 324 313 313 312 311 310 310 310 309 310 311 310 310 310 310 311 311 310 310
324 323 322 322 322 320 319 315 313 314 319 320 322 327 332 332 330 331 337 335 336 338 338 337 334 334 334 333 333 322 315 314 313 312 310 310 310 310 310 310 310 310 310 310 310 310 309 309 309
323 324 323 322 322 322 318 318 317 325 325 323 323 328 330 329 329 331 335 338 335 336 340 338 336 334 334 333 329 319 318 314 313 311 311 310 310 310 310 310 310 310 310 310 309 309 309 308 308
325 324 324 321 325 325 325 324 321 325 326 325 325 326 327 326 325 328 331 333 334 338 338 337 336 332 332 328 322 320 318 314 313 312 311 311 310 310 310 310 309 309 309 309 309 309 308 307 306
325 324 326 324 329 330 322 326 328 324 325 324 325 327 326 325 324 325 327 329 333 336 337 335 333 332 330 326 321 317 316 314 313 312 311 311 311 310 310 310 309 309 308 307 305 304 304 303 302
323 329 321 322 322 328 325 325 326 325 326 324 325 322 321 321 323 323 323 327 330 333 333 334 333 331 328 322 318 316 312 312 312 312 312 311 311 310 310 308 307 305 304 303 302 302 301 300 300
323 324 329 325 333 324 321 318 321 328 326 322 320 324 321 321 320 321 322 325 327 327 328 327 326 321 317 316 313 311 311 311 311 310 310 310 309 308 307 305 304 303 302 301 300 299 299 299 298
320 320 327 327 326 333 325 319 318 318 317 316 313 314 316 314 314 314 312 312 314 316 318 317 315 312 311 312 311 311 311 310 309 308 306 306 304 303 303 302 302 301 300 299 299 298 298 297 297
316 317 324 328 330 327 326 320 313 314 314 315 314 314 312 311 311 310 309 309 309 309 310 310 310 310 310 310 310 309 307 306 306 305 304 304 303 302 301 300 300 299 298 298 298 297 297 297 297

GFSSGP_925_thetae_102.txt.gz
Theta_e
334 336 344 352 345 348 350 346 340 342 337 329 331 336 341 348 347 336 346 345 346 339 347 348 348 347 347 347 348 346 347 346 346 345 344 343 342 341 340 340 339 340 341 344 341 340 341 342 342
332 341 341 344 349 348 342 345 346 342 337 327 336 340 345 353 347 343 344 345 343 342 347 348 347 346 347 346 346 344 344 345 343 341 341 339 337 337 337 336 337 339 342 343 342 341 341 341 340
331 341 346 348 348 348 342 339 339 339 332 332 331 334 344 349 344 345 344 342 337 346 343 346 347 344 343 343 343 342 342 342 340 337 336 337 336 337 336 336 337 340 343 342 342 340 340 337 341
335 340 340 352 352 347 340 335 339 342 339 337 331 337 338 342 343 343 343 339 340 344 344 346 345 341 341 339 338 337 338 337 336 337 337 337 340 338 338 339 340 339 341 341 340 339 338 334 338
332 340 348 351 352 347 342 338 336 344 345 341 335 338 342 341 341 342 339 337 340 345 344 345 345 341 338 336 336 336 336 336 337 338 338 343 341 339 338 338 339 339 339 339 338 336 335 330 333
331 336 350 352 347 344 340 336 340 346 343 342 343 338 340 340 341 340 339 337 335 343 344 343 342 338 336 337 337 337 338 339 340 342 341 340 340 338 336 335 336 336 336 335 333 332 329 325 329
332 339 345 347 347 346 343 339 338 342 346 346 341 341 338 337 338 341 340 339 338 341 343 341 338 336 338 339 340 342 342 342 341 341 340 339 338 337 335 334 332 331 330 328 326 325 322 320 324
331 334 340 341 346 346 341 345 343 346 347 341 340 344 343 338 338 341 340 340 341 340 340 337 336 338 339 339 341 343 343 342 342 340 338 337 335 334 332 330 328 326 322 319 314 314 314 313 315
327 334 338 339 342 342 337 335 341 338 340 340 341 338 337 339 340 341 341 341 340 340 339 336 336 337 339 342 342 342 342 341 339 337 335 331 328 325 322 321 321 318 317 312 310 309 307 308 308
325 331 335 334 334 336 329 326 341 341 338 340 340 337 337 338 337 340 340 339 338 339 338 336 336 337 341 342 342 341 340 337 333 331 328 326 324 320 314 312 315 315 314 310 309 308 308 308 307
317 327 328 328 327 327 325 324 329 340 341 340 341 338 340 339 336 338 338 337 336 337 337 335 335 338 341 341 340 338 335 331 330 328 327 324 319 308 307 310 310 309 309 309 309 308 308 308 307
314 314 315 323 325 326 324 320 332 341 341 341 341 336 338 339 339 336 336 335 334 334 332 332 334 339 341 340 338 332 329 329 330 330 328 324 309 306 309 309 309 309 308 309 308 308 308 308 308
313 313 314 314 315 315 316 318 319 336 337 338 340 339 339 339 338 335 335 334 333 333 333 332 336 340 340 338 337 330 326 327 329 329 328 321 312 308 309 309 310 309 309 309 309 309 308 308 308
312 315 314 314 314 314 315 317 319 323 334 338 339 340 338 338 338 337 335 333 332 332 333 335 338 339 339 336 335 333 325 325 324 327 322 319 312 310 310 310 310 310 310 309 309 309 309 308 308
315 316 314 314 313 314 315 315 316 319 333 334 336 337 339 338 338 337 336 333 332 332 333 334 338 340 339 336 336 335 327 321 321 320 319 317 310 310 310 310 310 310 310 309 309 310 310 309 309
317 315 316 314 313 314 314 313 313 314 316 328 332 338 340 338 338 338 336 334 332 332 333 335 338 340 339 336 338 330 322 319 316 313 312 310 310 310 310 310 310 309 309 309 310 310 310 310 309
316 317 316 316 315 315 314 314 313 312 313 316 317 330 336 338 337 334 337 334 333 333 333 337 338 339 339 338 338 324 321 320 316 313 311 310 310 310 310 310 310 309 309 309 309 310 310 310 310
321 321 320 320 317 317 315 313 312 311 312 313 315 318 330 337 338 336 337 334 334 334 335 338 338 339 339 335 326 322 319 318 317 313 311 310 310 310 310 310 309 309 309 309 309 309 309 309 310
319 320 320 319 319 317 317 315 312 311 310 310 311 314 322 330 336 337 336 334 335 335 337 338 338 338 336 327 321 318 319 318 321 314 311 310 310 310 310 310 309 309 309 309 309 309 310 310 310
321 321 321 318 317 318 317 315 312 311 311 310 311 314 319 327 331 335 335 335 335 336 337 337 337 336 330 326 322 321 323 320 318 314 311 310 310 310 310 310 310 309 309 309 310 310 310 309 310
322 322 321 322 320 316 315 317 313 311 310 310 310 313 317 322 337 338 335 335 335 338 338 336 336 334 330 327 326 325 323 322 321 315 311 310 310 310 310 310 310 310 310 310 310 310 310 310 310
324 321 323 324 324 323 314 320 314 311 310 311 316 317 326 335 338 337 336 335 336 339 339 336 332 331 331 330 328 329 327 324 324 316 311 310 310 309 310 310 310 310 310 310 309 310 311 311 310
323 323 324 323 323 322 321 319 314 313 317 321 319 320 321 333 338 338 336 336 336 337 339 334 332 330 331 333 331 330 330 327 324 314 311 310 309 309 309 310 310 310 310 310 310 310 310 310 310
321 325 322 321 322 323 323 318 315 323 323 323 323 322 321 330 332 336 337 336 336 336 337 333 332 332 333 332 329 331 331 329 314 312 312 310 309 309 309 310 310 310 309 310 310 310 309 308 308
323 324 325 319 325 327 322 322 316 322 323 324 324 323 324 323 328 333 334 333 335 337 336 333 334 332 331 328 328 331 327 317 314 313 312 309 309 310 310 310 309 309 309 309 309 308 308 307 306
324 325 326 324 328 325 323 326 327 319 321 323 321 322 325 325 326 329 334 333 334 337 337 336 335 332 330 327 330 328 318 318 315 315 312 310 310 310 310 309 309 309 309 309 308 307 305 304 303
323 326 321 322 322 322 325 324 322 324 324 324 324 322 323 324 325 326 327 330 334 335 334 333 331 330 329 329 325 321 319 315 314 312 312 311 310 309 309 309 309 308 306 305 303 302 302 301 300
322 320 327 325 328 321 323 320 322 328 326 324 326 325 322 322 322 323 323 322 327 330 329 331 330 328 327 323 319 316 314 313 313 312 310 310 310 308 307 307 306 304 302 301 301 300 299 299 298
314 317 326 323 327 329 322 319 316 316 318 316 321 324 319 317 315 311 309 310 315 319 320 317 320 319 317 311 311 311 310 310 310 310 309 308 307 306 305 303 302 302 301 300 299 298 298 297 297
311 314 322 324 326 326 324 321 311 312 313 314 313 313 312 312 311 308 307 307 307 309 311 310 311 311 311 310 310 309 308 308 307 306 305 304 304 302 302 301 300 300 299 298 298 297 297 297 297

GFSSGP_925_thetae_108.txt.gz
Theta_e
337 336 347 345 337 342 342 339 333 337 338 331 330 329 329 335 335 330 342 344 341 332 347 345 347 348 349 349 349 348 347 346 346 346 343 341 340 339 338 338 343 340 339 342 341 342 340 339 338
336 340 342 340 339 338 335 339 341 338 336 333 332 335 341 348 344 342 344 343 341 332 343 348 347 348 348 348 348 347 346 346 345 341 340 340 338 338 337 339 343 342 341 341 340 342 339 336 334
332 340 342 345 343 339 335 331 335 337 335 335 333 336 343 348 343 342 343 344 340 337 346 347 347 346 347 347 346 346 345 343 341 340 338 337 337 336 338 341 342 341 340 337 341 340 338 336 334
335 337 338 350 348 344 334 331 334 338 336 338 333 337 338 339 343 343 343 344 341 343 348 346 345 344 347 347 345 343 342 340 339 337 336 336 336 337 339 343 342 341 339 337 340 339 337 334 332
333 337 345 348 349 346 341 339 338 340 339 340 339 338 343 338 343 343 344 343 343 347 346 345 344 346 346 345 341 341 341 338 337 337 337 336 337 338 338 340 340 340 338 336 340 338 335 332 330
331 335 347 347 346 343 339 337 337 341 342 341 339 341 340 338 343 345 345 342 346 346 345 345 343 343 345 343 340 339 338 337 337 337 337 337 337 339 338 338 337 337 336 333 335 336 331 327 324
331 336 342 345 345 345 342 339 339 339 341 343 340 340 337 337 342 345 345 342 345 346 345 344 342 340 340 339 338 337 337 337 340 341 339 337 337 337 337 337 336 335 333 330 332 333 327 323 321
325 331 337 338 343 343 338 339 341 343 342 340 339 341 341 336 341 345 344 344 344 344 343 341 340 339 337 337 337 337 337 339 341 340 337 336 336 336 335 333 330 329 327 325 328 327 322 320 319
325 331 333 337 340 340 331 328 334 336 338 338 339 336 335 338 338 342 343 343 345 345 344 342 338 336 336 336 336 338 340 340 339 338 336 336 334 333 330 326 322 322 322 323 325 323 318 317 316
321 329 330 331 332 332 329 326 322 326 327 335 339 335 338 338 337 339 340 340 341 342 342 340 336 335 335 336 339 341 342 340 338 337 336 333 331 327 326 323 321 319 319 320 322 310 306 305 309
316 322 325 320 319 319 322 320 321 328 331 332 335 337 339 339 338 338 339 339 340 340 341 338 335 335 337 338 341 342 341 340 337 333 331 328 324 322 319 318 317 317 316 310 308 307 306 306 306
312 312 312 313 315 314 316 316 318 325 324 324 330 333 339 339 339 339 339 339 338 339 340 336 334 335 338 339 342 342 340 339 334 329 324 322 320 316 316 314 313 312 308 307 307 307 307 307 307
311 311 312 313 313 313 312 313 313 315 320 323 331 334 338 339 340 340 339 339 338 338 338 335 333 335 339 341 341 342 340 337 329 325 321 318 313 313 312 308 308 308 307 307 307 307 307 307 307
312 312 313 313 313 312 313 313 313 315 313 316 332 336 335 339 339 340 339 338 337 337 337 335 332 333 339 341 341 340 338 331 327 324 322 311 307 309 308 308 308 308 308 307 308 307 308 308 307
315 315 313 314 313 313 312 314 312 312 311 316 327 335 335 336 338 338 338 337 337 337 337 335 332 333 339 341 340 339 335 329 326 326 324 308 308 308 308 308 308 308 308 308 308 307 307 308 307
316 314 318 317 314 315 314 318 314 311 311 310 309 318 335 335 335 337 337 337 335 336 336 335 332 333 338 341 339 337 333 328 328 327 325 309 308 308 309 309 308 308 308 309 308 308 308 308 308
315 320 318 318 314 316 314 317 314 312 311 310 308 307 320 335 336 335 336 338 335 334 333 334 330 332 336 340 339 338 332 329 328 328 326 313 308 309 309 309 309 308 308 309 309 308 309 308 308
321 319 319 318 318 317 317 316 314 313 311 309 308 306 306 326 336 336 335 336 335 333 332 332 332 333 336 339 340 338 331 329 329 328 326 318 310 309 309 309 309 309 309 309 309 309 309 309 309
317 320 320 319 318 318 317 317 315 314 311 309 307 307 306 307 329 336 336 335 334 333 332 331 331 335 337 339 339 336 333 328 327 327 326 320 312 310 309 309 309 308 309 309 309 309 309 309 309
320 321 321 319 318 317 319 319 318 315 313 310 310 307 305 306 308 327 336 335 334 332 332 332 332 336 335 336 337 332 332 328 324 321 324 320 315 310 309 309 309 308 308 308 308 308 308 309 308
320 321 320 321 321 320 321 319 315 314 310 308 312 314 314 315 316 314 333 335 333 332 332 332 333 333 332 337 333 331 328 323 316 314 311 309 309 309 309 309 309 309 309 308 308 308 308 309 309
320 319 321 324 322 325 321 322 318 315 313 318 318 317 317 317 317 317 330 333 333 332 332 333 333 334 334 334 330 329 324 316 313 310 308 308 309 308 309 309 309 309 309 308 308 309 309 309 308
318 318 322 321 322 318 322 321 314 317 320 320 320 320 319 319 317 322 331 333 333 333 333 333 334 334 335 332 330 325 321 318 316 312 313 311 311 312 308 309 309 309 309 309 309 309 309 309 309
318 321 317 315 315 321 324 320 317 322 322 321 321 321 323 324 324 328 332 333 333 333 334 334 333 332 331 328 325 322 321 319 320 319 316 316 315 310 310 309 309 309 309 309 309 309 309 309 309
320 319 319 317 316 318 322 325 322 321 323 326 324 324 325 326 330 330 330 331 332 334 334 332 330 328 326 326 324 323 322 325 324 322 321 313 311 312 307 308 309 309 309 309 309 309 309 309 308
321 320 321 327 324 322 319 323 324 319 319 323 323 322 324 326 327 329 331 331 332 334 332 331 330 328 327 326 325 324 326 324 321 323 324 320 316 311 309 307 308 309 309 309 309 308 308 307 306
317 320 319 321 315 321 314 321 322 318 317 319 323 321 320 319 322 323 325 329 334 332 331 330 330 328 327 326 325 326 325 326 322 320 321 318 314 316 313 308 308 308 308 308 308 307 306 304 301
319 316 321 317 319 324 320 316 319 318 318 319 322 319 315 313 313 316 316 318 325 329 329 330 328 326 325 326 321 324 325 324 322 320 316 313 312 310 308 307 308 308 307 306 305 303 301 300 299
310 310 317 318 321 321 324 318 314 314 316 319 320 317 314 312 310 311 312 312 319 320 322 323 323 324 324 322 323 322 320 319 316 313 312 311 309 308 308 307 307 305 303 302 301 300 299 298 297
310 309 314 317 319 320 320 321 311 311 313 315 314 314 311 309 307 307 306 306 308 308 308 308 310 310 312 313 313 311 311 311 309 308 307 307 306 305 304 303 302 301 300 299 299 298 297 297 296

GFSSGP_925_thetae_114.txt.gz
Theta_e
339 339 350 352 349 341 337 332 332 333 341 338 338 336 337 337 339 345 346 345 342 332 349 351 349 349 350 351 350 350 348 347 347 346 344 342 340 345 342 341 343 344 343 341 339 338 338 338 338
339 341 347 347 344 341 337 336 335 335 337 339 337 339 339 339 346 348 346 345 343 335 347 350 348 348 348 349 349 348 347 347 346 344 342 341 339 340 345 342 343 342 343 340 339 337 336 337 338
335 342 346 344 343 341 336 335 334 336 337 338 339 341 344 348 348 347 346 344 337 341 348 346 347 346 348 349 349 348 347 346 345 342 340 339 338 339 345 343 342 342 342 340 338 337 335 335 336
337 341 343 348 343 341 337 334 335 337 336 338 340 341 345 344 347 346 345 340 340 348 348 350 347 346 346 348 348 347 346 345 343 341 339 338 337 340 344 342 340 342 341 339 337 335 333 333 333
337 339 337 343 339 338 341 339 339 340 338 339 340 341 345 345 346 346 344 338 343 344 344 348 346 348 348 348 347 347 345 342 341 339 337 337 339 345 342 342 339 342 340 338 337 334 332 331 330
333 336 332 331 331 336 340 339 341 341 340 340 342 343 346 345 347 346 343 340 342 341 341 345 345 346 347 347 347 345 343 342 339 338 337 338 343 343 340 341 341 340 340 337 333 331 330 329 329
329 331 325 325 327 332 335 338 339 340 340 342 342 343 345 346 346 345 344 341 339 341 345 347 347 346 345 344 345 342 340 340 338 337 338 339 342 341 341 340 337 340 338 334 331 328 328 328 328
329 331 327 329 328 329 330 334 340 338 338 334 340 344 346 345 346 345 344 341 338 342 344 346 346 345 345 344 342 340 340 338 337 335 340 340 340 339 336 337 335 337 336 331 328 325 325 326 327
331 326 324 326 327 327 330 333 332 331 333 329 332 338 340 344 346 345 344 343 342 344 344 345 346 344 344 341 340 339 337 337 338 337 337 337 339 336 336 335 333 335 333 328 326 325 325 324 324
325 325 321 324 324 325 326 328 328 328 331 331 330 334 339 344 346 346 345 343 344 344 344 344 343 341 340 336 336 333 333 340 341 339 337 336 336 334 331 331 328 332 329 325 326 326 323 321 320
320 320 318 319 321 322 322 322 321 323 325 326 329 327 339 343 345 345 344 342 343 343 343 343 342 340 336 332 332 332 334 341 340 339 336 333 332 329 326 326 326 329 325 320 316 317 319 321 322
317 316 317 317 316 316 316 316 316 316 317 319 321 320 327 340 345 345 344 343 342 342 342 341 341 339 332 330 332 336 342 340 339 337 335 331 330 327 325 323 324 325 320 311 311 313 318 320 320
318 319 318 318 318 319 319 320 319 318 317 316 317 320 325 333 338 345 345 343 341 340 341 342 341 338 331 330 334 342 340 339 338 338 333 329 327 324 323 321 319 317 311 309 310 311 313 314 316
319 320 321 320 320 319 320 320 317 317 316 316 316 317 319 323 332 339 343 342 341 340 340 342 340 337 330 332 340 340 340 338 338 335 330 326 324 322 320 318 315 311 310 310 310 311 311 311 311
320 321 321 321 320 320 317 320 319 318 318 317 317 318 318 325 325 332 340 343 341 340 340 341 339 337 331 333 340 340 339 337 337 332 326 323 321 319 317 314 311 310 310 310 310 310 310 311 311
321 321 324 322 321 319 319 322 320 319 319 320 320 319 319 317 330 334 338 341 341 341 340 339 338 336 332 334 340 340 337 337 336 328 323 321 319 315 312 311 310 309 309 309 310 310 310 310 311
323 324 323 323 321 321 321 323 321 321 321 321 321 320 319 319 318 335 339 341 341 341 339 339 338 336 333 335 339 339 338 338 334 326 323 319 315 312 311 310 310 309 310 310 310 311 311 311 310
322 323 322 323 322 321 323 323 322 322 321 322 322 320 320 319 317 320 338 341 341 342 340 340 339 337 334 337 338 338 338 336 331 326 324 317 313 311 310 310 310 310 310 311 311 311 311 311 311
321 322 322 322 321 322 323 322 321 320 319 317 319 320 319 318 316 314 323 337 340 340 340 339 339 337 335 337 336 336 334 334 330 327 325 316 312 309 309 310 309 311 311 311 311 311 312 312 311
319 321 322 322 322 323 321 321 319 321 321 321 322 322 322 322 320 320 319 332 338 340 340 339 338 338 336 335 336 335 333 331 330 328 326 318 310 309 308 308 309 311 312 312 312 312 312 312 311
318 319 321 324 322 322 321 321 321 321 321 320 320 323 323 323 323 322 322 326 334 338 338 339 339 338 337 334 335 336 333 328 324 320 322 322 314 308 308 308 308 310 311 312 312 313 313 312 311
320 318 322 325 323 323 320 325 320 320 322 321 321 321 324 325 324 324 325 324 332 336 337 337 338 338 337 334 333 332 331 324 323 321 321 322 320 309 309 306 306 307 308 308 309 310 312 312 311
318 321 324 322 323 323 322 325 321 321 321 320 320 322 323 325 327 326 325 324 326 334 336 335 335 336 335 333 332 332 331 328 322 322 319 316 317 312 315 310 308 307 307 307 308 309 310 311 311
319 323 321 321 322 325 323 323 322 322 320 319 320 322 321 324 330 331 331 328 326 334 335 335 335 335 334 332 331 331 327 322 317 313 312 314 315 316 314 310 309 310 310 309 308 307 309 310 311
320 324 334 328 331 327 322 323 321 319 318 319 325 321 320 321 325 331 334 333 333 333 334 334 334 328 330 331 329 325 324 320 317 313 313 315 316 317 314 311 310 311 310 310 307 309 309 311 311
320 324 330 336 328 330 324 330 324 317 319 323 322 320 318 319 321 325 333 334 334 334 333 330 327 326 327 327 323 322 322 321 320 314 313 315 315 314 314 311 311 309 309 306 306 307 308 308 309
318 321 323 327 323 327 325 318 320 319 321 322 322 319 317 317 318 321 324 331 330 329 328 328 327 327 325 323 321 322 322 321 321 319 318 317 315 314 314 313 311 308 306 306 306 307 307 307 308
318 319 323 326 331 327 319 317 322 323 321 320 321 318 315 314 315 316 317 319 323 325 327 327 327 326 324 323 323 323 322 320 321 320 319 317 315 314 315 312 307 307 309 309 309 309 306 305 303
316 316 317 323 324 325 322 318 316 318 319 318 318 318 314 312 314 314 313 312 312 315 317 320 320 319 322 323 323 323 320 320 319 318 316 316 314 314 314 312 311 311 310 308 306 303 302 302 301
313 314 314 319 320 324 322 319 315 316 316 316 316 315 312 310 311 313 310 309 310 311 313 312 315 316 314 315 317 314 313 312 310 309 309 309 308 307 309 308 303 302 302 302 302 301 300 300 300

GFSSGP_925_thetae_117.txt.gz
Theta_e
339 340 346 351 352 343 340 337 332 333 337 338 339 339 339 338 343 355 347 344 340 335 348 352 349 351 351 351 349 347 349 348 348 346 344 342 346 343 342 344 345 344 341 339 339 339 339 339 340
340 339 346 348 348 341 340 335 334 331 335 337 338 340 341 340 345 349 346 345 337 341 348 351 349 349 350 350 350 349 348 348 347 345 343 340 344 344 342 344 345 343 341 339 338 338 338 339 340
337 339 346 346 345 342 337 335 336 334 334 336 340 340 343 349 348 348 347 344 335 345 348 351 349 348 349 350 349 348 348 348 346 344 342 340 339 346 344 343 344 342 340 339 337 336 336 338 339
332 337 341 344 343 339 338 336 334 336 335 336 338 340 344 345 347 348 347 344 336 345 346 350 347 347 348 350 349 348 347 347 344 342 340 339 338 345 343 343 343 342 339 337 336 334 334 334 336
331 333 335 334 337 335 334 336 337 338 336 336 337 340 344 347 348 348 345 339 341 347 347 350 346 349 349 348 348 348 347 345 343 341 339 338 339 345 342 341 342 341 339 337 335 333 332 331 332
331 328 331 329 328 330 331 335 335 337 337 337 339 340 346 347 348 347 342 340 346 346 348 349 347 347 346 348 348 347 346 344 341 339 338 339 345 342 342 341 341 340 338 335 333 332 330 330 331
330 330 328 326 325 324 326 332 333 335 335 338 341 342 347 347 347 346 341 341 343 342 342 345 347 346 346 347 346 346 344 341 340 338 339 343 343 340 342 341 340 340 335 332 331 330 329 329 329
331 328 329 328 325 326 327 328 333 336 336 336 339 340 343 349 346 345 343 341 341 341 341 345 347 346 346 346 344 343 340 340 339 338 339 342 340 340 340 337 339 338 334 330 328 328 328 328 326
326 329 325 324 324 326 326 329 329 331 333 333 333 338 339 346 346 345 343 341 339 340 343 345 346 345 344 343 344 341 339 337 336 339 340 338 339 338 338 336 337 334 331 328 327 327 326 324 318
325 326 325 323 324 323 323 325 327 329 329 329 330 332 337 345 347 345 343 341 338 340 341 344 346 344 342 342 343 339 337 334 339 340 339 340 337 336 336 334 335 332 328 327 327 319 320 321 323
320 323 320 318 319 319 321 322 322 322 323 324 328 330 336 339 344 345 344 343 340 343 343 345 346 345 341 338 338 332 331 334 340 340 337 334 335 332 331 330 332 329 326 322 319 322 323 322 323
319 319 319 320 320 319 318 318 318 317 318 318 320 323 327 331 340 343 344 343 341 340 340 344 343 343 337 336 332 330 331 340 340 339 336 334 332 328 328 327 329 327 319 315 315 319 322 322 322
321 321 321 321 321 321 321 321 321 320 319 318 317 317 318 321 335 338 342 344 342 342 343 343 342 339 336 333 330 331 340 341 339 339 335 333 329 326 325 324 325 323 314 312 314 317 319 320 321
322 321 322 321 321 321 322 322 321 320 319 318 317 317 317 321 326 331 338 343 342 341 342 341 340 340 335 331 330 337 342 339 338 337 335 330 327 325 324 323 319 317 312 312 313 313 314 315 316
321 323 323 322 322 321 320 321 321 321 319 319 319 317 318 318 319 322 331 339 342 342 340 341 340 337 335 330 332 339 341 340 339 337 333 327 325 323 322 320 315 312 312 312 312 313 313 313 313
324 324 325 324 322 322 321 325 322 321 321 321 321 321 320 319 318 322 324 332 338 341 341 340 341 336 335 331 338 339 341 339 338 336 329 324 322 321 319 316 312 312 311 312 312 312 313 313 313
325 324 325 324 323 322 323 325 323 323 323 323 323 322 321 320 319 318 327 330 336 341 341 340 340 337 336 332 338 338 339 338 337 333 325 323 320 318 315 313 312 311 311 312 312 312 312 313 312
322 324 324 324 322 322 323 324 323 322 321 321 321 322 322 321 319 318 325 333 336 342 340 340 339 337 336 333 338 337 338 337 336 329 324 321 318 314 312 312 312 311 312 312 312 313 312 312 312
320 321 323 323 322 324 323 323 321 322 321 322 322 323 322 321 320 318 317 332 339 339 338 329 339 338 336 336 338 338 338 336 334 328 325 319 315 313 312 312 311 312 312 312 312 313 313 313 312
319 321 323 323 322 323 322 323 321 321 322 322 321 321 323 323 322 321 318 322 333 340 339 338 339 338 337 338 337 337 336 336 332 328 325 317 314 312 312 311 311 312 312 313 313 313 313 313 313
320 321 321 324 323 323 322 324 321 321 321 321 321 322 322 324 323 323 322 322 329 338 340 339 339 339 337 338 336 334 335 333 329 329 326 317 312 310 310 311 311 311 313 313 313 314 314 314 313
321 320 325 326 324 324 322 326 324 322 323 321 321 322 324 324 325 324 323 323 326 333 339 339 338 339 338 337 332 333 329 327 326 324 322 317 311 309 309 309 310 311 312 313 313 313 314 314 313
320 321 325 325 325 325 323 324 323 322 323 322 321 322 321 321 326 328 324 323 323 330 335 339 336 337 337 335 332 333 331 329 327 323 321 318 311 308 308 308 308 308 308 309 309 310 310 311 312
319 322 326 325 326 327 322 325 323 323 322 321 324 322 320 321 323 329 327 325 325 331 336 337 330 328 334 332 331 331 330 329 324 319 317 316 312 308 308 309 309 308 308 308 308 309 309 309 311
320 325 336 331 330 326 323 325 326 323 321 325 324 320 319 319 322 327 330 328 328 336 337 335 334 334 332 331 327 326 328 327 324 321 316 314 314 313 312 310 310 309 309 309 309 309 309 309 311
322 324 330 335 327 329 324 327 326 322 322 323 322 318 317 319 319 323 334 335 333 335 332 330 330 328 330 329 324 324 323 322 318 315 314 314 314 315 315 314 311 310 310 310 310 309 308 309 311
319 320 322 329 328 332 325 320 324 323 322 321 322 318 317 317 318 320 321 329 330 329 328 327 327 325 325 324 323 321 321 320 319 317 315 315 315 315 314 312 311 310 311 309 308 308 309 309 309
317 318 325 327 336 328 320 317 318 321 322 321 322 318 316 317 317 317 317 317 319 324 327 326 325 323 322 323 323 322 322 323 320 318 317 316 316 315 314 312 311 311 308 306 306 307 308 308 308
318 318 318 323 323 327 323 321 317 318 320 320 321 315 314 316 315 313 314 313 314 318 322 321 319 320 321 322 321 321 320 319 318 317 315 315 314 313 313 312 311 308 308 309 310 308 307 305 304
315 315 315 318 319 322 324 322 317 318 319 319 318 316 314 314 316 314 312 312 311 310 310 314 312 311 312 313 315 311 313 314 312 309 310 312 313 312 311 311 311 311 310 307 305 304 303 304 303

GFSSGP_925_thetae_120.txt.gz
Theta_e
334 341 341 348 355 353 346 342 338 334 335 337 337 339 339 338 352 361 345 343 341 342 350 350 349 350 351 350 347 348 349 348 347 345 345 344 342 342 345 345 343 341 340 339 338 339 339 340 342
340 340 343 351 356 350 343 340 338 333 331 335 338 339 339 349 350 347 346 340 336 347 352 352 349 349 349 348 346 348 348 348 347 344 342 346 343 343 344 345 342 340 339 338 338 338 339 339 339
333 339 347 352 348 348 343 336 337 334 333 335 336 338 341 352 348 346 346 336 337 348 351 352 349 349 349 349 348 348 348 348 346 344 340 342 344 344 344 344 342 339 338 337 337 337 339 337 341
331 336 341 343 346 341 340 336 336 335 335 333 334 338 346 346 347 348 344 335 343 347 350 349 349 349 349 349 349 348 347 347 345 343 340 338 344 345 343 343 342 339 337 336 335 335 336 335 339
328 335 337 335 334 334 334 333 335 337 335 334 335 337 351 347 348 348 344 335 344 348 352 347 347 349 348 349 348 347 347 346 344 341 339 337 342 343 343 342 341 339 337 335 333 332 333 332 336
333 332 331 332 331 329 327 329 334 335 334 335 337 339 349 348 348 347 343 337 345 350 351 348 346 348 348 348 348 347 347 345 342 339 337 338 344 343 342 340 341 338 336 334 332 330 330 328 333
335 334 332 328 328 327 325 324 331 336 337 337 339 344 349 347 347 345 340 339 347 348 350 349 348 347 346 347 347 346 345 343 340 338 338 343 342 342 339 340 340 336 334 333 331 330 328 324 330
332 333 330 328 329 329 326 326 328 332 336 334 337 346 345 344 346 343 340 345 344 348 348 347 348 347 346 346 344 345 343 340 338 338 340 342 339 340 338 340 338 334 332 330 329 328 324 319 325
326 332 331 328 327 327 325 325 326 328 331 330 331 334 344 334 337 344 341 342 342 341 344 344 345 346 346 345 344 342 340 339 335 338 341 339 338 338 338 336 336 332 330 329 327 324 313 323 325
326 330 328 323 323 322 322 323 324 324 328 329 328 330 338 333 333 337 343 341 340 341 343 346 346 345 345 344 343 341 340 335 336 340 337 339 337 338 335 335 333 331 329 325 320 316 322 325 326
320 323 322 319 319 319 318 317 318 319 322 322 322 323 341 344 345 345 344 341 339 342 345 346 345 344 344 344 342 341 338 336 338 339 339 338 336 337 333 334 331 326 320 315 322 323 321 321 325
321 321 320 322 321 321 321 320 319 319 319 318 317 316 317 328 342 343 344 343 341 343 345 345 344 343 343 344 340 336 333 334 339 338 339 334 333 332 329 330 330 323 319 315 319 322 322 324 324
322 322 321 321 322 322 322 322 322 321 320 319 318 317 316 315 318 338 342 343 342 341 342 344 343 344 342 336 333 330 332 336 337 339 335 334 329 329 327 329 328 322 315 314 318 321 321 321 320
322 321 322 322 323 322 322 322 321 321 320 318 318 316 315 314 315 321 339 339 342 341 340 339 342 342 340 334 331 336 339 338 338 338 334 332 328 326 325 326 325 318 312 313 316 317 317 318 317
322 323 324 324 324 323 321 322 323 320 320 319 318 317 316 315 317 317 326 338 341 342 343 341 341 340 337 333 330 339 339 339 338 337 334 330 327 325 323 322 319 313 312 313 313 313 313 313 314
324 325 327 324 323 322 322 325 324 322 321 321 321 319 319 318 317 318 318 323 338 341 341 339 334 333 338 332 333 339 339 338 338 336 334 327 325 324 322 318 315 312 312 312 313 313 313 312 312
325 322 323 325 324 323 323 324 323 321 321 321 320 320 320 320 319 319 318 318 331 339 341 340 336 336 337 332 337 337 339 339 338 336 329 325 323 321 320 315 312 311 312 312 312 312 313 313 312
320 320 321 323 323 323 325 322 322 321 320 320 319 319 320 320 320 319 318 318 328 338 340 340 340 340 337 335 338 339 338 339 337 332 326 323 321 319 316 313 312 311 312 312 312 312 312 312 312
319 319 321 322 323 323 325 323 321 322 321 321 321 320 320 321 321 320 317 318 326 341 341 340 339 338 337 337 338 339 338 338 337 329 324 322 319 316 313 312 311 311 311 312 312 312 312 312 312
319 321 322 321 323 323 324 324 323 321 321 321 320 320 321 322 320 321 320 317 318 338 338 338 338 336 331 336 337 337 338 337 335 327 324 320 316 313 312 312 311 312 312 312 312 313 313 313 312
318 321 323 326 324 323 323 323 322 322 321 320 320 320 321 321 322 323 323 320 321 335 340 337 336 330 327 330 337 337 337 335 330 326 321 317 314 312 312 312 311 312 312 313 313 313 313 313 313
319 319 322 327 326 327 323 325 326 321 321 321 320 322 321 319 320 321 325 323 322 330 336 333 327 328 330 336 336 335 334 330 329 327 320 315 314 312 312 311 311 312 313 314 314 314 314 314 313
319 319 321 325 326 326 323 323 325 322 323 322 322 322 320 319 320 321 323 327 323 324 335 336 335 329 329 327 334 333 331 330 328 326 321 316 311 310 311 310 310 311 313 314 314 313 313 312 312
319 322 326 327 327 330 323 325 325 324 323 324 324 320 319 319 320 321 323 327 324 334 335 334 331 328 325 327 327 328 330 330 328 326 322 317 310 309 309 309 310 311 311 310 310 309 309 309 308
322 323 336 331 332 328 323 326 326 323 323 325 322 319 318 318 320 322 327 328 334 334 336 329 329 326 326 323 322 326 326 328 328 326 324 318 314 310 308 307 307 308 308 308 309 309 309 309 309
321 322 330 329 331 330 327 328 327 323 322 323 320 318 317 319 318 320 324 331 333 331 331 328 329 328 328 327 327 326 325 322 319 319 317 315 314 313 311 309 308 309 309 309 310 309 309 309 309
319 320 323 328 329 332 331 324 324 319 321 323 322 318 317 317 316 318 318 322 329 328 328 325 324 324 323 323 321 321 320 320 318 316 315 315 315 315 314 313 311 310 310 310 310 310 309 309 308
318 318 325 329 327 329 322 318 317 320 322 323 319 317 318 316 315 316 315 317 322 321 324 323 322 323 322 322 321 321 321 320 318 317 316 316 316 315 314 312 311 310 309 309 309 308 308 308 308
318 319 318 321 324 326 324 319 316 319 320 321 319 315 315 316 314 315 314 313 313 316 316 318 320 320 320 320 319 319 318 318 318 317 316 316 314 314 313 311 310 309 308 307 308 309 309 307 305
315 315 314 317 320 319 321 320 316 319 319 319 317 315 314 315 315 313 312 311 311 310 312 312 314 316 313 315 316 313 312 311 311 312 313 313 312 311 311 310 311 310 310 310 310 309 304 304 303

GFSSGP_925_thetae_123.txt.gz
Theta_e
328 341 341 343 344 348 347 341 338 333 333 334 336 337 337 346 353 349 346 344 344 346 350 343 350 349 350 352 351 350 348 348 348 345 343 341 343 345 345 342 341 340 338 339 339 339 342 343 345
335 340 342 345 349 348 344 339 339 333 330 332 335 336 337 354 347 346 344 342 340 346 350 345 350 349 349 348 349 349 348 347 345 344 344 342 342 345 344 342 341 339 338 338 339 339 341 343 342
325 335 340 345 346 348 344 337 334 333 332 333 333 335 344 351 346 343 342 341 340 348 350 347 350 349 348 347 346 347 348 346 344 342 345 342 344 344 343 341 339 338 337 337 338 339 340 342 339
331 331 333 343 345 340 339 336 333 332 333 332 330 340 345 346 344 345 339 341 347 347 349 349 349 348 347 345 348 348 347 346 344 340 342 344 345 344 344 341 339 337 336 334 335 339 340 340 337
326 328 336 336 335 331 329 329 330 332 334 333 333 336 349 347 346 341 335 346 348 350 350 349 348 348 347 348 348 347 347 346 344 340 338 343 344 342 343 340 338 337 335 332 332 333 338 336 334
325 325 328 331 330 327 324 323 323 333 332 331 338 339 347 344 344 342 334 346 348 350 351 347 348 348 348 348 348 347 347 345 343 339 337 342 344 342 342 340 337 336 334 331 329 326 334 330 334
329 329 331 328 326 325 325 321 326 332 334 332 336 337 343 340 342 344 340 346 348 350 349 347 347 347 347 347 346 346 346 344 341 337 337 343 343 341 341 340 337 335 333 331 325 320 331 329 333
325 327 328 325 325 325 322 321 324 328 333 335 336 345 343 336 341 342 339 344 348 350 347 346 347 347 348 347 346 345 344 343 338 337 340 342 341 339 340 338 336 333 332 329 319 316 328 327 328
322 324 327 326 322 322 318 318 320 321 322 328 329 333 337 333 332 334 329 340 347 347 348 345 346 346 347 346 345 344 341 339 334 336 340 340 338 338 338 335 334 332 330 321 310 318 326 327 326
322 323 325 319 316 317 317 316 315 315 315 318 321 338 335 334 330 327 327 335 337 346 346 344 344 344 345 344 344 342 340 334 336 339 338 338 337 337 336 333 332 330 324 309 317 325 325 326 326
317 319 319 318 320 320 319 319 318 317 317 316 316 326 335 333 334 333 333 327 329 340 344 344 342 343 343 343 342 340 339 331 336 339 338 339 337 336 333 331 328 316 319 317 321 321 322 323 325
318 318 319 319 321 320 320 319 319 318 318 316 316 314 324 339 340 341 341 336 328 334 342 343 344 344 343 341 341 340 336 331 338 337 339 338 336 334 332 329 325 311 321 322 323 322 324 324 325
320 320 320 319 320 320 320 320 320 319 318 317 316 316 313 313 318 331 342 339 332 338 341 342 342 343 343 342 341 339 332 334 338 338 338 336 336 331 328 328 320 312 316 319 322 322 322 322 324
320 320 320 320 320 320 321 320 319 318 317 317 317 315 313 312 312 313 330 340 340 340 340 338 341 342 342 341 339 337 331 330 338 338 338 333 331 328 328 329 322 315 314 319 321 320 317 318 321
321 320 320 321 321 321 319 321 321 318 317 317 316 315 315 315 313 313 316 339 341 339 336 332 340 338 339 338 334 334 331 332 335 338 334 329 328 327 328 330 319 313 313 317 316 315 316 315 317
323 320 321 321 321 320 319 322 321 317 318 318 316 315 317 317 316 317 316 316 337 340 338 334 337 339 338 335 335 332 333 335 337 337 334 329 327 325 326 323 318 312 312 314 313 313 314 314 314
315 317 317 318 320 321 320 322 319 317 318 318 317 316 317 318 318 319 319 317 320 341 341 339 338 337 338 333 338 338 337 337 338 336 329 328 326 323 323 321 317 311 312 312 313 312 312 312 312
317 316 316 316 321 321 322 320 320 319 319 318 317 316 317 318 319 320 320 316 323 331 341 339 338 334 336 336 336 338 337 337 338 336 327 325 324 322 321 317 313 311 312 312 312 312 312 312 312
316 316 316 318 321 321 322 320 321 319 319 318 317 317 317 318 318 320 321 323 336 337 339 338 337 333 336 337 336 337 338 337 337 335 328 324 322 320 317 313 311 311 312 312 312 312 312 312 312
316 318 318 322 323 321 320 322 320 320 319 319 318 317 319 319 318 318 319 322 322 337 337 336 338 337 335 334 334 336 335 336 334 328 325 322 320 318 315 312 311 311 312 312 312 312 312 312 311
316 319 319 324 324 322 321 322 322 320 319 319 317 318 319 318 318 318 319 321 324 334 336 336 335 334 334 331 332 331 333 335 333 324 323 321 318 314 312 312 311 311 312 312 312 312 312 312 312
316 317 318 322 324 323 319 321 322 320 320 319 319 320 319 318 317 318 319 320 322 327 336 334 335 333 330 328 328 325 333 330 325 323 318 317 314 312 312 312 311 312 312 312 313 313 313 313 312
316 317 318 321 324 323 320 319 322 319 321 319 321 320 318 318 318 319 319 320 322 325 334 333 332 329 328 325 325 331 331 326 318 317 315 313 312 312 312 311 311 312 313 313 313 313 313 313 311
316 319 324 323 323 326 320 322 320 322 321 320 322 319 318 319 319 320 321 324 326 334 333 331 328 328 328 326 324 326 325 324 322 318 316 314 313 311 311 311 311 313 313 313 313 312 310 309 309
315 318 316 320 320 323 323 322 321 321 321 322 322 319 318 318 318 320 325 328 331 329 331 330 330 327 325 324 323 323 321 326 326 323 319 312 312 311 311 310 310 311 311 311 311 310 309 309 309
316 319 315 311 320 320 323 321 323 320 322 320 319 318 318 317 317 319 323 327 327 330 329 327 326 324 324 323 322 321 324 323 323 323 320 317 315 313 311 310 310 310 309 310 310 310 311 310 309
316 316 320 321 324 322 323 322 322 318 321 318 317 318 318 316 316 317 317 321 327 325 325 326 326 323 322 321 322 323 323 322 321 318 317 316 315 314 312 310 309 309 309 309 309 310 310 309 309
316 316 320 321 315 322 319 316 315 320 321 319 316 317 318 316 316 315 315 317 319 319 320 321 320 319 320 320 320 318 318 316 316 316 316 315 315 314 313 312 310 308 309 309 310 309 309 309 309
317 317 315 315 319 321 321 317 314 319 320 319 316 315 316 316 314 314 313 314 315 315 315 316 318 319 319 319 319 319 318 317 317 316 316 315 315 314 313 312 311 310 309 308 308 308 307 307 307
313 313 310 313 316 315 316 318 317 316 317 317 316 313 314 315 313 311 310 311 310 310 311 310 310 313 314 316 316 315 315 315 315 314 313 313 313 312 311 309 307 307 307 308 309 309 308 305 304

GFSSGP_925_thetae_126.txt.gz
Theta_e
318 336 340 341 339 343 347 343 339 338 332 332 334 336 342 344 351 345 345 347 344 343 341 350 350 349 350 351 351 349 348 348 343 342 342 343 345 343 342 341 339 339 339 340 342 344 345 345 345
320 338 341 341 342 344 340 340 339 333 331 329 331 335 339 353 346 343 344 345 344 349 345 352 350 349 350 350 349 347 347 347 344 342 342 345 346 344 342 340 339 338 338 339 342 343 343 344 344
325 334 338 342 343 343 342 336 334 334 329 330 331 336 346 350 345 343 345 345 345 351 347 351 348 349 350 349 347 346 347 346 344 343 342 345 345 343 341 340 339 338 338 338 340 343 342 343 341
329 329 330 343 346 340 338 335 333 329 328 331 331 337 343 343 342 343 343 344 347 351 347 350 348 349 348 348 347 346 346 344 344 344 341 343 345 343 341 339 337 336 337 338 340 339 340 341 341
326 326 332 336 335 330 326 325 325 326 329 333 336 339 348 343 337 339 344 345 350 351 346 351 348 348 347 346 346 347 345 344 342 343 342 345 343 343 340 339 337 334 334 338 340 339 336 339 339
323 322 327 332 331 326 322 320 318 331 331 332 334 335 345 340 339 335 343 350 349 350 347 351 348 348 346 345 347 346 346 345 340 339 344 345 342 343 339 338 337 334 331 335 338 336 338 338 338
326 326 329 327 327 323 322 317 324 325 332 333 333 333 334 340 341 337 339 347 349 345 347 349 348 347 346 347 346 346 345 344 340 337 342 344 341 342 340 338 336 333 330 331 336 335 336 338 336
323 325 328 324 323 323 319 316 320 317 330 333 335 341 338 341 341 340 337 341 344 345 345 348 348 347 345 346 346 346 344 343 338 336 340 343 341 341 339 338 335 333 329 328 334 334 333 334 332
319 322 325 325 317 317 316 317 317 315 315 320 331 335 334 337 337 339 336 338 342 337 340 345 345 346 346 345 345 345 343 340 334 335 342 341 340 340 337 334 334 332 327 325 330 332 331 332 327
321 321 322 319 316 317 318 318 317 317 315 316 319 335 335 333 330 332 333 335 338 336 330 327 343 344 345 345 344 343 342 336 333 341 341 339 339 338 335 332 331 327 324 320 326 329 326 326 324
317 317 317 317 317 319 319 318 318 318 318 317 316 317 335 334 330 327 334 334 333 332 325 323 331 342 343 345 344 342 339 333 335 339 338 337 338 336 333 330 326 314 316 325 325 325 325 325 323
316 316 317 319 319 320 319 318 318 318 318 316 316 315 333 334 331 329 328 330 327 327 322 323 340 342 341 341 343 340 337 333 338 338 338 337 336 334 331 326 312 311 323 323 322 321 322 324 323
319 319 319 319 318 319 318 319 319 318 316 315 315 314 313 314 318 332 332 331 327 327 325 329 334 337 341 339 340 340 335 333 337 337 338 337 336 333 330 324 315 319 320 321 322 323 324 324 322
319 319 318 319 319 319 320 319 319 318 315 316 316 315 314 314 314 313 313 337 329 328 334 335 330 328 339 340 340 339 336 331 337 339 338 336 335 332 327 318 316 320 321 321 321 321 324 323 321
320 320 319 320 320 320 319 320 320 317 316 315 315 314 316 315 317 316 318 321 335 332 337 337 337 337 336 338 339 337 333 333 338 338 337 336 335 328 326 317 312 315 319 320 318 317 323 322 320
321 316 317 316 320 320 319 321 319 315 317 317 316 314 316 316 317 319 320 320 316 338 338 337 329 331 335 331 335 335 333 335 338 337 336 335 332 326 328 320 315 313 316 319 315 319 322 320 319
313 316 316 316 319 320 319 320 318 317 318 318 316 315 316 316 317 318 319 320 322 336 338 337 334 336 335 336 335 336 335 333 336 338 333 333 329 326 328 323 316 312 315 315 314 314 317 318 318
316 315 315 315 318 320 320 320 319 318 318 317 315 315 315 318 317 317 318 319 322 333 338 336 332 335 337 336 334 335 335 332 335 336 333 328 328 326 328 319 312 312 314 313 312 313 312 314 317
315 315 316 317 319 321 320 321 320 319 318 318 316 315 317 318 317 317 317 319 321 333 337 337 337 337 336 335 335 336 335 334 335 334 331 327 324 325 322 318 313 311 312 312 312 312 311 311 311
315 317 317 318 321 321 319 322 320 319 319 318 317 317 317 318 316 316 317 318 320 327 336 335 334 332 333 335 334 335 335 335 335 326 325 325 324 321 320 318 313 311 312 312 312 312 311 311 311
314 317 317 319 321 319 320 321 321 319 318 318 317 317 318 317 317 317 317 318 320 323 333 333 332 333 333 333 334 334 334 332 326 329 327 323 318 317 316 314 311 311 312 312 312 312 312 310 311
315 316 317 318 322 323 317 321 320 318 317 317 318 320 318 318 317 317 318 319 320 322 333 332 333 333 333 332 333 332 331 327 322 319 318 319 317 314 313 312 311 311 311 311 312 312 312 311 312
314 315 316 318 322 322 319 319 316 318 320 318 321 320 318 319 319 320 318 319 321 326 331 332 331 329 327 328 328 328 326 326 325 324 320 319 315 312 311 311 311 311 311 311 312 312 312 312 311
315 318 315 321 321 325 319 320 317 320 320 321 321 319 319 318 318 319 323 323 327 330 329 330 328 324 324 325 329 327 328 325 316 314 314 312 313 312 312 311 311 311 312 313 313 313 312 312 311
314 312 312 315 318 323 321 319 319 319 321 321 321 320 318 318 317 319 324 326 326 327 327 327 327 324 324 326 327 327 325 322 321 319 319 316 313 313 310 311 311 312 312 312 312 312 311 310 309
315 315 311 305 316 316 320 320 319 320 320 319 319 319 318 317 317 317 321 325 327 326 326 326 324 323 323 325 324 324 324 323 322 322 321 320 315 311 313 311 312 310 310 310 310 310 309 309 310
315 316 317 316 318 319 320 320 319 320 321 317 319 319 318 317 317 316 317 320 322 324 324 323 321 320 321 320 321 322 323 324 323 322 321 319 315 312 312 311 310 311 311 311 311 311 311 311 310
315 316 319 316 316 320 318 315 314 318 319 318 319 319 318 316 315 314 315 316 317 318 319 320 319 318 318 319 320 320 321 320 319 317 317 316 314 314 312 310 310 309 309 310 310 310 310 310 309
316 316 315 314 316 318 320 316 309 317 319 318 317 317 317 316 313 312 313 314 314 314 316 316 318 319 318 318 318 317 317 317 317 316 316 315 315 314 312 310 309 308 308 309 310 310 309 309 308
311 311 309 312 316 312 313 316 317 316 316 316 314 316 316 314 311 310 311 310 309 309 310 312 316 317 317 317 317 316 316 316 316 315 315 315 314 313 312 312 311 310 309 308 308 307 307 306 305